Darstellungsparameter: Aktuell verwendete Einstellungen:
Skalierung der Graphiken ... ?
xyx+y,   Skalierungsfaktor:      Skalierung: Modus: x, Faktor: 1
Darstellungszeitraum ... ?
Vom - - bis: - -   Zeitraum: 23.12.2009 - 22.06.2010
Min/Max/Avg-Anzeige ... ?
Zeige MMA aktuell
Zeige MMA Monat
Zeige MMA alles
Zeige --A aktuell
Zeige --A Monat
Zeige --A alles
Keine MMA-Anzeige
MMA:
Minimum Maximum Average (ber die Originaldaten)
MMA-Basis: 14.04.2020 - 16.05.2020
Quicknavigation für Darstellung... ?
Tage:      1T, 2T, 3T, 5T -1T -2T -3T -5T +1T +2T +3T +5T
Wochen: 1W, 2W, 3W -1W -2W -3W +1W +2W +3W
Monate: 1M, 3M, 6M -1M -3M -6M +1M +3M +6M
Jahre:    1J, 3J, 5J, 10J -1J -3J -5J -10J +1J +3J +5J +10J
Nutze für die Darstellung ... ?
Originaldaten oder Mittelwerte auf ...
Stundenbasis Tagesbasis Wochenbasis
Monatsbasis Jahresbasis      Datenbasis: Original-Daten
Darstellen als:
Statistik (Auto) Statistik J:M      Darstellung:
Zur Graphik,    zurück zur Übersicht aller Sensoren.
 
Tabellarische Datenbersicht: ?
 
Sensor: Nr:Datum:Temp:Abs-Feuchte:Windchill:Wind:
Aussen-T/F 1 23-12-2009 00:09:02 0.4 C 4.68 g/m*3 0.4 C 0 km/h
2 23-12-2009 00:21:02 0.4 C 4.68 g/m*3 0.4 C 0 km/h
3 23-12-2009 00:33:02 0.5 C 4.71 g/m*3 0.5 C 0 km/h
4 23-12-2009 00:45:02 0.5 C 4.71 g/m*3 0.5 C 0 km/h
5 23-12-2009 00:57:03 0.6 C 4.8 g/m*3 0.6 C 0 km/h
6 23-12-2009 01:09:03 0.5 C 4.76 g/m*3 0.5 C 0 km/h
7 23-12-2009 01:21:03 0.5 C 4.76 g/m*3 0.5 C 0 km/h
8 23-12-2009 01:33:03 0.6 C 4.8 g/m*3 0.6 C 0 km/h
9 23-12-2009 01:45:03 0.6 C 4.8 g/m*3 0.6 C 0 km/h
10 23-12-2009 01:57:03 0.6 C 4.8 g/m*3 0.6 C 0 km/h
11 23-12-2009 02:09:03 0.6 C 4.8 g/m*3 0.6 C 0 km/h
12 23-12-2009 02:21:03 0.6 C 4.8 g/m*3 0.6 C 0 km/h
13 23-12-2009 02:33:03 0.6 C 4.8 g/m*3 0.6 C 0 km/h
14 23-12-2009 02:45:03 0.7 C 4.83 g/m*3 0.7 C 0 km/h
15 23-12-2009 02:57:03 0.6 C 4.8 g/m*3 0.6 C 0 km/h
16 23-12-2009 03:09:03 0.6 C 4.8 g/m*3 0.6 C 0 km/h
17 23-12-2009 03:21:03 0.5 C 4.76 g/m*3 0.5 C 0 km/h
18 23-12-2009 03:33:03 0.4 C 4.73 g/m*3 0.4 C 0 km/h
19 23-12-2009 03:45:03 0.4 C 4.73 g/m*3 0.4 C 0 km/h
20 23-12-2009 03:57:03 0.3 C 4.7 g/m*3 0.3 C 0 km/h
21 23-12-2009 04:09:03 0.3 C 4.7 g/m*3 0.3 C 0 km/h
22 23-12-2009 04:21:03 0.3 C 4.7 g/m*3 0.3 C 0 km/h
23 23-12-2009 04:33:03 0.3 C 4.7 g/m*3 0.3 C 0 km/h
24 23-12-2009 04:45:03 0.4 C 4.73 g/m*3 0.4 C 0 km/h
25 23-12-2009 04:57:04 0.2 C 4.67 g/m*3 0.2 C 0 km/h
Sensor: Nr:Datum:Temp:Abs-Feuchte:Windchill:Wind:
Aussen-T/F 26 23-12-2009 05:09:04 0.3 C 4.7 g/m*3 0.3 C 0 km/h
27 23-12-2009 05:21:04 0.3 C 4.7 g/m*3 0.3 C 0 km/h
28 23-12-2009 05:33:04 0.3 C 4.7 g/m*3 0.3 C 0 km/h
29 23-12-2009 05:45:04 0.3 C 4.7 g/m*3 0.3 C 0 km/h
30 23-12-2009 05:57:04 0.3 C 4.7 g/m*3 0.3 C 0 km/h
31 23-12-2009 06:09:04 0.1 C 4.63 g/m*3 0.1 C 0 km/h
32 23-12-2009 06:21:04 0.1 C 4.63 g/m*3 0.1 C 0 km/h
33 23-12-2009 06:33:03 0.2 C 4.67 g/m*3 0.2 C 0 km/h
34 23-12-2009 06:45:02 0.3 C 4.7 g/m*3 0.3 C 0 km/h
35 23-12-2009 06:57:02 0.3 C 4.7 g/m*3 0.3 C 0 km/h
36 23-12-2009 07:09:02 0.3 C 4.7 g/m*3 0.3 C 0 km/h
37 23-12-2009 07:21:02 0.1 C 4.63 g/m*3 0.1 C 0 km/h
38 23-12-2009 07:33:02 -0.2 C 4.54 g/m*3 -0.2 C 0 km/h
39 23-12-2009 07:45:02 -0.4 C 4.48 g/m*3 -0.4 C 0 km/h
40 23-12-2009 07:57:02 -0.6 C 4.42 g/m*3 -0.6 C 0 km/h
41 23-12-2009 08:09:02 -1 C 4.29 g/m*3 -1 C 0 km/h
42 23-12-2009 08:21:02 -1.2 C 4.24 g/m*3 -1.2 C 0 km/h
43 23-12-2009 08:33:02 -1.4 C 4.18 g/m*3 -1.4 C 0 km/h
44 23-12-2009 08:45:01 -1.4 C 4.18 g/m*3 -1.4 C 0 km/h
45 23-12-2009 08:57:01 -1.4 C 4.18 g/m*3 -1.4 C 0 km/h
46 23-12-2009 09:09:01 -1.4 C 4.18 g/m*3 -1.4 C 0 km/h
47 23-12-2009 09:21:01 -1.2 C 4.24 g/m*3 -1.2 C 0 km/h
48 23-12-2009 09:33:01 -1 C 4.29 g/m*3 -1 C 0 km/h
49 23-12-2009 09:45:01 -0.5 C 4.45 g/m*3 -0.5 C 0 km/h
50 23-12-2009 09:57:01 -0.3 C 4.51 g/m*3 -0.3 C 0 km/h
Sensor: Nr:Datum:Temp:Abs-Feuchte:Windchill:Wind:
Aussen-T/F 51 23-12-2009 10:09:01 0.1 C 4.63 g/m*3 0.1 C 0 km/h
52 23-12-2009 10:21:02 0.2 C 4.67 g/m*3 0.2 C 0 km/h
53 23-12-2009 10:33:01 0.2 C 4.67 g/m*3 0.2 C 0 km/h
54 23-12-2009 10:45:02 0.5 C 4.76 g/m*3 0.5 C 0 km/h
55 23-12-2009 10:57:02 0.8 C 4.86 g/m*3 0.8 C 0 km/h
56 23-12-2009 11:09:02 0.8 C 4.81 g/m*3 0.8 C 0 km/h
57 23-12-2009 11:21:03 0.9 C 4.74 g/m*3 0.9 C 0 km/h
58 23-12-2009 11:33:02 0.9 C 4.69 g/m*3 0.9 C 0 km/h
59 23-12-2009 11:45:02 0.5 C 4.46 g/m*3 0.5 C 0 km/h
60 23-12-2009 11:57:02 0.4 C 4.43 g/m*3 0.4 C 0 km/h
61 23-12-2009 12:09:02 0.4 C 4.43 g/m*3 0.4 C 0 km/h
62 23-12-2009 12:21:02 0.9 C 4.64 g/m*3 0.9 C 0 km/h
63 23-12-2009 12:33:02 1 C 4.62 g/m*3 1 C 0 km/h
64 23-12-2009 12:45:02 1 C 4.62 g/m*3 1 C 0 km/h
65 23-12-2009 12:57:02 1.1 C 4.65 g/m*3 1.1 C 0 km/h
66 23-12-2009 13:09:01 1.5 C 4.78 g/m*3 1.5 C 0 km/h
67 23-12-2009 13:21:02 2 C 4.89 g/m*3 2 C 0 km/h
68 23-12-2009 13:33:02 2.3 C 4.93 g/m*3 2.3 C 0 km/h
69 23-12-2009 13:45:02 2.5 C 5 g/m*3 2.5 C 0 km/h
70 23-12-2009 13:57:03 2.4 C 4.97 g/m*3 2.4 C 0 km/h
71 23-12-2009 14:09:02 1.6 C 4.65 g/m*3 1.6 C 0 km/h
72 23-12-2009 14:21:02 2 C 4.83 g/m*3 2 C 0 km/h
73 23-12-2009 14:33:02 2.3 C 4.93 g/m*3 2.3 C 0 km/h
74 23-12-2009 14:45:02 2.3 C 4.93 g/m*3 2.3 C 0 km/h
75 23-12-2009 14:57:02 1.8 C 4.77 g/m*3 1.8 C 0 km/h
Sensor: Nr:Datum:Temp:Abs-Feuchte:Windchill:Wind:
Aussen-T/F 76 23-12-2009 15:09:02 1.6 C 4.76 g/m*3 1.6 C 0 km/h
77 23-12-2009 15:21:01 1.3 C 4.66 g/m*3 1.3 C 0 km/h
78 23-12-2009 15:33:02 1.2 C 4.63 g/m*3 1.2 C 0 km/h
79 23-12-2009 15:45:02 1 C 4.62 g/m*3 1 C 0 km/h
80 23-12-2009 15:57:02 1.1 C 4.65 g/m*3 1.1 C 0 km/h
81 23-12-2009 16:09:02 0.8 C 4.61 g/m*3 0.8 C 0 km/h
82 23-12-2009 16:21:02 0.5 C 4.51 g/m*3 0.5 C 0 km/h
83 23-12-2009 16:33:02 0.4 C 4.48 g/m*3 0.4 C 0 km/h
84 23-12-2009 16:45:02 0.2 C 4.47 g/m*3 0.2 C 0 km/h
85 23-12-2009 16:57:02 0 C 4.41 g/m*3 0 C 0 km/h
86 23-12-2009 17:09:01 -0.2 C 4.4 g/m*3 -0.2 C 0 km/h
87 23-12-2009 17:21:02 -0.3 C 4.37 g/m*3 -0.3 C 0 km/h
88 23-12-2009 17:33:01 -0.3 C 4.41 g/m*3 -0.3 C 0 km/h
89 23-12-2009 17:45:01 -0.5 C 4.35 g/m*3 -0.5 C 0 km/h
90 23-12-2009 17:57:01 -0.5 C 4.35 g/m*3 -0.5 C 0 km/h
91 23-12-2009 18:09:02 -0.5 C 4.35 g/m*3 -0.5 C 0 km/h
92 23-12-2009 18:21:01 -0.6 C 4.32 g/m*3 -0.6 C 0 km/h
93 23-12-2009 18:33:02 -0.7 C 4.34 g/m*3 -0.7 C 0 km/h
94 23-12-2009 18:45:02 -0.7 C 4.34 g/m*3 -0.7 C 0 km/h
95 23-12-2009 18:57:02 -0.3 C 4.46 g/m*3 -0.3 C 0 km/h
96 23-12-2009 19:09:02 0 C 4.6 g/m*3 0 C 0 km/h
97 23-12-2009 19:21:02 0.2 C 4.67 g/m*3 0.2 C 0 km/h
98 23-12-2009 19:33:02 0.2 C 4.67 g/m*3 0.2 C 0 km/h
99 23-12-2009 19:45:02 0.3 C 4.7 g/m*3 0.3 C 0 km/h
100 23-12-2009 19:57:02 0.3 C 4.7 g/m*3 0.3 C 0 km/h
Sensor: Nr:Datum:Temp:Abs-Feuchte:Windchill:Wind:
Aussen-T/F 101 23-12-2009 20:09:02 0.5 C 4.76 g/m*3 0.5 C 0 km/h
102 23-12-2009 20:21:02 0.6 C 4.8 g/m*3 0.6 C 0 km/h
103 23-12-2009 20:33:02 0.7 C 4.83 g/m*3 0.7 C 0 km/h
104 23-12-2009 20:45:01 0.8 C 4.86 g/m*3 0.8 C 0 km/h
105 23-12-2009 20:57:01 1 C 4.93 g/m*3 1 C 0 km/h
106 23-12-2009 21:09:01 1 C 4.93 g/m*3 1 C 0 km/h
107 23-12-2009 21:21:01 1.1 C 4.96 g/m*3 1.1 C 0 km/h
108 23-12-2009 21:33:01 1.2 C 5 g/m*3 1.2 C 0 km/h
109 23-12-2009 21:45:01 1.2 C 5 g/m*3 1.2 C 0 km/h
110 23-12-2009 21:57:01 1.3 C 5.03 g/m*3 1.3 C 0 km/h
111 23-12-2009 22:09:01 1.3 C 5.03 g/m*3 1.3 C 0 km/h
112 23-12-2009 22:21:02 1.3 C 5.03 g/m*3 1.3 C 0 km/h
113 23-12-2009 22:33:01 1.3 C 5.03 g/m*3 1.3 C 0 km/h
114 23-12-2009 22:45:02 1.2 C 5 g/m*3 1.2 C 0 km/h
115 23-12-2009 22:57:02 1.1 C 4.96 g/m*3 1.1 C 0 km/h
116 23-12-2009 23:09:02 1.1 C 4.96 g/m*3 1.1 C 0 km/h
117 23-12-2009 23:21:02 1.1 C 4.96 g/m*3 1.1 C 0 km/h
118 23-12-2009 23:33:02 1.2 C 5 g/m*3 1.2 C 0 km/h
119 23-12-2009 23:45:02 1.2 C 5 g/m*3 1.2 C 0 km/h
120 23-12-2009 23:57:02 1.2 C 5 g/m*3 1.2 C 0 km/h
121 24-12-2009 00:09:01 1.2 C 5 g/m*3 1.2 C 0 km/h
122 24-12-2009 00:21:02 1.2 C 5 g/m*3 1.2 C 0 km/h
123 24-12-2009 00:34:03 1.1 C 4.96 g/m*3 1.1 C 0 km/h
124 24-12-2009 00:46:03 1.2 C 5 g/m*3 1.2 C 0 km/h
125 24-12-2009 00:58:03 1.2 C 5 g/m*3 1.2 C 0 km/h
Sensor: Nr:Datum:Temp:Abs-Feuchte:Windchill:Wind:
Aussen-T/F 126 24-12-2009 01:10:03 1.1 C 4.91 g/m*3 1.1 C 0 km/h
127 24-12-2009 01:22:03 1.1 C 4.91 g/m*3 1.1 C 0 km/h
128 24-12-2009 01:34:04 1.2 C 4.95 g/m*3 1.2 C 0 km/h
129 24-12-2009 01:46:04 1.2 C 4.95 g/m*3 1.2 C 0 km/h
130 24-12-2009 01:58:04 1.1 C 4.91 g/m*3 1.1 C 0 km/h
131 24-12-2009 02:10:04 1 C 4.88 g/m*3 1 C 0 km/h
132 24-12-2009 02:22:04 0.9 C 4.85 g/m*3 0.9 C 0 km/h
133 24-12-2009 02:34:04 1 C 4.88 g/m*3 1 C 0 km/h
134 24-12-2009 02:46:04 0.9 C 4.9 g/m*3 0.9 C 0 km/h
135 24-12-2009 02:58:04 0.6 C 4.75 g/m*3 0.6 C 0 km/h
136 24-12-2009 03:10:04 0.6 C 4.8 g/m*3 0.6 C 0 km/h
137 24-12-2009 03:22:04 0.7 C 4.83 g/m*3 0.7 C 0 km/h
138 24-12-2009 03:34:04 0.8 C 4.86 g/m*3 0.8 C 0 km/h
139 24-12-2009 03:46:04 0.9 C 4.9 g/m*3 0.9 C 0 km/h
140 24-12-2009 03:58:04 1 C 4.93 g/m*3 1 C 0 km/h
141 24-12-2009 04:10:04 1.1 C 4.96 g/m*3 1.1 C 0 km/h
142 24-12-2009 04:22:04 1.1 C 4.96 g/m*3 1.1 C 0 km/h
143 24-12-2009 04:34:04 1.2 C 5 g/m*3 1.2 C 0 km/h
144 24-12-2009 04:46:04 1.2 C 5 g/m*3 1.2 C 0 km/h
145 24-12-2009 04:58:04 1.3 C 5.03 g/m*3 1.3 C 0 km/h
146 24-12-2009 05:10:04 1.3 C 5.03 g/m*3 1.3 C 0 km/h
147 24-12-2009 05:22:04 1.4 C 5.07 g/m*3 1.4 C 0 km/h
148 24-12-2009 05:34:04 1.3 C 5.03 g/m*3 1.3 C 0 km/h
149 24-12-2009 05:46:05 1.3 C 5.03 g/m*3 1.3 C 0 km/h
150 24-12-2009 05:58:05 1.4 C 5.01 g/m*3 1.4 C 0 km/h
Sensor: Nr:Datum:Temp:Abs-Feuchte:Windchill:Wind:
Aussen-T/F 151 24-12-2009 06:10:05 1.3 C 4.98 g/m*3 1.3 C 0 km/h
152 24-12-2009 06:22:05 1.2 C 4.95 g/m*3 1.2 C 0 km/h
153 24-12-2009 06:34:05 1.3 C 4.98 g/m*3 1.3 C 0 km/h
154 24-12-2009 06:46:05 1.3 C 4.98 g/m*3 1.3 C 0 km/h
155 24-12-2009 06:58:05 1.3 C 4.98 g/m*3 1.3 C 0 km/h
156 24-12-2009 07:10:05 1.4 C 5.01 g/m*3 1.4 C 0 km/h
157 24-12-2009 07:22:05 1.4 C 5.01 g/m*3 1.4 C 0 km/h
158 24-12-2009 07:34:05 1.4 C 5.01 g/m*3 1.4 C 0 km/h
159 24-12-2009 07:46:05 1.4 C 5.01 g/m*3 1.4 C 0 km/h
160 24-12-2009 07:58:05 1.4 C 5.01 g/m*3 1.4 C 0 km/h
161 24-12-2009 08:10:05 1.5 C 5.05 g/m*3 1.5 C 0 km/h
162 24-12-2009 08:22:05 1.6 C 5.08 g/m*3 1.6 C 0 km/h
163 24-12-2009 08:34:05 1.6 C 5.08 g/m*3 1.6 C 0 km/h
164 24-12-2009 08:46:05 1.6 C 5.08 g/m*3 1.6 C 0 km/h
165 24-12-2009 08:58:05 1.7 C 5.12 g/m*3 1.7 C 0 km/h
166 24-12-2009 09:10:05 1.7 C 5.12 g/m*3 1.7 C 0 km/h
167 24-12-2009 09:22:05 1.7 C 5.12 g/m*3 1.7 C 0 km/h
168 24-12-2009 09:34:05 1.8 C 5.15 g/m*3 1.8 C 0 km/h
169 24-12-2009 09:46:06 1.9 C 5.19 g/m*3 1.9 C 0 km/h
170 24-12-2009 09:58:06 2 C 5.17 g/m*3 2 C 0 km/h
171 24-12-2009 10:10:06 2 C 5.17 g/m*3 2 C 0 km/h
172 24-12-2009 10:22:02 2.1 C 5.2 g/m*3 2.1 C 0 km/h
173 24-12-2009 10:34:02 2.2 C 5.24 g/m*3 2.2 C 0 km/h
174 24-12-2009 10:46:01 2.3 C 5.22 g/m*3 2.3 C 0 km/h
175 24-12-2009 10:58:01 2.6 C 5.32 g/m*3 2.6 C 0 km/h
Sensor: Nr:Datum:Temp:Abs-Feuchte:Windchill:Wind:
Aussen-T/F 176 24-12-2009 11:10:02 2.7 C 5.36 g/m*3 2.7 C 0 km/h
177 24-12-2009 11:22:01 2.8 C 5.34 g/m*3 2.8 C 0 km/h
178 24-12-2009 11:34:02 3 C 5.35 g/m*3 3 C 0 km/h
179 24-12-2009 11:46:01 3.2 C 5.42 g/m*3 3.2 C 0 km/h
180 24-12-2009 11:58:01 3.6 C 5.57 g/m*3 3.6 C 0 km/h
181 24-12-2009 12:10:02 3.7 C 5.55 g/m*3 3.7 C 0 km/h
182 24-12-2009 12:22:01 4.1 C 5.57 g/m*3 4.1 C 0 km/h
183 24-12-2009 12:34:02 4.4 C 5.62 g/m*3 4.4 C 0 km/h
184 24-12-2009 12:46:02 4.2 C 5.22 g/m*3 4.2 C 0 km/h
185 24-12-2009 12:58:02 4.1 C 5.06 g/m*3 4.1 C 0 km/h
186 24-12-2009 13:10:02 4 C 5.02 g/m*3 4 C 0 km/h
187 24-12-2009 13:22:01 4 C 5.02 g/m*3 4 C 0 km/h
188 24-12-2009 13:34:02 4.2 C 5.09 g/m*3 4.2 C 0 km/h
189 24-12-2009 13:46:01 4.3 C 5.06 g/m*3 4.3 C 0 km/h
190 24-12-2009 13:58:01 4.4 C 5.03 g/m*3 4.4 C 0 km/h
191 24-12-2009 14:10:02 4.3 C 4.99 g/m*3 4.3 C 0 km/h
192 24-12-2009 14:22:02 4.1 C 4.93 g/m*3 4.1 C 0 km/h
193 24-12-2009 14:34:02 4.1 C 4.99 g/m*3 4.1 C 0 km/h
194 24-12-2009 14:46:01 4.2 C 5.09 g/m*3 4.2 C 0 km/h
195 24-12-2009 14:58:01 4 C 5.02 g/m*3 4 C 0 km/h
196 24-12-2009 15:10:02 3.9 C 5.05 g/m*3 3.9 C 0 km/h
197 24-12-2009 15:22:02 3.8 C 5.08 g/m*3 3.8 C 0 km/h
198 24-12-2009 15:34:02 3.6 C 5.08 g/m*3 3.6 C 0 km/h
199 24-12-2009 15:46:02 3.5 C 5.1 g/m*3 3.5 C 0 km/h
200 24-12-2009 15:58:02 3.4 C 5.07 g/m*3 3.4 C 0 km/h
Sensor: Nr:Datum:Temp:Abs-Feuchte:Windchill:Wind:
Aussen-T/F 201 24-12-2009 16:10:02 3.2 C 5.06 g/m*3 3.2 C 0 km/h
202 24-12-2009 16:22:02 3 C 4.99 g/m*3 3 C 0 km/h
203 24-12-2009 16:34:01 2.8 C 5.04 g/m*3 2.8 C 0 km/h
204 24-12-2009 16:46:02 2.7 C 5.07 g/m*3 2.7 C 0 km/h
205 24-12-2009 16:58:02 2.5 C 5 g/m*3 2.5 C 0 km/h
206 24-12-2009 17:10:01 2.5 C 5.06 g/m*3 2.5 C 0 km/h
207 24-12-2009 17:22:02 2.5 C 5.12 g/m*3 2.5 C 0 km/h
208 24-12-2009 17:34:01 2.6 C 5.15 g/m*3 2.6 C 0 km/h
209 24-12-2009 17:46:02 2.6 C 5.21 g/m*3 2.6 C 0 km/h
210 24-12-2009 17:58:02 2.6 C 5.21 g/m*3 2.6 C 0 km/h
211 24-12-2009 18:10:01 2.6 C 5.21 g/m*3 2.6 C 0 km/h
212 24-12-2009 18:22:01 2.6 C 5.27 g/m*3 2.6 C 0 km/h
213 24-12-2009 18:34:01 2.6 C 5.27 g/m*3 2.6 C 0 km/h
214 24-12-2009 18:46:02 2.7 C 5.3 g/m*3 2.7 C 0 km/h
215 24-12-2009 18:58:02 2.7 C 5.3 g/m*3 2.7 C 0 km/h
216 24-12-2009 19:10:02 2.7 C 5.36 g/m*3 2.7 C 0 km/h
217 24-12-2009 19:22:02 2.7 C 5.36 g/m*3 2.7 C 0 km/h
218 24-12-2009 19:34:02 2.7 C 5.36 g/m*3 2.7 C 0 km/h
219 24-12-2009 19:46:02 2.7 C 5.36 g/m*3 2.7 C 0 km/h
220 24-12-2009 19:58:02 2.7 C 5.36 g/m*3 2.7 C 0 km/h
221 24-12-2009 20:10:01 2.7 C 5.36 g/m*3 2.7 C 0 km/h
222 24-12-2009 20:22:01 2.7 C 5.36 g/m*3 2.7 C 0 km/h
223 24-12-2009 20:34:02 2.7 C 5.36 g/m*3 2.7 C 0 km/h
224 24-12-2009 20:46:02 2.7 C 5.36 g/m*3 2.7 C 0 km/h
225 24-12-2009 20:58:02 2.7 C 5.36 g/m*3 2.7 C 0 km/h
Sensor: Nr:Datum:Temp:Abs-Feuchte:Windchill:Wind:
Aussen-T/F 226 24-12-2009 21:10:02 2.7 C 5.36 g/m*3 2.7 C 0 km/h
227 24-12-2009 21:22:02 2.6 C 5.32 g/m*3 2.6 C 0 km/h
228 24-12-2009 21:34:02 2.6 C 5.32 g/m*3 2.6 C 0 km/h
229 24-12-2009 21:46:01 2.6 C 5.32 g/m*3 2.6 C 0 km/h
230 24-12-2009 21:58:01 2.6 C 5.32 g/m*3 2.6 C 0 km/h
231 24-12-2009 22:10:02 2.6 C 5.38 g/m*3 2.6 C 0 km/h
232 24-12-2009 22:22:01 2.6 C 5.38 g/m*3 2.6 C 0 km/h
233 24-12-2009 22:34:02 2.7 C 5.42 g/m*3 2.7 C 0 km/h
234 24-12-2009 22:47:01 2.7 C 5.42 g/m*3 2.7 C 0 km/h
235 24-12-2009 22:59:01 2.7 C 5.48 g/m*3 2.7 C 0 km/h
236 24-12-2009 23:11:01 2.7 C 5.48 g/m*3 2.7 C 0 km/h
237 24-12-2009 23:23:01 2.8 C 5.51 g/m*3 2.8 C 0 km/h
238 24-12-2009 23:35:01 2.8 C 5.51 g/m*3 2.8 C 0 km/h
239 24-12-2009 23:47:01 2.9 C 5.61 g/m*3 2.9 C 0 km/h
240 24-12-2009 23:59:01 2.9 C 5.61 g/m*3 2.9 C 0 km/h
241 25-12-2009 00:11:01 3 C 5.59 g/m*3 3 C 0 km/h
242 25-12-2009 00:23:02 3 C 5.59 g/m*3 3 C 0 km/h
243 25-12-2009 00:35:02 3 C 5.65 g/m*3 3 C 0 km/h
244 25-12-2009 00:47:02 3.1 C 5.69 g/m*3 3.1 C 0 km/h
245 25-12-2009 00:59:02 3.1 C 5.69 g/m*3 3.1 C 0 km/h
246 25-12-2009 01:11:02 3.1 C 5.69 g/m*3 3.1 C 0 km/h
247 25-12-2009 01:23:02 3 C 5.65 g/m*3 3 C 0 km/h
248 25-12-2009 01:35:02 3 C 5.65 g/m*3 3 C 0 km/h
249 25-12-2009 01:47:02 3.1 C 5.69 g/m*3 3.1 C 0 km/h
250 25-12-2009 01:59:02 3.1 C 5.69 g/m*3 3.1 C 0 km/h
Sensor: Nr:Datum:Temp:Abs-Feuchte:Windchill:Wind:
Aussen-T/F 251 25-12-2009 02:11:02 3.2 C 5.72 g/m*3 3.2 C 0 km/h
252 25-12-2009 02:23:02 3.2 C 5.72 g/m*3 3.2 C 0 km/h
253 25-12-2009 02:35:02 3.1 C 5.69 g/m*3 3.1 C 0 km/h
254 25-12-2009 02:47:02 3.1 C 5.69 g/m*3 3.1 C 0 km/h
255 25-12-2009 02:59:02 3.1 C 5.69 g/m*3 3.1 C 0 km/h
256 25-12-2009 03:11:02 3.1 C 5.69 g/m*3 3.1 C 0 km/h
257 25-12-2009 03:23:02 3.1 C 5.69 g/m*3 3.1 C 0 km/h
258 25-12-2009 03:35:02 3.1 C 5.69 g/m*3 3.1 C 0 km/h
259 25-12-2009 03:47:02 3.2 C 5.72 g/m*3 3.2 C 0 km/h
260 25-12-2009 03:59:02 3.2 C 5.72 g/m*3 3.2 C 0 km/h
261 25-12-2009 04:11:02 3.2 C 5.72 g/m*3 3.2 C 0 km/h
262 25-12-2009 04:23:02 3.1 C 5.69 g/m*3 3.1 C 0 km/h
263 25-12-2009 04:35:03 3.1 C 5.69 g/m*3 3.1 C 0 km/h
264 25-12-2009 04:47:03 3.2 C 5.72 g/m*3 3.2 C 0 km/h
265 25-12-2009 04:59:03 3.2 C 5.72 g/m*3 3.2 C 0 km/h
266 25-12-2009 05:11:03 3.2 C 5.72 g/m*3 3.2 C 0 km/h
267 25-12-2009 05:23:03 3.3 C 5.76 g/m*3 3.3 C 0 km/h
268 25-12-2009 05:35:03 3.4 C 5.8 g/m*3 3.4 C 0 km/h
269 25-12-2009 05:47:03 3.4 C 5.8 g/m*3 3.4 C 0 km/h
270 25-12-2009 05:59:03 3.5 C 5.84 g/m*3 3.5 C 0 km/h
271 25-12-2009 06:11:03 3.6 C 5.88 g/m*3 3.6 C 0 km/h
272 25-12-2009 06:23:03 3.6 C 5.88 g/m*3 3.6 C 0 km/h
273 25-12-2009 06:35:03 3.6 C 5.88 g/m*3 3.6 C 0 km/h
274 25-12-2009 06:47:03 3.5 C 5.84 g/m*3 3.5 C 0 km/h
275 25-12-2009 06:59:03 6.8 C 7.27 g/m*3 6.8 C 0 km/h
Sensor: Nr:Datum:Temp:Abs-Feuchte:Windchill:Wind:
Aussen-T/F 276 25-12-2009 07:11:03 7.1 C 7.41 g/m*3 7.1 C 0 km/h
277 25-12-2009 07:23:03 7.1 C 7.41 g/m*3 7.1 C 0 km/h
278 25-12-2009 07:35:03 6.8 C 7.11 g/m*3 6.8 C 0 km/h
279 25-12-2009 07:47:03 6.4 C 6.56 g/m*3 6.4 C 0 km/h
280 25-12-2009 07:59:03 5.9 C 6.06 g/m*3 5.9 C 0 km/h
281 25-12-2009 08:11:03 5.6 C 5.87 g/m*3 5.6 C 0 km/h
282 25-12-2009 08:23:03 5.1 C 5.68 g/m*3 5.1 C 0 km/h
283 25-12-2009 08:35:03 4.8 C 5.5 g/m*3 4.8 C 0 km/h
284 25-12-2009 08:47:04 4.4 C 5.09 g/m*3 4.4 C 0 km/h
285 25-12-2009 08:59:04 4.2 C 4.77 g/m*3 4.2 C 0 km/h
286 25-12-2009 09:11:04 4.1 C 4.67 g/m*3 4.1 C 0 km/h
287 25-12-2009 09:23:04 4 C 4.58 g/m*3 4 C 0 km/h
288 25-12-2009 09:35:04 4 C 4.58 g/m*3 4 C 0 km/h
289 25-12-2009 09:47:01 4 C 4.64 g/m*3 4 C 0 km/h
290 25-12-2009 09:59:01 3.8 C 4.64 g/m*3 3.8 C 0 km/h
291 25-12-2009 10:11:02 4 C 4.64 g/m*3 4 C 0 km/h
292 25-12-2009 10:23:01 4.1 C 4.74 g/m*3 4.1 C 0 km/h
293 25-12-2009 10:35:02 4.2 C 4.77 g/m*3 4.2 C 0 km/h
294 25-12-2009 10:47:02 4.3 C 4.8 g/m*3 4.3 C 0 km/h
295 25-12-2009 10:59:02 4.1 C 4.67 g/m*3 4.1 C 0 km/h
296 25-12-2009 11:11:02 4.1 C 4.67 g/m*3 4.1 C 0 km/h
297 25-12-2009 11:23:02 4.5 C 4.73 g/m*3 4.5 C 0 km/h
298 25-12-2009 11:35:02 4.7 C 4.73 g/m*3 4.7 C 0 km/h
299 25-12-2009 11:47:02 5 C 4.69 g/m*3 5 C 0 km/h
300 25-12-2009 11:59:02 5.2 C 4.68 g/m*3 5.2 C 0 km/h
Sensor: Nr:Datum:Temp:Abs-Feuchte:Windchill:Wind:
Aussen-T/F 301 25-12-2009 12:11:03 5.2 C 4.75 g/m*3 5.2 C 0 km/h
302 25-12-2009 12:23:02 5.3 C 4.78 g/m*3 5.3 C 0 km/h
303 25-12-2009 12:35:03 5.5 C 4.78 g/m*3 5.5 C 0 km/h
304 25-12-2009 12:47:02 5.7 C 4.84 g/m*3 5.7 C 0 km/h
305 25-12-2009 12:59:02 5.9 C 4.83 g/m*3 5.9 C 0 km/h
306 25-12-2009 13:11:02 6 C 4.72 g/m*3 6 C 0 km/h
307 25-12-2009 13:23:01 6 C 4.65 g/m*3 6 C 0 km/h
308 25-12-2009 13:35:02 6.2 C 4.71 g/m*3 6.2 C 0 km/h
309 25-12-2009 13:47:02 6.3 C 4.66 g/m*3 6.3 C 0 km/h
310 25-12-2009 13:59:02 6.2 C 4.56 g/m*3 6.2 C 0 km/h
311 25-12-2009 14:11:02 6.2 C 4.56 g/m*3 6.2 C 0 km/h
312 25-12-2009 14:23:02 6 C 4.5 g/m*3 6 C 0 km/h
313 25-12-2009 14:35:02 5.9 C 4.61 g/m*3 5.9 C 0 km/h
314 25-12-2009 14:47:02 5.8 C 4.58 g/m*3 5.8 C 0 km/h
315 25-12-2009 14:59:03 5.8 C 4.66 g/m*3 5.8 C 0 km/h
316 25-12-2009 15:11:01 5.7 C 4.7 g/m*3 5.7 C 0 km/h
317 25-12-2009 15:23:02 5.7 C 4.77 g/m*3 5.7 C 0 km/h
318 25-12-2009 15:35:02 5.6 C 4.88 g/m*3 5.6 C 0 km/h
319 25-12-2009 15:47:02 5.4 C 4.95 g/m*3 5.4 C 0 km/h
320 25-12-2009 15:59:02 5.4 C 4.95 g/m*3 5.4 C 0 km/h
321 25-12-2009 16:11:02 5.4 C 4.88 g/m*3 5.4 C 0 km/h
322 25-12-2009 16:23:02 5.1 C 4.92 g/m*3 5.1 C 0 km/h
323 25-12-2009 16:35:03 5 C 4.89 g/m*3 5 C 0 km/h
324 25-12-2009 16:47:02 5 C 4.89 g/m*3 5 C 0 km/h
325 25-12-2009 16:59:02 4.8 C 4.9 g/m*3 4.8 C 0 km/h
Sensor: Nr:Datum:Temp:Abs-Feuchte:Windchill:Wind:
Aussen-T/F 326 25-12-2009 17:11:02 4.7 C 4.93 g/m*3 4.7 C 0 km/h
327 25-12-2009 17:23:01 4.9 C 4.93 g/m*3 4.9 C 0 km/h
328 25-12-2009 17:35:02 5 C 4.76 g/m*3 5 C 0 km/h
329 25-12-2009 17:47:02 5 C 4.69 g/m*3 5 C 0 km/h
330 25-12-2009 17:59:02 4.7 C 4.66 g/m*3 4.7 C 0 km/h
331 25-12-2009 18:11:02 4.6 C 4.63 g/m*3 4.6 C 0 km/h
332 25-12-2009 18:23:02 4.7 C 4.66 g/m*3 4.7 C 0 km/h
333 25-12-2009 18:35:02 4.7 C 4.6 g/m*3 4.7 C 0 km/h
334 25-12-2009 18:47:02 4.7 C 4.6 g/m*3 4.7 C 0 km/h
335 25-12-2009 18:59:02 4.7 C 4.53 g/m*3 4.7 C 0 km/h
336 25-12-2009 19:11:02 4.7 C 4.46 g/m*3 4.7 C 0 km/h
337 25-12-2009 19:23:02 4.5 C 4.47 g/m*3 4.5 C 0 km/h
338 25-12-2009 19:35:02 4.2 C 4.45 g/m*3 4.2 C 0 km/h
339 25-12-2009 19:47:02 4.2 C 4.38 g/m*3 4.2 C 0 km/h
340 25-12-2009 19:59:02 4.3 C 4.28 g/m*3 4.3 C 0 km/h
341 25-12-2009 20:11:02 4.6 C 4.04 g/m*3 4.6 C 0 km/h
342 25-12-2009 20:23:02 4.5 C 3.88 g/m*3 4.5 C 0 km/h
343 25-12-2009 20:35:02 4.5 C 3.88 g/m*3 4.5 C 0 km/h
344 25-12-2009 20:47:01 4.3 C 3.89 g/m*3 4.3 C 0 km/h
345 25-12-2009 20:59:01 4.1 C 4.03 g/m*3 4.1 C 0 km/h
346 25-12-2009 21:11:01 3.8 C 4.27 g/m*3 3.8 C 0 km/h
347 25-12-2009 21:23:02 3.6 C 4.39 g/m*3 3.6 C 0 km/h
348 25-12-2009 21:35:01 3.5 C 4.43 g/m*3 3.5 C 0 km/h
349 25-12-2009 21:47:03 3.4 C 4.46 g/m*3 3.4 C 0 km/h
350 25-12-2009 21:59:03 3.7 C 4.55 g/m*3 3.7 C 0 km/h
Sensor: Nr:Datum:Temp:Abs-Feuchte:Windchill:Wind:
Aussen-T/F 351 25-12-2009 22:11:03 3.9 C 4.48 g/m*3 3.9 C 0 km/h
352 25-12-2009 22:23:02 4 C 4.32 g/m*3 4 C 0 km/h
353 25-12-2009 22:35:03 3.8 C 4.33 g/m*3 3.8 C 0 km/h
354 25-12-2009 22:48:03 3.8 C 4.33 g/m*3 3.8 C 0 km/h
355 25-12-2009 23:00:03 3.8 C 4.27 g/m*3 3.8 C 0 km/h
356 25-12-2009 23:12:04 3.7 C 4.24 g/m*3 3.7 C 0 km/h
357 25-12-2009 23:24:04 3.8 C 4.27 g/m*3 3.8 C 0 km/h
358 25-12-2009 23:36:04 3.8 C 4.27 g/m*3 3.8 C 0 km/h
359 25-12-2009 23:48:04 3.8 C 4.27 g/m*3 3.8 C 0 km/h
360 26-12-2009 00:00:04 3.8 C 4.27 g/m*3 3.8 C 0 km/h
361 26-12-2009 00:12:04 3.8 C 4.14 g/m*3 3.8 C 0 km/h
362 26-12-2009 00:24:04 3.5 C 4 g/m*3 3.5 C 0 km/h
363 26-12-2009 00:36:04 3.4 C 3.97 g/m*3 3.4 C 0 km/h
364 26-12-2009 00:48:04 3 C 3.92 g/m*3 3 C 0 km/h
365 26-12-2009 01:00:04 2.6 C 4.05 g/m*3 2.6 C 0 km/h
366 26-12-2009 01:12:04 2.5 C 4.08 g/m*3 2.5 C 0 km/h
367 26-12-2009 01:24:04 2.5 C 4.08 g/m*3 2.5 C 0 km/h
368 26-12-2009 01:36:04 2.8 C 4.11 g/m*3 2.8 C 0 km/h
369 26-12-2009 01:48:04 2.7 C 4.08 g/m*3 2.7 C 0 km/h
370 26-12-2009 02:00:04 2.7 C 4.14 g/m*3 2.7 C 0 km/h
371 26-12-2009 02:12:04 2.6 C 4.17 g/m*3 2.6 C 0 km/h
372 26-12-2009 02:24:04 2.8 C 4.34 g/m*3 2.8 C 0 km/h
373 26-12-2009 02:36:04 2.8 C 4.34 g/m*3 2.8 C 0 km/h
374 26-12-2009 02:48:04 2.7 C 4.31 g/m*3 2.7 C 0 km/h
375 26-12-2009 03:00:04 2.7 C 4.37 g/m*3 2.7 C 0 km/h
Sensor: Nr:Datum:Temp:Abs-Feuchte:Windchill:Wind:
Aussen-T/F 376 26-12-2009 03:12:05 2.6 C 4.4 g/m*3 2.6 C 0 km/h
377 26-12-2009 03:24:05 2.5 C 4.43 g/m*3 2.5 C 0 km/h
378 26-12-2009 03:36:05 2.4 C 4.45 g/m*3 2.4 C 0 km/h
379 26-12-2009 03:48:05 2.6 C 4.51 g/m*3 2.6 C 0 km/h
380 26-12-2009 04:00:05 2.7 C 4.54 g/m*3 2.7 C 0 km/h
381 26-12-2009 04:12:05 2.7 C 4.49 g/m*3 2.7 C 0 km/h
382 26-12-2009 04:24:05 2.5 C 4.48 g/m*3 2.5 C 0 km/h
383 26-12-2009 04:36:05 2.5 C 4.48 g/m*3 2.5 C 0 km/h
384 26-12-2009 04:48:05 2.7 C 4.6 g/m*3 2.7 C 0 km/h
385 26-12-2009 05:00:05 2.7 C 4.6 g/m*3 2.7 C 0 km/h
386 26-12-2009 05:12:05 2.8 C 4.58 g/m*3 2.8 C 0 km/h
387 26-12-2009 05:24:05 2.8 C 4.52 g/m*3 2.8 C 0 km/h
388 26-12-2009 05:36:05 2.5 C 4.43 g/m*3 2.5 C 0 km/h
389 26-12-2009 05:48:05 2.7 C 4.54 g/m*3 2.7 C 0 km/h
390 26-12-2009 06:00:05 2.7 C 4.54 g/m*3 2.7 C 0 km/h
391 26-12-2009 06:12:05 2.8 C 4.52 g/m*3 2.8 C 0 km/h
392 26-12-2009 06:24:05 2.8 C 4.52 g/m*3 2.8 C 0 km/h
393 26-12-2009 06:36:05 2.9 C 4.55 g/m*3 2.9 C 0 km/h
394 26-12-2009 06:48:05 2.8 C 4.52 g/m*3 2.8 C 0 km/h
395 26-12-2009 07:00:05 2.7 C 4.54 g/m*3 2.7 C 0 km/h
396 26-12-2009 07:12:05 2.6 C 4.57 g/m*3 2.6 C 0 km/h
397 26-12-2009 07:24:05 2.6 C 4.57 g/m*3 2.6 C 0 km/h
398 26-12-2009 07:36:05 2.5 C 4.6 g/m*3 2.5 C 0 km/h
399 26-12-2009 07:48:06 2.2 C 4.51 g/m*3 2.2 C 0 km/h
400 26-12-2009 08:00:06 2 C 4.5 g/m*3 2 C 0 km/h
Sensor: Nr:Datum:Temp:Abs-Feuchte:Windchill:Wind:
Aussen-T/F 401 26-12-2009 08:12:06 1.7 C 4.46 g/m*3 1.7 C 0 km/h
402 26-12-2009 08:24:06 1.9 C 4.58 g/m*3 1.9 C 0 km/h
403 26-12-2009 08:36:06 1.7 C 4.52 g/m*3 1.7 C 0 km/h
404 26-12-2009 08:48:06 1.6 C 4.54 g/m*3 1.6 C 0 km/h
405 26-12-2009 09:00:06 1.7 C 4.57 g/m*3 1.7 C 0 km/h
406 26-12-2009 09:12:06 1.8 C 4.6 g/m*3 1.8 C 0 km/h
407 26-12-2009 09:24:06 2.1 C 4.59 g/m*3 2.1 C 0 km/h
408 26-12-2009 09:36:03 2.3 C 4.59 g/m*3 2.3 C 0 km/h
409 26-12-2009 09:48:02 2.7 C 4.6 g/m*3 2.7 C 0 km/h
410 26-12-2009 10:00:02 3 C 4.58 g/m*3 3 C 0 km/h
411 26-12-2009 10:12:01 3.2 C 4.52 g/m*3 3.2 C 0 km/h
412 26-12-2009 10:24:02 3.3 C 4.55 g/m*3 3.3 C 0 km/h
413 26-12-2009 10:36:02 3.4 C 4.58 g/m*3 3.4 C 0 km/h
414 26-12-2009 10:48:02 3.5 C 4.61 g/m*3 3.5 C 0 km/h
415 26-12-2009 11:00:02 3.8 C 4.71 g/m*3 3.8 C 0 km/h
416 26-12-2009 11:12:02 3.9 C 4.74 g/m*3 3.9 C 0 km/h
417 26-12-2009 11:24:02 3.6 C 4.64 g/m*3 3.6 C 0 km/h
418 26-12-2009 11:36:02 3.7 C 4.74 g/m*3 3.7 C 0 km/h
419 26-12-2009 11:48:02 4 C 4.83 g/m*3 4 C 0 km/h
420 26-12-2009 12:00:02 4.1 C 4.8 g/m*3 4.1 C 0 km/h
421 26-12-2009 12:12:02 4.1 C 4.74 g/m*3 4.1 C 0 km/h
422 26-12-2009 12:24:01 3.8 C 4.71 g/m*3 3.8 C 0 km/h
423 26-12-2009 12:36:02 3.7 C 4.67 g/m*3 3.7 C 0 km/h
424 26-12-2009 12:48:02 3.6 C 4.64 g/m*3 3.6 C 0 km/h
425 26-12-2009 13:00:02 3.6 C 4.7 g/m*3 3.6 C 0 km/h
Sensor: Nr:Datum:Temp:Abs-Feuchte:Windchill:Wind:
Aussen-T/F 426 26-12-2009 13:12:02 3.9 C 4.74 g/m*3 3.9 C 0 km/h
427 26-12-2009 13:24:01 3.9 C 4.74 g/m*3 3.9 C 0 km/h
428 26-12-2009 13:36:02 4 C 4.7 g/m*3 4 C 0 km/h
429 26-12-2009 13:48:02 4.1 C 4.67 g/m*3 4.1 C 0 km/h
430 26-12-2009 14:00:02 4 C 4.64 g/m*3 4 C 0 km/h
431 26-12-2009 14:12:02 3.9 C 4.74 g/m*3 3.9 C 0 km/h
432 26-12-2009 14:24:01 4.1 C 4.74 g/m*3 4.1 C 0 km/h
433 26-12-2009 14:36:02 4.2 C 4.7 g/m*3 4.2 C 0 km/h
434 26-12-2009 14:48:02 4.1 C 4.67 g/m*3 4.1 C 0 km/h
435 26-12-2009 15:00:02 3.7 C 4.67 g/m*3 3.7 C 0 km/h
436 26-12-2009 15:12:02 3.5 C 4.67 g/m*3 3.5 C 0 km/h
437 26-12-2009 15:24:02 3.3 C 4.67 g/m*3 3.3 C 0 km/h
438 26-12-2009 15:36:02 3.1 C 4.67 g/m*3 3.1 C 0 km/h
439 26-12-2009 15:48:01 3 C 4.7 g/m*3 3 C 0 km/h
440 26-12-2009 16:00:01 2.8 C 4.75 g/m*3 2.8 C 0 km/h
441 26-12-2009 16:12:02 2.7 C 4.72 g/m*3 2.7 C 0 km/h
442 26-12-2009 16:24:02 2.7 C 4.72 g/m*3 2.7 C 0 km/h
443 26-12-2009 16:36:02 2.5 C 4.66 g/m*3 2.5 C 0 km/h
444 26-12-2009 16:48:02 2.2 C 4.56 g/m*3 2.2 C 0 km/h
445 26-12-2009 17:00:02 1.6 C 4.43 g/m*3 1.6 C 0 km/h
446 26-12-2009 17:12:02 1.4 C 4.48 g/m*3 1.4 C 0 km/h
447 26-12-2009 17:24:02 1.4 C 4.53 g/m*3 1.4 C 0 km/h
448 26-12-2009 17:36:01 1.7 C 4.68 g/m*3 1.7 C 0 km/h
449 26-12-2009 17:48:02 1.6 C 4.54 g/m*3 1.6 C 0 km/h
450 26-12-2009 18:00:02 1 C 4.36 g/m*3 1 C 0 km/h
Sensor: Nr:Datum:Temp:Abs-Feuchte:Windchill:Wind:
Aussen-T/F 451 26-12-2009 18:12:02 0.6 C 4.29 g/m*3 0.6 C 0 km/h
452 26-12-2009 18:24:02 0.5 C 4.26 g/m*3 0.5 C 0 km/h
453 26-12-2009 18:36:02 0.3 C 4.25 g/m*3 0.3 C 0 km/h
454 26-12-2009 18:48:02 0.3 C 4.3 g/m*3 0.3 C 0 km/h
455 26-12-2009 19:00:02 0.1 C 4.24 g/m*3 0.1 C 0 km/h
456 26-12-2009 19:12:02 0.1 C 4.29 g/m*3 0.1 C 0 km/h
457 26-12-2009 19:24:02 0.1 C 4.29 g/m*3 0.1 C 0 km/h
458 26-12-2009 19:36:02 -0.1 C 4.23 g/m*3 -0.1 C 0 km/h
459 26-12-2009 19:48:02 -0.3 C 4.22 g/m*3 -0.3 C 0 km/h
460 26-12-2009 20:00:02 -0.5 C 4.17 g/m*3 -0.5 C 0 km/h
461 26-12-2009 20:12:02 -0.7 C 4.11 g/m*3 -0.7 C 0 km/h
462 26-12-2009 20:24:02 -0.5 C 4.17 g/m*3 -0.5 C 0 km/h
463 26-12-2009 20:36:02 -0.4 C 4.24 g/m*3 -0.4 C 0 km/h
464 26-12-2009 20:48:01 -0.7 C 4.15 g/m*3 -0.7 C 0 km/h
465 26-12-2009 21:00:01 -0.8 C 4.17 g/m*3 -0.8 C 0 km/h
466 26-12-2009 21:12:02 -0.8 C 4.17 g/m*3 -0.8 C 0 km/h
467 26-12-2009 21:24:01 -0.8 C 4.17 g/m*3 -0.8 C 0 km/h
468 26-12-2009 21:36:01 -0.8 C 4.17 g/m*3 -0.8 C 0 km/h
469 26-12-2009 21:48:01 -0.8 C 4.17 g/m*3 -0.8 C 0 km/h
470 26-12-2009 22:00:01 -0.9 C 4.14 g/m*3 -0.9 C 0 km/h
471 26-12-2009 22:12:01 -0.9 C 4.19 g/m*3 -0.9 C 0 km/h
472 26-12-2009 22:24:01 -1 C 4.16 g/m*3 -1 C 0 km/h
473 26-12-2009 22:36:02 -1.1 C 4.09 g/m*3 -1.1 C 0 km/h
474 26-12-2009 22:49:03 -1.2 C 4.06 g/m*3 -1.2 C 0 km/h
475 26-12-2009 23:01:03 -1.1 C 4.13 g/m*3 -1.1 C 0 km/h
Sensor: Nr:Datum:Temp:Abs-Feuchte:Windchill:Wind:
Aussen-T/F 476 26-12-2009 23:13:03 -1.3 C 4.07 g/m*3 -1.3 C 0 km/h
477 26-12-2009 23:25:03 -1.2 C 4.1 g/m*3 -1.2 C 0 km/h
478 26-12-2009 23:37:03 -1.4 C 4.04 g/m*3 -1.4 C 0 km/h
479 26-12-2009 23:49:03 -1.6 C 3.99 g/m*3 -1.6 C 0 km/h
480 27-12-2009 00:01:03 -1.6 C 3.99 g/m*3 -1.6 C 0 km/h
481 27-12-2009 00:13:03 -1.8 C 3.93 g/m*3 -1.8 C 0 km/h
482 27-12-2009 00:25:03 -1.8 C 3.93 g/m*3 -1.8 C 0 km/h
483 27-12-2009 00:37:03 -1.8 C 3.93 g/m*3 -1.8 C 0 km/h
484 27-12-2009 00:49:03 -1.9 C 3.91 g/m*3 -1.9 C 0 km/h
485 27-12-2009 01:01:03 -1.8 C 3.93 g/m*3 -1.8 C 0 km/h
486 27-12-2009 01:13:03 -1.9 C 3.91 g/m*3 -1.9 C 0 km/h
487 27-12-2009 01:25:03 -2 C 3.88 g/m*3 -2 C 0 km/h
488 27-12-2009 01:37:03 -2.3 C 3.8 g/m*3 -2.3 C 0 km/h
489 27-12-2009 01:49:04 -2.3 C 3.8 g/m*3 -2.3 C 0 km/h
490 27-12-2009 02:01:04 -2.3 C 3.8 g/m*3 -2.3 C 0 km/h
491 27-12-2009 02:13:04 -2.2 C 3.87 g/m*3 -2.2 C 0 km/h
492 27-12-2009 02:25:04 -2.1 C 3.89 g/m*3 -2.1 C 0 km/h
493 27-12-2009 02:37:04 -2 C 3.92 g/m*3 -2 C 0 km/h
494 27-12-2009 02:49:04 -1.9 C 3.95 g/m*3 -1.9 C 0 km/h
495 27-12-2009 03:01:04 -2.1 C 3.89 g/m*3 -2.1 C 0 km/h
496 27-12-2009 03:13:04 -2.2 C 3.87 g/m*3 -2.2 C 0 km/h
497 27-12-2009 03:25:04 -2.1 C 3.89 g/m*3 -2.1 C 0 km/h
498 27-12-2009 03:37:04 -2.3 C 3.84 g/m*3 -2.3 C 0 km/h
499 27-12-2009 03:49:04 -2.5 C 3.78 g/m*3 -2.5 C 0 km/h
500 27-12-2009 04:01:04 -2.6 C 3.76 g/m*3 -2.6 C 0 km/h
Sensor: Nr:Datum:Temp:Abs-Feuchte:Windchill:Wind:
Aussen-T/F 501 27-12-2009 04:13:04 -2.7 C 3.73 g/m*3 -2.7 C 0 km/h
502 27-12-2009 04:25:04 -2.7 C 3.73 g/m*3 -2.7 C 0 km/h
503 27-12-2009 04:37:04 -2.8 C 3.71 g/m*3 -2.8 C 0 km/h
504 27-12-2009 04:49:04 -2.8 C 3.71 g/m*3 -2.8 C 0 km/h
505 27-12-2009 05:01:04 -2.7 C 3.73 g/m*3 -2.7 C 0 km/h
506 27-12-2009 05:13:04 -2.6 C 3.8 g/m*3 -2.6 C 0 km/h
507 27-12-2009 05:25:04 -2.8 C 3.75 g/m*3 -2.8 C 0 km/h
508 27-12-2009 05:37:04 -2.9 C 3.72 g/m*3 -2.9 C 0 km/h
509 27-12-2009 05:49:04 -2.8 C 3.75 g/m*3 -2.8 C 0 km/h
510 27-12-2009 06:01:04 -2.8 C 3.75 g/m*3 -2.8 C 0 km/h
511 27-12-2009 06:13:04 -2.9 C 3.72 g/m*3 -2.9 C 0 km/h
512 27-12-2009 06:25:05 -2.9 C 3.72 g/m*3 -2.9 C 0 km/h
513 27-12-2009 06:37:05 -3 C 3.69 g/m*3 -3 C 0 km/h
514 27-12-2009 06:49:05 -3.1 C 3.67 g/m*3 -3.1 C 0 km/h
515 27-12-2009 07:01:05 -3.1 C 3.67 g/m*3 -3.1 C 0 km/h
516 27-12-2009 07:13:05 -3.2 C 3.64 g/m*3 -3.2 C 0 km/h
517 27-12-2009 07:25:05 -3.1 C 3.67 g/m*3 -3.1 C 0 km/h
518 27-12-2009 07:37:05 -3.2 C 3.64 g/m*3 -3.2 C 0 km/h
519 27-12-2009 07:49:05 -3.2 C 3.64 g/m*3 -3.2 C 0 km/h
520 27-12-2009 08:01:05 -3.2 C 3.64 g/m*3 -3.2 C 0 km/h
521 27-12-2009 08:13:05 -2.9 C 3.72 g/m*3 -2.9 C 0 km/h
522 27-12-2009 08:25:05 -2.7 C 3.77 g/m*3 -2.7 C 0 km/h
523 27-12-2009 08:37:05 -2.5 C 3.83 g/m*3 -2.5 C 0 km/h
524 27-12-2009 08:49:05 -2.4 C 3.89 g/m*3 -2.4 C 0 km/h
525 27-12-2009 09:01:02 -2.3 C 3.92 g/m*3 -2.3 C 0 km/h
Sensor: Nr:Datum:Temp:Abs-Feuchte:Windchill:Wind:
Aussen-T/F 526 27-12-2009 09:13:02 -2.2 C 3.95 g/m*3 -2.2 C 0 km/h
527 27-12-2009 09:25:02 -1.4 C 4.18 g/m*3 -1.4 C 0 km/h
528 27-12-2009 09:37:02 -1.1 C 4.26 g/m*3 -1.1 C 0 km/h
529 27-12-2009 09:49:01 -0.6 C 4.42 g/m*3 -0.6 C 0 km/h
530 27-12-2009 10:01:01 -0.4 C 4.48 g/m*3 -0.4 C 0 km/h
531 27-12-2009 10:13:01 -0.1 C 4.57 g/m*3 -0.1 C 0 km/h
532 27-12-2009 10:25:01 0.2 C 4.67 g/m*3 0.2 C 0 km/h
533 27-12-2009 10:37:01 0.5 C 4.71 g/m*3 0.5 C 0 km/h
534 27-12-2009 10:49:02 0.7 C 4.78 g/m*3 0.7 C 0 km/h
535 27-12-2009 11:01:02 0.7 C 4.78 g/m*3 0.7 C 0 km/h
536 27-12-2009 11:13:02 0.8 C 4.76 g/m*3 0.8 C 0 km/h
537 27-12-2009 11:25:02 1.2 C 4.84 g/m*3 1.2 C 0 km/h
538 27-12-2009 11:37:02 1.4 C 4.91 g/m*3 1.4 C 0 km/h
539 27-12-2009 11:49:02 1.7 C 4.85 g/m*3 1.7 C 0 km/h
540 27-12-2009 12:01:02 1.6 C 4.65 g/m*3 1.6 C 0 km/h
541 27-12-2009 12:13:02 1.8 C 4.49 g/m*3 1.8 C 0 km/h
542 27-12-2009 12:25:02 2 C 4.5 g/m*3 2 C 0 km/h
543 27-12-2009 12:37:02 2.1 C 4.48 g/m*3 2.1 C 0 km/h
544 27-12-2009 12:49:02 2.1 C 4.48 g/m*3 2.1 C 0 km/h
545 27-12-2009 13:01:02 2.1 C 4.48 g/m*3 2.1 C 0 km/h
546 27-12-2009 13:13:02 2.1 C 4.53 g/m*3 2.1 C 0 km/h
547 27-12-2009 13:25:02 2.4 C 4.68 g/m*3 2.4 C 0 km/h
548 27-12-2009 13:37:02 2.4 C 4.68 g/m*3 2.4 C 0 km/h
549 27-12-2009 13:49:01 2.6 C 4.69 g/m*3 2.6 C 0 km/h
550 27-12-2009 14:01:01 2.7 C 4.72 g/m*3 2.7 C 0 km/h
Sensor: Nr:Datum:Temp:Abs-Feuchte:Windchill:Wind:
Aussen-T/F 551 27-12-2009 14:13:02 2.7 C 4.72 g/m*3 2.7 C 0 km/h
552 27-12-2009 14:25:01 2.7 C 4.66 g/m*3 2.7 C 0 km/h
553 27-12-2009 14:37:01 2.7 C 4.66 g/m*3 2.7 C 0 km/h
554 27-12-2009 14:49:01 2.6 C 4.57 g/m*3 2.6 C 0 km/h
555 27-12-2009 15:01:01 2.6 C 4.63 g/m*3 2.6 C 0 km/h
556 27-12-2009 15:13:01 2.6 C 4.63 g/m*3 2.6 C 0 km/h
557 27-12-2009 15:25:02 2.6 C 4.69 g/m*3 2.6 C 0 km/h
558 27-12-2009 15:37:01 2.5 C 4.66 g/m*3 2.5 C 0 km/h
559 27-12-2009 15:49:02 2.4 C 4.68 g/m*3 2.4 C 0 km/h
560 27-12-2009 16:01:02 2.4 C 4.74 g/m*3 2.4 C 0 km/h
561 27-12-2009 16:13:02 2.4 C 4.74 g/m*3 2.4 C 0 km/h
562 27-12-2009 16:25:03 2.3 C 4.76 g/m*3 2.3 C 0 km/h
563 27-12-2009 16:37:02 2.4 C 4.8 g/m*3 2.4 C 0 km/h
564 27-12-2009 16:49:02 2.6 C 4.86 g/m*3 2.6 C 0 km/h
565 27-12-2009 17:01:02 3.2 C 4.82 g/m*3 3.2 C 0 km/h
566 27-12-2009 17:13:02 3.3 C 4.73 g/m*3 3.3 C 0 km/h
567 27-12-2009 17:25:02 3.2 C 4.64 g/m*3 3.2 C 0 km/h
568 27-12-2009 17:37:02 3.2 C 4.7 g/m*3 3.2 C 0 km/h
569 27-12-2009 17:49:02 3.2 C 4.7 g/m*3 3.2 C 0 km/h
570 27-12-2009 18:01:01 3.1 C 4.67 g/m*3 3.1 C 0 km/h
571 27-12-2009 18:13:01 3.1 C 4.73 g/m*3 3.1 C 0 km/h
572 27-12-2009 18:25:02 3.4 C 4.83 g/m*3 3.4 C 0 km/h
573 27-12-2009 18:37:02 3.5 C 4.8 g/m*3 3.5 C 0 km/h
574 27-12-2009 18:49:02 3.4 C 4.83 g/m*3 3.4 C 0 km/h
575 27-12-2009 19:01:03 3.4 C 4.89 g/m*3 3.4 C 0 km/h
Sensor: Nr:Datum:Temp:Abs-Feuchte:Windchill:Wind:
Aussen-T/F 576 27-12-2009 19:13:03 3.4 C 4.95 g/m*3 3.4 C 0 km/h
577 27-12-2009 19:25:02 3.4 C 4.95 g/m*3 3.4 C 0 km/h
578 27-12-2009 19:37:02 3.3 C 4.97 g/m*3 3.3 C 0 km/h
579 27-12-2009 19:49:01 3.4 C 5.01 g/m*3 3.4 C 0 km/h
580 27-12-2009 20:01:02 3.6 C 5.01 g/m*3 3.6 C 0 km/h
581 27-12-2009 20:13:02 3.8 C 5.02 g/m*3 3.8 C 0 km/h
582 27-12-2009 20:25:01 3.9 C 4.99 g/m*3 3.9 C 0 km/h
583 27-12-2009 20:37:02 4 C 4.9 g/m*3 4 C 0 km/h
584 27-12-2009 20:49:02 4.1 C 4.86 g/m*3 4.1 C 0 km/h
585 27-12-2009 21:01:02 4 C 4.83 g/m*3 4 C 0 km/h
586 27-12-2009 21:13:02 3.8 C 4.89 g/m*3 3.8 C 0 km/h
587 27-12-2009 21:25:01 3.6 C 4.89 g/m*3 3.6 C 0 km/h
588 27-12-2009 21:37:02 3.2 C 4.94 g/m*3 3.2 C 0 km/h
589 27-12-2009 21:49:02 3 C 4.93 g/m*3 3 C 0 km/h
590 27-12-2009 22:01:02 3 C 4.93 g/m*3 3 C 0 km/h
591 27-12-2009 22:13:02 3.2 C 5 g/m*3 3.2 C 0 km/h
592 27-12-2009 22:25:02 3.4 C 5.01 g/m*3 3.4 C 0 km/h
593 27-12-2009 22:37:02 3.5 C 4.98 g/m*3 3.5 C 0 km/h
594 27-12-2009 22:50:03 3.6 C 5.01 g/m*3 3.6 C 0 km/h
595 27-12-2009 23:02:03 3.2 C 4.94 g/m*3 3.2 C 0 km/h
596 27-12-2009 23:14:03 3.2 C 4.94 g/m*3 3.2 C 0 km/h
597 27-12-2009 23:26:03 3.5 C 5.04 g/m*3 3.5 C 0 km/h
598 27-12-2009 23:38:03 3.4 C 5.07 g/m*3 3.4 C 0 km/h
599 27-12-2009 23:50:03 3.2 C 5.12 g/m*3 3.2 C 0 km/h
600 28-12-2009 00:02:03 3.1 C 5.21 g/m*3 3.1 C 0 km/h
Sensor: Nr:Datum:Temp:Abs-Feuchte:Windchill:Wind:
Aussen-T/F 601 28-12-2009 00:14:03 3 C 5.17 g/m*3 3 C 0 km/h
602 28-12-2009 00:26:03 3.1 C 5.21 g/m*3 3.1 C 0 km/h
603 28-12-2009 00:38:03 3.4 C 5.25 g/m*3 3.4 C 0 km/h
604 28-12-2009 00:50:03 3.5 C 5.16 g/m*3 3.5 C 0 km/h
605 28-12-2009 01:02:03 3.7 C 5.17 g/m*3 3.7 C 0 km/h
606 28-12-2009 01:14:03 3.8 C 5.14 g/m*3 3.8 C 0 km/h
607 28-12-2009 01:26:03 3.8 C 5.08 g/m*3 3.8 C 0 km/h
608 28-12-2009 01:38:03 3.8 C 5.08 g/m*3 3.8 C 0 km/h
609 28-12-2009 01:50:03 3.7 C 5.11 g/m*3 3.7 C 0 km/h
610 28-12-2009 02:02:03 3.7 C 5.05 g/m*3 3.7 C 0 km/h
611 28-12-2009 02:14:03 3.9 C 4.99 g/m*3 3.9 C 0 km/h
612 28-12-2009 02:26:04 3.9 C 4.93 g/m*3 3.9 C 0 km/h
613 28-12-2009 02:38:04 4 C 4.83 g/m*3 4 C 0 km/h
614 28-12-2009 02:50:04 4 C 4.77 g/m*3 4 C 0 km/h
615 28-12-2009 03:02:04 4 C 4.7 g/m*3 4 C 0 km/h
616 28-12-2009 03:14:04 3.9 C 4.74 g/m*3 3.9 C 0 km/h
617 28-12-2009 03:26:04 3.8 C 4.77 g/m*3 3.8 C 0 km/h
618 28-12-2009 03:38:04 3.7 C 4.74 g/m*3 3.7 C 0 km/h
619 28-12-2009 03:50:04 3.6 C 4.7 g/m*3 3.6 C 0 km/h
620 28-12-2009 04:02:04 3.5 C 4.73 g/m*3 3.5 C 0 km/h
621 28-12-2009 04:14:04 3.6 C 4.77 g/m*3 3.6 C 0 km/h
622 28-12-2009 04:26:04 3.6 C 4.77 g/m*3 3.6 C 0 km/h
623 28-12-2009 04:38:04 3.6 C 4.7 g/m*3 3.6 C 0 km/h
624 28-12-2009 04:50:04 3.7 C 4.61 g/m*3 3.7 C 0 km/h
625 28-12-2009 05:02:04 3.7 C 4.61 g/m*3 3.7 C 0 km/h
Sensor: Nr:Datum:Temp:Abs-Feuchte:Windchill:Wind:
Aussen-T/F 626 28-12-2009 05:14:04 3.6 C 4.64 g/m*3 3.6 C 0 km/h
627 28-12-2009 05:26:04 3.5 C 4.67 g/m*3 3.5 C 0 km/h
628 28-12-2009 05:38:04 3.5 C 4.73 g/m*3 3.5 C 0 km/h
629 28-12-2009 05:50:04 3.3 C 4.67 g/m*3 3.3 C 0 km/h
630 28-12-2009 06:02:04 3.1 C 4.79 g/m*3 3.1 C 0 km/h
631 28-12-2009 06:14:04 3.1 C 4.91 g/m*3 3.1 C 0 km/h
632 28-12-2009 06:26:04 3.1 C 4.91 g/m*3 3.1 C 0 km/h
633 28-12-2009 06:38:04 3.1 C 4.91 g/m*3 3.1 C 0 km/h
634 28-12-2009 06:50:04 3.1 C 4.91 g/m*3 3.1 C 0 km/h
635 28-12-2009 07:02:05 3.2 C 4.88 g/m*3 3.2 C 0 km/h
636 28-12-2009 07:14:05 3.2 C 4.88 g/m*3 3.2 C 0 km/h
637 28-12-2009 07:26:05 3.2 C 4.82 g/m*3 3.2 C 0 km/h
638 28-12-2009 07:38:05 3.2 C 4.76 g/m*3 3.2 C 0 km/h
639 28-12-2009 07:50:05 3.3 C 4.79 g/m*3 3.3 C 0 km/h
640 28-12-2009 08:02:05 3.3 C 4.79 g/m*3 3.3 C 0 km/h
641 28-12-2009 08:14:05 3.3 C 4.79 g/m*3 3.3 C 0 km/h
642 28-12-2009 08:26:05 3.5 C 4.8 g/m*3 3.5 C 0 km/h
643 28-12-2009 08:38:05 3.5 C 4.73 g/m*3 3.5 C 0 km/h
644 28-12-2009 08:50:05 3.5 C 4.67 g/m*3 3.5 C 0 km/h
645 28-12-2009 09:02:02 3.5 C 4.67 g/m*3 3.5 C 0 km/h
646 28-12-2009 09:14:02 3.5 C 4.61 g/m*3 3.5 C 0 km/h
647 28-12-2009 09:26:03 3.7 C 4.49 g/m*3 3.7 C 0 km/h
648 28-12-2009 09:38:02 3.7 C 4.49 g/m*3 3.7 C 0 km/h
649 28-12-2009 09:50:02 3.8 C 4.52 g/m*3 3.8 C 0 km/h
650 28-12-2009 10:02:02 3.8 C 4.45 g/m*3 3.8 C 0 km/h
Sensor: Nr:Datum:Temp:Abs-Feuchte:Windchill:Wind:
Aussen-T/F 651 28-12-2009 10:14:02 3.9 C 4.42 g/m*3 3.9 C 0 km/h
652 28-12-2009 10:26:02 3.9 C 4.42 g/m*3 3.9 C 0 km/h
653 28-12-2009 10:38:02 4 C 4.26 g/m*3 4 C 0 km/h
654 28-12-2009 10:50:02 3.8 C 4.27 g/m*3 3.8 C 0 km/h
655 28-12-2009 11:02:01 4 C 4.2 g/m*3 4 C 0 km/h
656 28-12-2009 11:14:01 4.1 C 4.22 g/m*3 4.1 C 0 km/h
657 28-12-2009 11:26:02 3.9 C 4.29 g/m*3 3.9 C 0 km/h
658 28-12-2009 11:38:02 3.7 C 4.36 g/m*3 3.7 C 0 km/h
659 28-12-2009 11:50:02 3.7 C 4.36 g/m*3 3.7 C 0 km/h
660 28-12-2009 12:02:03 4.3 C 4.48 g/m*3 4.3 C 0 km/h
661 28-12-2009 12:14:03 4.7 C 4.46 g/m*3 4.7 C 0 km/h
662 28-12-2009 12:26:02 4.9 C 4.32 g/m*3 4.9 C 0 km/h
663 28-12-2009 12:38:02 4.9 C 4.39 g/m*3 4.9 C 0 km/h
664 28-12-2009 12:50:02 4.9 C 4.39 g/m*3 4.9 C 0 km/h
665 28-12-2009 13:02:02 5 C 4.28 g/m*3 5 C 0 km/h
666 28-12-2009 13:14:02 5 C 4.28 g/m*3 5 C 0 km/h
667 28-12-2009 13:26:01 5 C 4.28 g/m*3 5 C 0 km/h
668 28-12-2009 13:38:02 5.1 C 4.24 g/m*3 5.1 C 0 km/h
669 28-12-2009 13:50:02 4.9 C 4.32 g/m*3 4.9 C 0 km/h
670 28-12-2009 14:02:02 4.8 C 4.29 g/m*3 4.8 C 0 km/h
671 28-12-2009 14:14:02 4.9 C 4.25 g/m*3 4.9 C 0 km/h
672 28-12-2009 14:26:01 4.7 C 4.13 g/m*3 4.7 C 0 km/h
673 28-12-2009 14:38:02 4.7 C 4.13 g/m*3 4.7 C 0 km/h
674 28-12-2009 14:50:02 4.7 C 4.13 g/m*3 4.7 C 0 km/h
675 28-12-2009 15:02:02 4.6 C 4.17 g/m*3 4.6 C 0 km/h
Sensor: Nr:Datum:Temp:Abs-Feuchte:Windchill:Wind:
Aussen-T/F 676 28-12-2009 15:14:02 4.5 C 4.21 g/m*3 4.5 C 0 km/h
677 28-12-2009 15:26:01 4.5 C 4.27 g/m*3 4.5 C 0 km/h
678 28-12-2009 15:38:02 4.5 C 4.27 g/m*3 4.5 C 0 km/h
679 28-12-2009 15:50:01 4.5 C 4.21 g/m*3 4.5 C 0 km/h
680 28-12-2009 16:02:02 4.4 C 4.11 g/m*3 4.4 C 0 km/h
681 28-12-2009 16:14:02 4.4 C 4.18 g/m*3 4.4 C 0 km/h
682 28-12-2009 16:26:02 4.3 C 4.15 g/m*3 4.3 C 0 km/h
683 28-12-2009 16:38:02 4.2 C 4.19 g/m*3 4.2 C 0 km/h
684 28-12-2009 16:50:02 4 C 4.2 g/m*3 4 C 0 km/h
685 28-12-2009 17:02:01 3.9 C 4.36 g/m*3 3.9 C 0 km/h
686 28-12-2009 17:14:01 3.8 C 4.39 g/m*3 3.8 C 0 km/h
687 28-12-2009 17:26:02 3.7 C 4.36 g/m*3 3.7 C 0 km/h
688 28-12-2009 17:38:01 3.7 C 4.36 g/m*3 3.7 C 0 km/h
689 28-12-2009 17:50:02 3.5 C 4.3 g/m*3 3.5 C 0 km/h
690 28-12-2009 18:02:01 3.4 C 4.34 g/m*3 3.4 C 0 km/h
691 28-12-2009 18:14:01 3.3 C 4.37 g/m*3 3.3 C 0 km/h
692 28-12-2009 18:26:01 3.4 C 4.46 g/m*3 3.4 C 0 km/h
693 28-12-2009 18:38:01 3.4 C 4.46 g/m*3 3.4 C 0 km/h
694 28-12-2009 18:50:02 3.4 C 4.4 g/m*3 3.4 C 0 km/h
695 28-12-2009 19:02:01 3.3 C 4.43 g/m*3 3.3 C 0 km/h
696 28-12-2009 19:14:01 3.1 C 4.31 g/m*3 3.1 C 0 km/h
697 28-12-2009 19:26:02 2.9 C 4.37 g/m*3 2.9 C 0 km/h
698 28-12-2009 19:38:02 2.6 C 4.28 g/m*3 2.6 C 0 km/h
699 28-12-2009 19:50:01 2.1 C 4.2 g/m*3 2.1 C 0 km/h
700 28-12-2009 20:02:02 1.6 C 4.16 g/m*3 1.6 C 0 km/h
Sensor: Nr:Datum:Temp:Abs-Feuchte:Windchill:Wind:
Aussen-T/F 701 28-12-2009 20:14:02 1.3 C 4.13 g/m*3 1.3 C 0 km/h
702 28-12-2009 20:26:01 1 C 4.15 g/m*3 1 C 0 km/h
703 28-12-2009 20:38:02 0.9 C 4.23 g/m*3 0.9 C 0 km/h
704 28-12-2009 20:50:02 0.5 C 4.11 g/m*3 0.5 C 0 km/h
705 28-12-2009 21:02:02 0.4 C 4.13 g/m*3 0.4 C 0 km/h
706 28-12-2009 21:14:02 0.5 C 4.21 g/m*3 0.5 C 0 km/h
707 28-12-2009 21:26:01 0.3 C 4.16 g/m*3 0.3 C 0 km/h
708 28-12-2009 21:38:02 0.1 C 4.1 g/m*3 0.1 C 0 km/h
709 28-12-2009 21:50:02 -0.3 C 3.99 g/m*3 -0.3 C 0 km/h
710 28-12-2009 22:02:02 -0.4 C 3.96 g/m*3 -0.4 C 0 km/h
711 28-12-2009 22:14:02 -0.5 C 3.93 g/m*3 -0.5 C 0 km/h
712 28-12-2009 22:26:02 -0.7 C 3.92 g/m*3 -0.7 C 0 km/h
713 28-12-2009 22:38:02 -0.9 C 3.87 g/m*3 -0.9 C 0 km/h
714 28-12-2009 22:51:03 -1 C 3.84 g/m*3 -1 C 0 km/h
715 28-12-2009 23:03:03 -1.2 C 3.79 g/m*3 -1.2 C 0 km/h
716 28-12-2009 23:15:03 -1.2 C 3.83 g/m*3 -1.2 C 0 km/h
717 28-12-2009 23:27:03 -1.3 C 3.85 g/m*3 -1.3 C 0 km/h
718 28-12-2009 23:39:03 -1.3 C 3.85 g/m*3 -1.3 C 0 km/h
719 28-12-2009 23:51:03 -1.3 C 3.85 g/m*3 -1.3 C 0 km/h
720 29-12-2009 00:03:03 -1.8 C 3.72 g/m*3 -1.8 C 0 km/h
721 29-12-2009 00:15:03 -1.7 C 3.75 g/m*3 -1.7 C 0 km/h
722 29-12-2009 00:27:03 -2 C 3.67 g/m*3 -2 C 0 km/h
723 29-12-2009 00:39:03 -2 C 3.71 g/m*3 -2 C 0 km/h
724 29-12-2009 00:51:03 -2.2 C 3.66 g/m*3 -2.2 C 0 km/h
725 29-12-2009 01:03:03 -2.1 C 3.68 g/m*3 -2.1 C 0 km/h
Sensor: Nr:Datum:Temp:Abs-Feuchte:Windchill:Wind:
Aussen-T/F 726 29-12-2009 01:15:03 -2.1 C 3.68 g/m*3 -2.1 C 0 km/h
727 29-12-2009 01:27:03 -2.1 C 3.73 g/m*3 -2.1 C 0 km/h
728 29-12-2009 01:39:03 -2.2 C 3.66 g/m*3 -2.2 C 0 km/h
729 29-12-2009 01:51:03 -2.1 C 3.73 g/m*3 -2.1 C 0 km/h
730 29-12-2009 02:03:03 -2.2 C 3.7 g/m*3 -2.2 C 0 km/h
731 29-12-2009 02:15:03 -2.3 C 3.67 g/m*3 -2.3 C 0 km/h
732 29-12-2009 02:27:03 -2.3 C 3.67 g/m*3 -2.3 C 0 km/h
733 29-12-2009 02:39:03 -2.3 C 3.67 g/m*3 -2.3 C 0 km/h
734 29-12-2009 02:51:04 -2.1 C 3.77 g/m*3 -2.1 C 0 km/h
735 29-12-2009 03:03:04 -2 C 3.79 g/m*3 -2 C 0 km/h
736 29-12-2009 03:15:04 -2.1 C 3.77 g/m*3 -2.1 C 0 km/h
737 29-12-2009 03:27:04 -2.2 C 3.74 g/m*3 -2.2 C 0 km/h
738 29-12-2009 03:39:04 -2.3 C 3.71 g/m*3 -2.3 C 0 km/h
739 29-12-2009 03:51:04 -2.2 C 3.78 g/m*3 -2.2 C 0 km/h
740 29-12-2009 04:03:04 -2.5 C 3.66 g/m*3 -2.5 C 0 km/h
741 29-12-2009 04:15:04 -2.5 C 3.66 g/m*3 -2.5 C 0 km/h
742 29-12-2009 04:27:04 -2.6 C 3.68 g/m*3 -2.6 C 0 km/h
743 29-12-2009 04:39:04 -2.6 C 3.68 g/m*3 -2.6 C 0 km/h
744 29-12-2009 04:51:04 -2.6 C 3.68 g/m*3 -2.6 C 0 km/h
745 29-12-2009 05:03:04 -2.8 C 3.63 g/m*3 -2.8 C 0 km/h
746 29-12-2009 05:15:04 -2.7 C 3.65 g/m*3 -2.7 C 0 km/h
747 29-12-2009 05:27:04 -2.7 C 3.69 g/m*3 -2.7 C 0 km/h
748 29-12-2009 05:39:04 -2.8 C 3.67 g/m*3 -2.8 C 0 km/h
749 29-12-2009 05:51:04 -2.9 C 3.64 g/m*3 -2.9 C 0 km/h
750 29-12-2009 06:03:04 -2.9 C 3.64 g/m*3 -2.9 C 0 km/h
Sensor: Nr:Datum:Temp:Abs-Feuchte:Windchill:Wind:
Aussen-T/F 751 29-12-2009 06:15:04 -2.9 C 3.64 g/m*3 -2.9 C 0 km/h
752 29-12-2009 06:27:04 -2.6 C 3.72 g/m*3 -2.6 C 0 km/h
753 29-12-2009 06:39:04 -2.3 C 3.84 g/m*3 -2.3 C 0 km/h
754 29-12-2009 06:51:04 -1.9 C 3.95 g/m*3 -1.9 C 0 km/h
755 29-12-2009 07:03:04 -1.7 C 4.05 g/m*3 -1.7 C 0 km/h
756 29-12-2009 07:15:05 -1.6 C 4.07 g/m*3 -1.6 C 0 km/h
757 29-12-2009 07:27:05 -1.3 C 4.16 g/m*3 -1.3 C 0 km/h
758 29-12-2009 07:39:02 -1.2 C 4.19 g/m*3 -1.2 C 0 km/h
759 29-12-2009 07:51:01 -1.1 C 4.22 g/m*3 -1.1 C 0 km/h
760 29-12-2009 08:03:01 -1.2 C 4.19 g/m*3 -1.2 C 0 km/h
761 29-12-2009 08:15:02 -1 C 4.25 g/m*3 -1 C 0 km/h
762 29-12-2009 08:27:02 -0.9 C 4.28 g/m*3 -0.9 C 0 km/h
763 29-12-2009 08:39:02 -0.7 C 4.34 g/m*3 -0.7 C 0 km/h
764 29-12-2009 08:51:02 -0.5 C 4.45 g/m*3 -0.5 C 0 km/h
765 29-12-2009 09:03:02 -0.3 C 4.51 g/m*3 -0.3 C 0 km/h
766 29-12-2009 09:15:02 -0.1 C 4.57 g/m*3 -0.1 C 0 km/h
767 29-12-2009 09:27:02 0.1 C 4.63 g/m*3 0.1 C 0 km/h
768 29-12-2009 09:39:02 0.3 C 4.7 g/m*3 0.3 C 0 km/h
769 29-12-2009 09:51:01 0.4 C 4.68 g/m*3 0.4 C 0 km/h
770 29-12-2009 10:03:02 0.6 C 4.75 g/m*3 0.6 C 0 km/h
771 29-12-2009 10:15:02 0.7 C 4.78 g/m*3 0.7 C 0 km/h
772 29-12-2009 10:27:02 1 C 4.83 g/m*3 1 C 0 km/h
773 29-12-2009 10:39:02 1.3 C 4.87 g/m*3 1.3 C 0 km/h
774 29-12-2009 10:51:01 1.4 C 4.91 g/m*3 1.4 C 0 km/h
775 29-12-2009 11:03:02 1.6 C 4.92 g/m*3 1.6 C 0 km/h
Sensor: Nr:Datum:Temp:Abs-Feuchte:Windchill:Wind:
Aussen-T/F 776 29-12-2009 11:15:02 1.8 C 4.93 g/m*3 1.8 C 0 km/h
777 29-12-2009 11:27:02 1.8 C 4.88 g/m*3 1.8 C 0 km/h
778 29-12-2009 11:39:01 1.9 C 4.86 g/m*3 1.9 C 0 km/h
779 29-12-2009 11:51:02 2.2 C 4.9 g/m*3 2.2 C 0 km/h
780 29-12-2009 12:03:01 2.3 C 4.82 g/m*3 2.3 C 0 km/h
781 29-12-2009 12:15:01 2.2 C 4.79 g/m*3 2.2 C 0 km/h
782 29-12-2009 12:27:02 2.3 C 4.82 g/m*3 2.3 C 0 km/h
783 29-12-2009 12:39:01 2.3 C 4.88 g/m*3 2.3 C 0 km/h
784 29-12-2009 12:51:02 2.3 C 4.88 g/m*3 2.3 C 0 km/h
785 29-12-2009 13:03:02 2.3 C 4.93 g/m*3 2.3 C 0 km/h
786 29-12-2009 13:15:02 2.2 C 4.96 g/m*3 2.2 C 0 km/h
787 29-12-2009 13:27:02 2.1 C 4.92 g/m*3 2.1 C 0 km/h
788 29-12-2009 13:39:02 1.9 C 4.91 g/m*3 1.9 C 0 km/h
789 29-12-2009 13:51:02 1.8 C 4.93 g/m*3 1.8 C 0 km/h
790 29-12-2009 14:03:02 1.8 C 4.93 g/m*3 1.8 C 0 km/h
791 29-12-2009 14:15:01 1.8 C 4.93 g/m*3 1.8 C 0 km/h
792 29-12-2009 14:27:01 1.8 C 4.99 g/m*3 1.8 C 0 km/h
793 29-12-2009 14:39:02 1.9 C 5.08 g/m*3 1.9 C 0 km/h
794 29-12-2009 14:51:02 1.9 C 5.08 g/m*3 1.9 C 0 km/h
795 29-12-2009 15:03:02 2 C 5.06 g/m*3 2 C 0 km/h
796 29-12-2009 15:15:01 2 C 5.11 g/m*3 2 C 0 km/h
797 29-12-2009 15:27:01 1.9 C 5.13 g/m*3 1.9 C 0 km/h
798 29-12-2009 15:39:02 1.9 C 5.13 g/m*3 1.9 C 0 km/h
799 29-12-2009 15:51:02 1.9 C 5.13 g/m*3 1.9 C 0 km/h
800 29-12-2009 16:03:02 1.9 C 5.13 g/m*3 1.9 C 0 km/h
Sensor: Nr:Datum:Temp:Abs-Feuchte:Windchill:Wind:
Aussen-T/F 801 29-12-2009 16:15:02 1.9 C 5.13 g/m*3 1.9 C 0 km/h
802 29-12-2009 16:27:02 1.8 C 5.15 g/m*3 1.8 C 0 km/h
803 29-12-2009 16:39:02 1.8 C 5.15 g/m*3 1.8 C 0 km/h
804 29-12-2009 16:51:01 1.9 C 5.19 g/m*3 1.9 C 0 km/h
805 29-12-2009 17:03:02 1.9 C 5.19 g/m*3 1.9 C 0 km/h
806 29-12-2009 17:15:01 2 C 5.22 g/m*3 2 C 0 km/h
807 29-12-2009 17:27:01 2 C 5.28 g/m*3 2 C 0 km/h
808 29-12-2009 17:39:01 2.1 C 5.31 g/m*3 2.1 C 0 km/h
809 29-12-2009 17:51:02 2.1 C 5.31 g/m*3 2.1 C 0 km/h
810 29-12-2009 18:03:02 2.1 C 5.31 g/m*3 2.1 C 0 km/h
811 29-12-2009 18:15:01 2.2 C 5.35 g/m*3 2.2 C 0 km/h
812 29-12-2009 18:27:01 2.2 C 5.35 g/m*3 2.2 C 0 km/h
813 29-12-2009 18:39:02 2.2 C 5.35 g/m*3 2.2 C 0 km/h
814 29-12-2009 18:51:02 2.4 C 5.42 g/m*3 2.4 C 0 km/h
815 29-12-2009 19:03:02 2.3 C 5.39 g/m*3 2.3 C 0 km/h
816 29-12-2009 19:15:01 2.4 C 5.42 g/m*3 2.4 C 0 km/h
817 29-12-2009 19:27:01 2.4 C 5.42 g/m*3 2.4 C 0 km/h
818 29-12-2009 19:39:02 2.4 C 5.42 g/m*3 2.4 C 0 km/h
819 29-12-2009 19:51:02 2.4 C 5.42 g/m*3 2.4 C 0 km/h
820 29-12-2009 20:03:02 2.4 C 5.42 g/m*3 2.4 C 0 km/h
821 29-12-2009 20:15:02 2.4 C 5.42 g/m*3 2.4 C 0 km/h
822 29-12-2009 20:27:02 2.4 C 5.42 g/m*3 2.4 C 0 km/h
823 29-12-2009 20:39:02 2.4 C 5.42 g/m*3 2.4 C 0 km/h
824 29-12-2009 20:51:02 2.4 C 5.42 g/m*3 2.4 C 0 km/h
825 29-12-2009 21:03:02 2.4 C 5.42 g/m*3 2.4 C 0 km/h
Sensor: Nr:Datum:Temp:Abs-Feuchte:Windchill:Wind:
Aussen-T/F 826 29-12-2009 21:15:03 2.5 C 5.46 g/m*3 2.5 C 0 km/h
827 29-12-2009 21:27:03 2.5 C 5.46 g/m*3 2.5 C 0 km/h
828 29-12-2009 21:39:02 2.5 C 5.46 g/m*3 2.5 C 0 km/h
829 29-12-2009 21:51:02 2.5 C 5.46 g/m*3 2.5 C 0 km/h
830 29-12-2009 22:03:02 2.5 C 5.46 g/m*3 2.5 C 0 km/h
831 29-12-2009 22:15:02 2.5 C 5.46 g/m*3 2.5 C 0 km/h
832 29-12-2009 22:27:02 2.5 C 5.46 g/m*3 2.5 C 0 km/h
833 29-12-2009 22:39:02 2.5 C 5.46 g/m*3 2.5 C 0 km/h
834 29-12-2009 22:51:02 2.6 C 5.5 g/m*3 2.6 C 0 km/h
835 29-12-2009 23:04:51 2.6 C 5.5 g/m*3 2.6 C 0 km/h
836 29-12-2009 23:16:51 2.7 C 5.54 g/m*3 2.7 C 0 km/h
837 29-12-2009 23:28:51 2.7 C 5.54 g/m*3 2.7 C 0 km/h
838 29-12-2009 23:40:51 2.8 C 5.57 g/m*3 2.8 C 0 km/h
839 29-12-2009 23:52:51 2.8 C 5.57 g/m*3 2.8 C 0 km/h
840 30-12-2009 00:04:51 2.7 C 5.54 g/m*3 2.7 C 0 km/h
841 30-12-2009 00:16:51 2.9 C 5.61 g/m*3 2.9 C 0 km/h
842 30-12-2009 00:28:51 3.7 C 5.92 g/m*3 3.7 C 0 km/h
843 30-12-2009 00:40:51 3.7 C 5.92 g/m*3 3.7 C 0 km/h
844 30-12-2009 00:52:51 3.5 C 5.84 g/m*3 3.5 C 0 km/h
845 30-12-2009 01:04:51 3.1 C 5.69 g/m*3 3.1 C 0 km/h
846 30-12-2009 01:16:51 3.1 C 5.69 g/m*3 3.1 C 0 km/h
847 30-12-2009 01:28:51 3.1 C 5.69 g/m*3 3.1 C 0 km/h
848 30-12-2009 01:40:51 3.2 C 5.72 g/m*3 3.2 C 0 km/h
849 30-12-2009 01:52:51 3.2 C 5.72 g/m*3 3.2 C 0 km/h
850 30-12-2009 02:04:51 3.2 C 5.72 g/m*3 3.2 C 0 km/h
Sensor: Nr:Datum:Temp:Abs-Feuchte:Windchill:Wind:
Aussen-T/F 851 30-12-2009 02:16:51 3.3 C 5.76 g/m*3 3.3 C 0 km/h
852 30-12-2009 02:28:51 3.4 C 5.8 g/m*3 3.4 C 0 km/h
853 30-12-2009 02:40:51 3.4 C 5.8 g/m*3 3.4 C 0 km/h
854 30-12-2009 02:52:51 3.4 C 5.8 g/m*3 3.4 C 0 km/h
855 30-12-2009 03:04:51 3.8 C 5.96 g/m*3 3.8 C 0 km/h
856 30-12-2009 03:16:51 4 C 6.04 g/m*3 4 C 0 km/h
857 30-12-2009 03:28:52 5.2 C 6.54 g/m*3 5.2 C 0 km/h
858 30-12-2009 03:40:52 5.2 C 6.54 g/m*3 5.2 C 0 km/h
859 30-12-2009 03:52:52 5.9 C 6.85 g/m*3 5.9 C 0 km/h
860 30-12-2009 04:04:52 5.3 C 6.58 g/m*3 5.3 C 0 km/h
861 30-12-2009 04:16:52 4.7 C 6.33 g/m*3 4.7 C 0 km/h
862 30-12-2009 04:28:52 4.8 C 6.37 g/m*3 4.8 C 0 km/h
863 30-12-2009 04:40:52 4.8 C 6.37 g/m*3 4.8 C 0 km/h
864 30-12-2009 04:52:52 4.6 C 6.29 g/m*3 4.6 C 0 km/h
865 30-12-2009 05:04:52 5.2 C 6.54 g/m*3 5.2 C 0 km/h
866 30-12-2009 05:16:52 4.8 C 6.37 g/m*3 4.8 C 0 km/h
867 30-12-2009 05:28:52 5.1 C 6.5 g/m*3 5.1 C 0 km/h
868 30-12-2009 05:40:52 5.2 C 6.54 g/m*3 5.2 C 0 km/h
869 30-12-2009 05:52:52 4.9 C 6.41 g/m*3 4.9 C 0 km/h
870 30-12-2009 06:04:52 4.8 C 6.37 g/m*3 4.8 C 0 km/h
871 30-12-2009 06:16:52 4.8 C 6.37 g/m*3 4.8 C 0 km/h
872 30-12-2009 06:28:52 5.8 C 6.81 g/m*3 5.8 C 0 km/h
873 30-12-2009 06:40:52 5.7 C 6.76 g/m*3 5.7 C 0 km/h
874 30-12-2009 06:52:52 5.5 C 6.67 g/m*3 5.5 C 0 km/h
875 30-12-2009 07:04:52 6.4 C 7.08 g/m*3 6.4 C 0 km/h
Sensor: Nr:Datum:Temp:Abs-Feuchte:Windchill:Wind:
Aussen-T/F 876 30-12-2009 07:16:52 5.9 C 6.85 g/m*3 5.9 C 0 km/h
877 30-12-2009 07:28:52 6 C 6.9 g/m*3 6 C 0 km/h
878 30-12-2009 07:40:52 6.4 C 7.08 g/m*3 6.4 C 0 km/h
879 30-12-2009 07:52:53 5.9 C 6.85 g/m*3 5.9 C 0 km/h
880 30-12-2009 08:04:53 5.6 C 6.72 g/m*3 5.6 C 0 km/h
881 30-12-2009 08:16:53 5.8 C 6.81 g/m*3 5.8 C 0 km/h
882 30-12-2009 08:28:02 6.1 C 6.94 g/m*3 6.1 C 0 km/h
883 30-12-2009 08:40:03 6.5 C 7.12 g/m*3 6.5 C 0 km/h
884 30-12-2009 08:52:02 6.5 C 7.12 g/m*3 6.5 C 0 km/h
885 30-12-2009 09:04:02 6.4 C 7.08 g/m*3 6.4 C 0 km/h
886 30-12-2009 09:16:02 6.9 C 7.31 g/m*3 6.9 C 0 km/h
887 30-12-2009 09:28:02 7.2 C 7.46 g/m*3 7.2 C 0 km/h
888 30-12-2009 09:40:03 7.3 C 7.51 g/m*3 7.3 C 0 km/h
889 30-12-2009 09:52:03 7.3 C 7.51 g/m*3 7.3 C 0 km/h
890 30-12-2009 10:04:02 7.8 C 7.75 g/m*3 7.8 C 0 km/h
891 30-12-2009 10:16:03 7.5 C 7.6 g/m*3 7.5 C 0 km/h
892 30-12-2009 10:28:03 7.3 C 7.51 g/m*3 7.3 C 0 km/h
893 30-12-2009 10:40:03 7.2 C 7.46 g/m*3 7.2 C 0 km/h
894 30-12-2009 10:52:02 7.6 C 7.65 g/m*3 7.6 C 0 km/h
895 30-12-2009 11:04:02 7.8 C 7.75 g/m*3 7.8 C 0 km/h
896 30-12-2009 11:16:02 7.8 C 7.75 g/m*3 7.8 C 0 km/h
897 30-12-2009 11:28:02 7.7 C 7.7 g/m*3 7.7 C 0 km/h
898 30-12-2009 11:40:02 7.9 C 7.8 g/m*3 7.9 C 0 km/h
899 30-12-2009 11:52:02 7.8 C 7.75 g/m*3 7.8 C 0 km/h
900 30-12-2009 12:04:02 7.7 C 7.7 g/m*3 7.7 C 0 km/h
Sensor: Nr:Datum:Temp:Abs-Feuchte:Windchill:Wind:
Aussen-T/F 901 30-12-2009 12:16:02 8 C 7.85 g/m*3 8 C 0 km/h
902 30-12-2009 12:28:02 7.9 C 7.8 g/m*3 7.9 C 0 km/h
903 30-12-2009 12:40:02 8.1 C 7.9 g/m*3 8.1 C 0 km/h
904 30-12-2009 12:52:02 8.6 C 8.16 g/m*3 8.6 C 0 km/h
905 30-12-2009 13:04:02 8.9 C 8.32 g/m*3 8.9 C 0 km/h
906 30-12-2009 13:16:02 9.2 C 8.48 g/m*3 9.2 C 0 km/h
907 30-12-2009 13:28:02 9.2 C 8.48 g/m*3 9.2 C 0 km/h
908 30-12-2009 13:40:02 9.4 C 8.59 g/m*3 9.4 C 0 km/h
909 30-12-2009 13:52:02 9.3 C 8.54 g/m*3 9.3 C 0 km/h
910 30-12-2009 14:04:02 9.4 C 8.59 g/m*3 9.4 C 0 km/h
911 30-12-2009 14:16:02 9.4 C 8.59 g/m*3 9.4 C 0 km/h
912 30-12-2009 14:28:02 9.4 C 8.59 g/m*3 9.4 C 0 km/h
913 30-12-2009 14:40:02 9.4 C 8.59 g/m*3 9.4 C 0 km/h
914 30-12-2009 14:52:02 9.3 C 8.54 g/m*3 9.3 C 0 km/h
915 30-12-2009 15:04:02 9.3 C 8.54 g/m*3 9.3 C 0 km/h
916 30-12-2009 15:16:02 9.3 C 8.54 g/m*3 9.3 C 0 km/h
917 30-12-2009 15:28:03 9.3 C 8.54 g/m*3 9.3 C 0 km/h
918 30-12-2009 15:40:01 9.2 C 8.48 g/m*3 9.2 C 0 km/h
919 30-12-2009 15:52:02 9.3 C 8.54 g/m*3 9.3 C 0 km/h
920 30-12-2009 16:04:01 9.2 C 8.48 g/m*3 9.2 C 0 km/h
921 30-12-2009 16:16:02 9.2 C 8.48 g/m*3 9.2 C 0 km/h
922 30-12-2009 16:28:02 9.1 C 8.43 g/m*3 9.1 C 0 km/h
923 30-12-2009 16:40:02 9 C 8.38 g/m*3 9 C 0 km/h
924 30-12-2009 16:52:02 9 C 8.38 g/m*3 9 C 0 km/h
925 30-12-2009 17:04:02 8.8 C 8.27 g/m*3 8.8 C 0 km/h
Sensor: Nr:Datum:Temp:Abs-Feuchte:Windchill:Wind:
Aussen-T/F 926 30-12-2009 17:16:02 8.6 C 8.16 g/m*3 8.6 C 0 km/h
927 30-12-2009 17:28:02 8.6 C 8.16 g/m*3 8.6 C 0 km/h
928 30-12-2009 17:40:02 8.6 C 8.08 g/m*3 8.6 C 0 km/h
929 30-12-2009 17:52:02 8.5 C 8.03 g/m*3 8.5 C 0 km/h
930 30-12-2009 18:04:02 8.6 C 8.08 g/m*3 8.6 C 0 km/h
931 30-12-2009 18:16:01 8.5 C 8.03 g/m*3 8.5 C 0 km/h
932 30-12-2009 18:28:01 8.4 C 7.97 g/m*3 8.4 C 0 km/h
933 30-12-2009 18:40:02 8.4 C 7.97 g/m*3 8.4 C 0 km/h
934 30-12-2009 18:52:02 8.4 C 7.89 g/m*3 8.4 C 0 km/h
935 30-12-2009 19:04:02 8.5 C 7.94 g/m*3 8.5 C 0 km/h
936 30-12-2009 19:16:02 8.6 C 7.91 g/m*3 8.6 C 0 km/h
937 30-12-2009 19:28:02 8.6 C 7.82 g/m*3 8.6 C 0 km/h
938 30-12-2009 19:40:02 8.5 C 7.77 g/m*3 8.5 C 0 km/h
939 30-12-2009 19:52:02 8.5 C 7.77 g/m*3 8.5 C 0 km/h
940 30-12-2009 20:04:02 8.7 C 7.78 g/m*3 8.7 C 0 km/h
941 30-12-2009 20:16:02 8.8 C 7.66 g/m*3 8.8 C 0 km/h
942 30-12-2009 20:28:02 8.9 C 7.62 g/m*3 8.9 C 0 km/h
943 30-12-2009 20:40:02 8.9 C 7.53 g/m*3 8.9 C 0 km/h
944 30-12-2009 20:52:01 8.7 C 7.52 g/m*3 8.7 C 0 km/h
945 30-12-2009 21:04:01 8.5 C 7.51 g/m*3 8.5 C 0 km/h
946 30-12-2009 21:16:01 8.5 C 7.51 g/m*3 8.5 C 0 km/h
947 30-12-2009 21:28:01 8.5 C 7.51 g/m*3 8.5 C 0 km/h
948 30-12-2009 21:40:01 8.5 C 7.51 g/m*3 8.5 C 0 km/h
949 30-12-2009 21:52:01 8.6 C 7.56 g/m*3 8.6 C 0 km/h
950 30-12-2009 22:04:02 8.6 C 7.48 g/m*3 8.6 C 0 km/h
Sensor: Nr:Datum:Temp:Abs-Feuchte:Windchill:Wind:
Aussen-T/F 951 30-12-2009 22:16:01 8.7 C 7.44 g/m*3 8.7 C 0 km/h
952 30-12-2009 22:28:01 8.8 C 7.4 g/m*3 8.8 C 0 km/h
953 30-12-2009 22:40:02 8.9 C 7.36 g/m*3 8.9 C 0 km/h
954 30-12-2009 22:52:02 8.9 C 7.36 g/m*3 8.9 C 0 km/h
955 30-12-2009 23:04:01 8.8 C 7.31 g/m*3 8.8 C 0 km/h
956 30-12-2009 23:16:01 8.6 C 7.39 g/m*3 8.6 C 0 km/h
957 30-12-2009 23:28:01 8.2 C 7.37 g/m*3 8.2 C 0 km/h
958 30-12-2009 23:40:01 8 C 7.44 g/m*3 8 C 0 km/h
959 30-12-2009 23:52:01 7.9 C 7.56 g/m*3 7.9 C 0 km/h
960 31-12-2009 00:04:01 7.9 C 7.56 g/m*3 7.9 C 0 km/h
961 31-12-2009 00:16:01 7.8 C 7.59 g/m*3 7.8 C 0 km/h
962 31-12-2009 00:28:01 7.8 C 7.59 g/m*3 7.8 C 0 km/h
963 31-12-2009 00:40:01 7.7 C 7.54 g/m*3 7.7 C 0 km/h
964 31-12-2009 00:52:01 7.6 C 7.57 g/m*3 7.6 C 0 km/h
965 31-12-2009 01:04:01 7.6 C 7.57 g/m*3 7.6 C 0 km/h
966 31-12-2009 01:16:01 7.6 C 7.57 g/m*3 7.6 C 0 km/h
967 31-12-2009 01:28:02 7.6 C 7.65 g/m*3 7.6 C 0 km/h
968 31-12-2009 01:40:02 7.6 C 7.65 g/m*3 7.6 C 0 km/h
969 31-12-2009 01:52:02 7.6 C 7.65 g/m*3 7.6 C 0 km/h
970 31-12-2009 02:04:02 7.5 C 7.6 g/m*3 7.5 C 0 km/h
971 31-12-2009 02:16:02 7.6 C 7.65 g/m*3 7.6 C 0 km/h
972 31-12-2009 02:28:02 7.4 C 7.55 g/m*3 7.4 C 0 km/h
973 31-12-2009 02:40:01 7.5 C 7.6 g/m*3 7.5 C 0 km/h
974 31-12-2009 02:52:01 7.6 C 7.65 g/m*3 7.6 C 0 km/h
975 31-12-2009 03:04:01 7.6 C 7.65 g/m*3 7.6 C 0 km/h
Sensor: Nr:Datum:Temp:Abs-Feuchte:Windchill:Wind:
Aussen-T/F 976 31-12-2009 03:16:02 7.6 C 7.65 g/m*3 7.6 C 0 km/h
977 31-12-2009 03:28:02 7.5 C 7.6 g/m*3 7.5 C 0 km/h
978 31-12-2009 03:40:01 7.5 C 7.6 g/m*3 7.5 C 0 km/h
979 31-12-2009 03:52:01 7.4 C 7.55 g/m*3 7.4 C 0 km/h
980 31-12-2009 04:04:02 7.3 C 7.51 g/m*3 7.3 C 0 km/h
981 31-12-2009 04:16:01 7.1 C 7.41 g/m*3 7.1 C 0 km/h
982 31-12-2009 04:28:01 7 C 7.36 g/m*3 7 C 0 km/h
983 31-12-2009 04:40:02 7 C 7.36 g/m*3 7 C 0 km/h
984 31-12-2009 04:52:01 7 C 7.36 g/m*3 7 C 0 km/h
985 31-12-2009 05:04:02 7.1 C 7.41 g/m*3 7.1 C 0 km/h
986 31-12-2009 05:16:01 7.1 C 7.41 g/m*3 7.1 C 0 km/h
987 31-12-2009 05:28:01 7 C 7.36 g/m*3 7 C 0 km/h
988 31-12-2009 05:40:01 7 C 7.36 g/m*3 7 C 0 km/h
989 31-12-2009 05:52:01 7 C 7.36 g/m*3 7 C 0 km/h
990 31-12-2009 06:04:02 6.9 C 7.31 g/m*3 6.9 C 0 km/h
991 31-12-2009 06:16:01 6.7 C 7.22 g/m*3 6.7 C 0 km/h
992 31-12-2009 06:28:01 6.7 C 7.22 g/m*3 6.7 C 0 km/h
993 31-12-2009 06:40:01 6.6 C 7.17 g/m*3 6.6 C 0 km/h
994 31-12-2009 06:52:01 6.6 C 7.17 g/m*3 6.6 C 0 km/h
995 31-12-2009 07:04:01 6.7 C 7.22 g/m*3 6.7 C 0 km/h
996 31-12-2009 07:16:01 6.6 C 7.17 g/m*3 6.6 C 0 km/h
997 31-12-2009 07:28:01 6.7 C 7.22 g/m*3 6.7 C 0 km/h
998 31-12-2009 07:40:01 6.6 C 7.17 g/m*3 6.6 C 0 km/h
999 31-12-2009 07:52:01 6.6 C 7.17 g/m*3 6.6 C 0 km/h
1000 31-12-2009 08:04:01 6.6 C 7.17 g/m*3 6.6 C 0 km/h
Sensor: Nr:Datum:Temp:Abs-Feuchte:Windchill:Wind:
Aussen-T/F 1001 31-12-2009 08:16:02 6.6 C 7.17 g/m*3 6.6 C 0 km/h
1002 31-12-2009 08:28:02 6.6 C 7.17 g/m*3 6.6 C 0 km/h
1003 31-12-2009 08:40:01 6.6 C 7.17 g/m*3 6.6 C 0 km/h
1004 31-12-2009 08:52:02 6.6 C 7.17 g/m*3 6.6 C 0 km/h
1005 31-12-2009 09:04:01 6.6 C 7.17 g/m*3 6.6 C 0 km/h
1006 31-12-2009 09:16:02 6.6 C 7.17 g/m*3 6.6 C 0 km/h
1007 31-12-2009 09:28:02 6.7 C 7.22 g/m*3 6.7 C 0 km/h
1008 31-12-2009 09:40:01 6.7 C 7.22 g/m*3 6.7 C 0 km/h
1009 31-12-2009 09:52:02 6.7 C 7.22 g/m*3 6.7 C 0 km/h
1010 31-12-2009 10:04:01 6.7 C 7.22 g/m*3 6.7 C 0 km/h
1011 31-12-2009 10:16:02 6.8 C 7.27 g/m*3 6.8 C 0 km/h
1012 31-12-2009 10:28:02 6.8 C 7.27 g/m*3 6.8 C 0 km/h
1013 31-12-2009 10:40:01 7 C 7.36 g/m*3 7 C 0 km/h
1014 31-12-2009 10:52:02 7.3 C 7.51 g/m*3 7.3 C 0 km/h
1015 31-12-2009 11:04:01 7.4 C 7.55 g/m*3 7.4 C 0 km/h
1016 31-12-2009 11:16:01 7.5 C 7.6 g/m*3 7.5 C 0 km/h
1017 31-12-2009 11:28:01 7.5 C 7.6 g/m*3 7.5 C 0 km/h
1018 31-12-2009 11:40:01 7.4 C 7.55 g/m*3 7.4 C 0 km/h
1019 31-12-2009 11:52:02 7.5 C 7.6 g/m*3 7.5 C 0 km/h
1020 31-12-2009 12:04:01 7.4 C 7.55 g/m*3 7.4 C 0 km/h
1021 31-12-2009 12:16:01 7.4 C 7.55 g/m*3 7.4 C 0 km/h
1022 31-12-2009 12:28:01 7.4 C 7.55 g/m*3 7.4 C 0 km/h
1023 31-12-2009 12:40:02 7.4 C 7.55 g/m*3 7.4 C 0 km/h
1024 31-12-2009 12:52:01 7.2 C 7.46 g/m*3 7.2 C 0 km/h
1025 31-12-2009 13:04:01 7.1 C 7.41 g/m*3 7.1 C 0 km/h
Sensor: Nr:Datum:Temp:Abs-Feuchte:Windchill:Wind:
Aussen-T/F 1026 31-12-2009 13:16:02 7 C 7.36 g/m*3 7 C 0 km/h
1027 31-12-2009 13:28:02 7.1 C 7.41 g/m*3 7.1 C 0 km/h
1028 31-12-2009 13:40:01 7.1 C 7.41 g/m*3 7.1 C 0 km/h
1029 31-12-2009 13:52:01 7.2 C 7.46 g/m*3 7.2 C 0 km/h
1030 31-12-2009 14:04:01 6.7 C 7.22 g/m*3 6.7 C 0 km/h
1031 31-12-2009 14:16:02 6.5 C 7.12 g/m*3 6.5 C 0 km/h
1032 31-12-2009 14:28:02 6.3 C 7.03 g/m*3 6.3 C 0 km/h
1033 31-12-2009 14:40:01 6.1 C 6.94 g/m*3 6.1 C 0 km/h
1034 31-12-2009 14:52:02 5.9 C 6.85 g/m*3 5.9 C 0 km/h
1035 31-12-2009 15:04:01 5.9 C 6.85 g/m*3 5.9 C 0 km/h
1036 31-12-2009 15:16:02 5.6 C 6.72 g/m*3 5.6 C 0 km/h
1037 31-12-2009 15:28:02 5 C 6.46 g/m*3 5 C 0 km/h
1038 31-12-2009 15:40:01 5.1 C 6.5 g/m*3 5.1 C 0 km/h
1039 31-12-2009 15:52:02 4.6 C 6.29 g/m*3 4.6 C 0 km/h
1040 31-12-2009 16:04:01 4.2 C 6.12 g/m*3 4.2 C 0 km/h
1041 31-12-2009 16:16:01 3.9 C 6 g/m*3 3.9 C 0 km/h
1042 31-12-2009 16:28:02 3.7 C 5.92 g/m*3 3.7 C 0 km/h
1043 31-12-2009 16:40:01 3.4 C 5.8 g/m*3 3.4 C 0 km/h
1044 31-12-2009 16:52:01 3.3 C 5.76 g/m*3 3.3 C 0 km/h
1045 31-12-2009 17:05:02 3.2 C 5.66 g/m*3 3.2 C 0 km/h
1046 31-12-2009 17:17:02 2.9 C 5.55 g/m*3 2.9 C 0 km/h
1047 31-12-2009 17:29:02 2.9 C 5.55 g/m*3 2.9 C 0 km/h
1048 31-12-2009 17:41:02 2.7 C 5.48 g/m*3 2.7 C 0 km/h
1049 31-12-2009 17:53:02 2.8 C 5.51 g/m*3 2.8 C 0 km/h
1050 31-12-2009 18:05:02 2.8 C 5.51 g/m*3 2.8 C 0 km/h
Sensor: Nr:Datum:Temp:Abs-Feuchte:Windchill:Wind:
Aussen-T/F 1051 31-12-2009 18:17:02 2.7 C 5.48 g/m*3 2.7 C 0 km/h
1052 31-12-2009 18:29:02 2.7 C 5.54 g/m*3 2.7 C 0 km/h
1053 31-12-2009 18:41:02 2.7 C 5.54 g/m*3 2.7 C 0 km/h
1054 31-12-2009 18:53:02 2.6 C 5.5 g/m*3 2.6 C 0 km/h
1055 31-12-2009 19:05:02 2.5 C 5.46 g/m*3 2.5 C 0 km/h
1056 31-12-2009 19:17:02 2.3 C 5.39 g/m*3 2.3 C 0 km/h
1057 31-12-2009 19:29:02 2.1 C 5.31 g/m*3 2.1 C 0 km/h
1058 31-12-2009 19:41:02 2 C 5.28 g/m*3 2 C 0 km/h
1059 31-12-2009 19:53:03 2.1 C 5.31 g/m*3 2.1 C 0 km/h
1060 31-12-2009 20:05:03 1.9 C 5.24 g/m*3 1.9 C 0 km/h
1061 31-12-2009 20:17:03 1.8 C 5.21 g/m*3 1.8 C 0 km/h
1062 31-12-2009 20:29:03 1.8 C 5.21 g/m*3 1.8 C 0 km/h
1063 31-12-2009 20:41:03 1.8 C 5.21 g/m*3 1.8 C 0 km/h
1064 31-12-2009 20:53:03 1.8 C 5.21 g/m*3 1.8 C 0 km/h
1065 31-12-2009 21:05:03 1.6 C 5.14 g/m*3 1.6 C 0 km/h
1066 31-12-2009 21:17:03 1.5 C 5.1 g/m*3 1.5 C 0 km/h
1067 31-12-2009 21:29:03 1.3 C 5.03 g/m*3 1.3 C 0 km/h
1068 31-12-2009 21:41:03 1.2 C 5 g/m*3 1.2 C 0 km/h
1069 31-12-2009 21:53:03 1.3 C 5.03 g/m*3 1.3 C 0 km/h
1070 31-12-2009 22:05:03 1.3 C 5.03 g/m*3 1.3 C 0 km/h
1071 31-12-2009 22:17:03 1.3 C 5.03 g/m*3 1.3 C 0 km/h
1072 31-12-2009 22:29:03 0.9 C 4.9 g/m*3 0.9 C 0 km/h
1073 31-12-2009 22:41:03 0.8 C 4.86 g/m*3 0.8 C 0 km/h
1074 31-12-2009 22:53:03 0.7 C 4.83 g/m*3 0.7 C 0 km/h
1075 31-12-2009 23:05:03 0.6 C 4.8 g/m*3 0.6 C 0 km/h
Sensor: Nr:Datum:Temp:Abs-Feuchte:Windchill:Wind:
Aussen-T/F 1076 31-12-2009 23:17:03 0.6 C 4.8 g/m*3 0.6 C 0 km/h
1077 31-12-2009 23:29:03 0.6 C 4.8 g/m*3 0.6 C 0 km/h
1078 31-12-2009 23:41:03 0.7 C 4.83 g/m*3 0.7 C 0 km/h
1079 31-12-2009 23:53:03 0.7 C 4.83 g/m*3 0.7 C 0 km/h
1080 01-01-2010 00:05:04 0.8 C 4.86 g/m*3 0.8 C 0 km/h
1081 01-01-2010 00:17:04 0.8 C 4.86 g/m*3 0.8 C 0 km/h
1082 01-01-2010 00:29:04 0.8 C 4.86 g/m*3 0.8 C 0 km/h
1083 01-01-2010 00:41:04 0.8 C 4.86 g/m*3 0.8 C 0 km/h
1084 01-01-2010 00:53:04 0.8 C 4.86 g/m*3 0.8 C 0 km/h
1085 01-01-2010 01:05:04 0.7 C 4.83 g/m*3 0.7 C 0 km/h
1086 01-01-2010 01:17:04 0.5 C 4.76 g/m*3 0.5 C 0 km/h
1087 01-01-2010 01:29:04 0.5 C 4.76 g/m*3 0.5 C 0 km/h
1088 01-01-2010 01:41:04 0.4 C 4.73 g/m*3 0.4 C 0 km/h
1089 01-01-2010 01:53:04 0.5 C 4.76 g/m*3 0.5 C 0 km/h
1090 01-01-2010 02:05:04 0.4 C 4.73 g/m*3 0.4 C 0 km/h
1091 01-01-2010 02:17:04 0.4 C 4.73 g/m*3 0.4 C 0 km/h
1092 01-01-2010 02:29:04 0.3 C 4.7 g/m*3 0.3 C 0 km/h
1093 01-01-2010 02:41:04 0.3 C 4.7 g/m*3 0.3 C 0 km/h
1094 01-01-2010 02:53:04 0.3 C 4.7 g/m*3 0.3 C 0 km/h
1095 01-01-2010 03:05:04 0.3 C 4.7 g/m*3 0.3 C 0 km/h
1096 01-01-2010 03:17:04 0.3 C 4.7 g/m*3 0.3 C 0 km/h
1097 01-01-2010 03:29:04 0.3 C 4.7 g/m*3 0.3 C 0 km/h
1098 01-01-2010 03:41:04 0.3 C 4.7 g/m*3 0.3 C 0 km/h
1099 01-01-2010 03:53:04 0.3 C 4.7 g/m*3 0.3 C 0 km/h
1100 01-01-2010 04:05:05 0.2 C 4.67 g/m*3 0.2 C 0 km/h
Sensor: Nr:Datum:Temp:Abs-Feuchte:Windchill:Wind:
Aussen-T/F 1101 01-01-2010 04:17:05 0.3 C 4.7 g/m*3 0.3 C 0 km/h
1102 01-01-2010 04:29:05 0.3 C 4.7 g/m*3 0.3 C 0 km/h
1103 01-01-2010 04:41:05 0.2 C 4.67 g/m*3 0.2 C 0 km/h
1104 01-01-2010 04:53:05 0.3 C 4.7 g/m*3 0.3 C 0 km/h
1105 01-01-2010 05:05:05 0.2 C 4.67 g/m*3 0.2 C 0 km/h
1106 01-01-2010 05:17:05 0.2 C 4.67 g/m*3 0.2 C 0 km/h
1107 01-01-2010 05:29:05 0.2 C 4.67 g/m*3 0.2 C 0 km/h
1108 01-01-2010 05:41:05 0.2 C 4.67 g/m*3 0.2 C 0 km/h
1109 01-01-2010 05:53:05 0.2 C 4.67 g/m*3 0.2 C 0 km/h
1110 01-01-2010 06:05:05 0.1 C 4.63 g/m*3 0.1 C 0 km/h
1111 01-01-2010 06:17:05 0.1 C 4.63 g/m*3 0.1 C 0 km/h
1112 01-01-2010 06:29:05 0.1 C 4.63 g/m*3 0.1 C 0 km/h
1113 01-01-2010 06:41:05 0.1 C 4.63 g/m*3 0.1 C 0 km/h
1114 01-01-2010 06:53:05 0.2 C 4.67 g/m*3 0.2 C 0 km/h
1115 01-01-2010 07:05:05 0.1 C 4.63 g/m*3 0.1 C 0 km/h
1116 01-01-2010 07:17:05 0.1 C 4.63 g/m*3 0.1 C 0 km/h
1117 01-01-2010 07:29:05 0.1 C 4.63 g/m*3 0.1 C 0 km/h
1118 01-01-2010 07:41:05 0.1 C 4.63 g/m*3 0.1 C 0 km/h
1119 01-01-2010 07:53:05 0.1 C 4.59 g/m*3 0.1 C 0 km/h
1120 01-01-2010 08:05:06 0.1 C 4.59 g/m*3 0.1 C 0 km/h
1121 01-01-2010 08:17:06 0.2 C 4.62 g/m*3 0.2 C 0 km/h
1122 01-01-2010 08:29:06 0.1 C 4.59 g/m*3 0.1 C 0 km/h
1123 01-01-2010 08:41:06 0.1 C 4.59 g/m*3 0.1 C 0 km/h
1124 01-01-2010 08:53:06 0.1 C 4.59 g/m*3 0.1 C 0 km/h
1125 01-01-2010 09:05:06 0.1 C 4.59 g/m*3 0.1 C 0 km/h
Sensor: Nr:Datum:Temp:Abs-Feuchte:Windchill:Wind:
Aussen-T/F 1126 01-01-2010 09:17:06 -0.1 C 4.52 g/m*3 -0.1 C 0 km/h
1127 01-01-2010 09:29:06 -0.1 C 4.52 g/m*3 -0.1 C 0 km/h
1128 01-01-2010 09:41:06 -0.1 C 4.52 g/m*3 -0.1 C 0 km/h
1129 01-01-2010 09:53:06 -0.1 C 4.52 g/m*3 -0.1 C 0 km/h
1130 01-01-2010 10:05:06 -0.1 C 4.52 g/m*3 -0.1 C 0 km/h
1131 01-01-2010 10:17:06 -0.1 C 4.52 g/m*3 -0.1 C 0 km/h
1132 01-01-2010 10:29:06 -0.1 C 4.52 g/m*3 -0.1 C 0 km/h
1133 01-01-2010 10:41:06 -0.2 C 4.49 g/m*3 -0.2 C 0 km/h
1134 01-01-2010 10:53:06 -0.2 C 4.44 g/m*3 -0.2 C 0 km/h
1135 01-01-2010 11:05:06 -0.1 C 4.47 g/m*3 -0.1 C 0 km/h
1136 01-01-2010 11:17:06 -0.2 C 4.4 g/m*3 -0.2 C 0 km/h
1137 01-01-2010 11:29:06 -0.1 C 4.43 g/m*3 -0.1 C 0 km/h
1138 01-01-2010 11:41:06 -0.2 C 4.4 g/m*3 -0.2 C 0 km/h
1139 01-01-2010 11:53:06 -0.2 C 4.4 g/m*3 -0.2 C 0 km/h
1140 01-01-2010 12:05:06 -0.1 C 4.43 g/m*3 -0.1 C 0 km/h
1141 01-01-2010 12:17:07 -0.2 C 4.35 g/m*3 -0.2 C 0 km/h
1142 01-01-2010 12:29:07 -0.2 C 4.35 g/m*3 -0.2 C 0 km/h
1143 01-01-2010 12:41:07 -0.2 C 4.3 g/m*3 -0.2 C 0 km/h
1144 01-01-2010 12:53:07 -0.2 C 4.3 g/m*3 -0.2 C 0 km/h
1145 01-01-2010 13:05:07 -0.2 C 4.3 g/m*3 -0.2 C 0 km/h
1146 01-01-2010 13:17:07 -0.3 C 4.27 g/m*3 -0.3 C 0 km/h
1147 01-01-2010 13:29:07 -0.3 C 4.27 g/m*3 -0.3 C 0 km/h
1148 01-01-2010 13:41:07 -0.3 C 4.27 g/m*3 -0.3 C 0 km/h
1149 01-01-2010 13:53:07 -0.3 C 4.27 g/m*3 -0.3 C 0 km/h
1150 01-01-2010 14:05:07 -0.3 C 4.27 g/m*3 -0.3 C 0 km/h
Sensor: Nr:Datum:Temp:Abs-Feuchte:Windchill:Wind:
Aussen-T/F 1151 01-01-2010 14:17:07 -0.3 C 4.22 g/m*3 -0.3 C 0 km/h
1152 01-01-2010 14:29:07 -0.2 C 4.3 g/m*3 -0.2 C 0 km/h
1153 01-01-2010 14:41:07 -0.2 C 4.3 g/m*3 -0.2 C 0 km/h
1154 01-01-2010 14:53:07 -0.2 C 4.3 g/m*3 -0.2 C 0 km/h
1155 01-01-2010 15:05:07 -0.2 C 4.3 g/m*3 -0.2 C 0 km/h
1156 01-01-2010 15:17:07 -0.2 C 4.25 g/m*3 -0.2 C 0 km/h
1157 01-01-2010 15:29:07 -0.2 C 4.25 g/m*3 -0.2 C 0 km/h
1158 01-01-2010 15:41:07 -0.2 C 4.25 g/m*3 -0.2 C 0 km/h
1159 01-01-2010 15:53:02 -0.2 C 4.25 g/m*3 -0.2 C 0 km/h
1160 01-01-2010 16:05:01 -0.2 C 4.3 g/m*3 -0.2 C 0 km/h
1161 01-01-2010 16:17:02 -0.3 C 4.27 g/m*3 -0.3 C 0 km/h
1162 01-01-2010 16:29:02 -0.3 C 4.27 g/m*3 -0.3 C 0 km/h
1163 01-01-2010 16:41:01 -0.3 C 4.32 g/m*3 -0.3 C 0 km/h
1164 01-01-2010 16:53:02 -0.3 C 4.32 g/m*3 -0.3 C 0 km/h
1165 01-01-2010 17:05:01 -0.4 C 4.29 g/m*3 -0.4 C 0 km/h
1166 01-01-2010 17:17:01 -0.4 C 4.29 g/m*3 -0.4 C 0 km/h
1167 01-01-2010 17:29:01 -0.5 C 4.26 g/m*3 -0.5 C 0 km/h
1168 01-01-2010 17:41:02 -0.5 C 4.26 g/m*3 -0.5 C 0 km/h
1169 01-01-2010 17:53:02 -0.5 C 4.26 g/m*3 -0.5 C 0 km/h
1170 01-01-2010 18:05:03 -0.5 C 4.26 g/m*3 -0.5 C 0 km/h
1171 01-01-2010 18:17:02 -0.6 C 4.23 g/m*3 -0.6 C 0 km/h
1172 01-01-2010 18:29:02 -0.6 C 4.23 g/m*3 -0.6 C 0 km/h
1173 01-01-2010 18:41:02 -0.7 C 4.2 g/m*3 -0.7 C 0 km/h
1174 01-01-2010 18:53:01 -0.8 C 4.22 g/m*3 -0.8 C 0 km/h
1175 01-01-2010 19:05:02 -0.8 C 4.17 g/m*3 -0.8 C 0 km/h
Sensor: Nr:Datum:Temp:Abs-Feuchte:Windchill:Wind:
Aussen-T/F 1176 01-01-2010 19:17:01 -0.9 C 4.14 g/m*3 -0.9 C 0 km/h
1177 01-01-2010 19:29:01 -0.8 C 4.17 g/m*3 -0.8 C 0 km/h
1178 01-01-2010 19:41:02 -0.8 C 4.13 g/m*3 -0.8 C 0 km/h
1179 01-01-2010 19:53:01 -0.8 C 4.08 g/m*3 -0.8 C 0 km/h
1180 01-01-2010 20:05:02 -0.7 C 4.06 g/m*3 -0.7 C 0 km/h
1181 01-01-2010 20:17:01 -0.7 C 4.02 g/m*3 -0.7 C 0 km/h
1182 01-01-2010 20:29:01 -0.8 C 3.94 g/m*3 -0.8 C 0 km/h
1183 01-01-2010 20:41:02 -0.8 C 3.94 g/m*3 -0.8 C 0 km/h
1184 01-01-2010 20:53:01 -0.8 C 3.9 g/m*3 -0.8 C 0 km/h
1185 01-01-2010 21:05:02 -0.8 C 3.9 g/m*3 -0.8 C 0 km/h
1186 01-01-2010 21:17:02 -0.8 C 3.9 g/m*3 -0.8 C 0 km/h
1187 01-01-2010 21:29:02 -0.8 C 3.9 g/m*3 -0.8 C 0 km/h
1188 01-01-2010 21:41:02 -0.8 C 3.9 g/m*3 -0.8 C 0 km/h
1189 01-01-2010 21:53:02 -0.8 C 3.85 g/m*3 -0.8 C 0 km/h
1190 01-01-2010 22:05:02 -0.8 C 3.85 g/m*3 -0.8 C 0 km/h
1191 01-01-2010 22:17:01 -0.9 C 3.82 g/m*3 -0.9 C 0 km/h
1192 01-01-2010 22:29:01 -0.9 C 3.82 g/m*3 -0.9 C 0 km/h
1193 01-01-2010 22:41:02 -0.9 C 3.82 g/m*3 -0.9 C 0 km/h
1194 01-01-2010 22:53:02 -0.9 C 3.82 g/m*3 -0.9 C 0 km/h
1195 01-01-2010 23:05:02 -1 C 3.84 g/m*3 -1 C 0 km/h
1196 01-01-2010 23:17:02 -1 C 3.84 g/m*3 -1 C 0 km/h
1197 01-01-2010 23:29:02 -1 C 3.84 g/m*3 -1 C 0 km/h
1198 01-01-2010 23:41:02 -1 C 3.84 g/m*3 -1 C 0 km/h
1199 01-01-2010 23:53:01 -1 C 3.84 g/m*3 -1 C 0 km/h
1200 02-01-2010 00:05:02 -1 C 3.8 g/m*3 -1 C 0 km/h
Sensor: Nr:Datum:Temp:Abs-Feuchte:Windchill:Wind:
Aussen-T/F 1201 02-01-2010 00:17:02 -1.1 C 3.73 g/m*3 -1.1 C 0 km/h
1202 02-01-2010 00:29:02 -1.1 C 3.73 g/m*3 -1.1 C 0 km/h
1203 02-01-2010 00:41:02 -1.2 C 3.7 g/m*3 -1.2 C 0 km/h
1204 02-01-2010 00:53:02 -1.2 C 3.7 g/m*3 -1.2 C 0 km/h
1205 02-01-2010 01:05:02 -1.3 C 3.67 g/m*3 -1.3 C 0 km/h
1206 02-01-2010 01:17:02 -1.3 C 3.67 g/m*3 -1.3 C 0 km/h
1207 02-01-2010 01:29:03 -1.4 C 3.6 g/m*3 -1.4 C 0 km/h
1208 02-01-2010 01:41:01 -1.4 C 3.56 g/m*3 -1.4 C 0 km/h
1209 02-01-2010 01:53:02 -1.5 C 3.54 g/m*3 -1.5 C 0 km/h
1210 02-01-2010 02:05:01 -1.6 C 3.47 g/m*3 -1.6 C 0 km/h
1211 02-01-2010 02:17:02 -1.5 C 3.49 g/m*3 -1.5 C 0 km/h
1212 02-01-2010 02:29:02 -1.4 C 3.56 g/m*3 -1.4 C 0 km/h
1213 02-01-2010 02:41:02 -1.4 C 3.56 g/m*3 -1.4 C 0 km/h
1214 02-01-2010 02:54:04 -1.5 C 3.49 g/m*3 -1.5 C 0 km/h
1215 02-01-2010 03:06:04 -1.6 C 3.42 g/m*3 -1.6 C 0 km/h
1216 02-01-2010 03:18:04 -1.7 C 3.36 g/m*3 -1.7 C 0 km/h
1217 02-01-2010 03:30:04 -1.8 C 3.33 g/m*3 -1.8 C 0 km/h
1218 02-01-2010 03:42:02 -1.9 C 3.27 g/m*3 -1.9 C 0 km/h
1219 02-01-2010 03:54:02 -1.9 C 3.27 g/m*3 -1.9 C 0 km/h
1220 02-01-2010 04:06:02 -1.9 C 3.27 g/m*3 -1.9 C 0 km/h
1221 02-01-2010 04:18:02 -2 C 3.25 g/m*3 -2 C 0 km/h
1222 02-01-2010 04:30:03 -2.1 C 3.18 g/m*3 -2.1 C 0 km/h
1223 02-01-2010 04:42:02 -2.2 C 3.16 g/m*3 -2.2 C 0 km/h
1224 02-01-2010 04:54:02 -2.1 C 3.22 g/m*3 -2.1 C 0 km/h
1225 02-01-2010 05:06:01 -2.2 C 3.2 g/m*3 -2.2 C 0 km/h
Sensor: Nr:Datum:Temp:Abs-Feuchte:Windchill:Wind:
Aussen-T/F 1226 02-01-2010 05:18:02 -2.2 C 3.28 g/m*3 -2.2 C 0 km/h
1227 02-01-2010 05:30:02 -2.2 C 3.33 g/m*3 -2.2 C 0 km/h
1228 02-01-2010 05:42:02 -2.2 C 3.37 g/m*3 -2.2 C 0 km/h
1229 02-01-2010 05:54:02 -2.2 C 3.33 g/m*3 -2.2 C 0 km/h
1230 02-01-2010 06:06:03 -2.3 C 3.18 g/m*3 -2.3 C 0 km/h
1231 02-01-2010 06:18:02 -2.2 C 3.16 g/m*3 -2.2 C 0 km/h
1232 02-01-2010 06:30:02 -2.4 C 3.07 g/m*3 -2.4 C 0 km/h
1233 02-01-2010 06:42:02 -2.5 C 3.01 g/m*3 -2.5 C 0 km/h
1234 02-01-2010 06:54:01 -2.5 C 2.89 g/m*3 -2.5 C 0 km/h
1235 02-01-2010 07:06:02 -2.5 C 2.77 g/m*3 -2.5 C 0 km/h
1236 02-01-2010 07:18:01 -2.5 C 2.73 g/m*3 -2.5 C 0 km/h
1237 02-01-2010 07:30:01 -2.6 C 2.71 g/m*3 -2.6 C 0 km/h
1238 02-01-2010 07:42:01 -2.7 C 2.77 g/m*3 -2.7 C 0 km/h
1239 02-01-2010 07:54:01 -2.8 C 2.79 g/m*3 -2.8 C 0 km/h
1240 02-01-2010 08:06:02 -2.8 C 2.79 g/m*3 -2.8 C 0 km/h
1241 02-01-2010 08:18:01 -3.1 C 2.73 g/m*3 -3.1 C 0 km/h
1242 02-01-2010 08:30:01 -3.4 C 2.71 g/m*3 -3.4 C 0 km/h
1243 02-01-2010 08:42:01 -3.6 C 2.75 g/m*3 -3.6 C 0 km/h
1244 02-01-2010 08:54:01 -3.7 C 2.84 g/m*3 -3.7 C 0 km/h
1245 02-01-2010 09:06:01 -3.8 C 2.86 g/m*3 -3.8 C 0 km/h
1246 02-01-2010 09:18:02 -3.9 C 2.87 g/m*3 -3.9 C 0 km/h
1247 02-01-2010 09:30:02 -3.7 C 2.95 g/m*3 -3.7 C 0 km/h
1248 02-01-2010 09:42:01 -3.6 C 2.94 g/m*3 -3.6 C 0 km/h
1249 02-01-2010 09:54:02 -3.7 C 2.88 g/m*3 -3.7 C 0 km/h
1250 02-01-2010 10:06:02 -3.6 C 2.94 g/m*3 -3.6 C 0 km/h
Sensor: Nr:Datum:Temp:Abs-Feuchte:Windchill:Wind:
Aussen-T/F 1251 02-01-2010 10:18:02 -3.4 C 2.98 g/m*3 -3.4 C 0 km/h
1252 02-01-2010 10:30:02 -3.4 C 2.98 g/m*3 -3.4 C 0 km/h
1253 02-01-2010 10:42:02 -3.3 C 3 g/m*3 -3.3 C 0 km/h
1254 02-01-2010 10:54:02 -3.3 C 3 g/m*3 -3.3 C 0 km/h
1255 02-01-2010 11:06:01 -3.2 C 3.02 g/m*3 -3.2 C 0 km/h
1256 02-01-2010 11:18:02 -3.1 C 3.04 g/m*3 -3.1 C 0 km/h
1257 02-01-2010 11:30:03 -2.9 C 3.05 g/m*3 -2.9 C 0 km/h
1258 02-01-2010 11:42:01 -2.8 C 3.07 g/m*3 -2.8 C 0 km/h
1259 02-01-2010 11:54:02 -2.6 C 3.11 g/m*3 -2.6 C 0 km/h
1260 02-01-2010 12:06:02 -2.3 C 3.18 g/m*3 -2.3 C 0 km/h
1261 02-01-2010 12:18:02 -2 C 3.25 g/m*3 -2 C 0 km/h
1262 02-01-2010 12:30:02 -1.9 C 3.23 g/m*3 -1.9 C 0 km/h
1263 02-01-2010 12:42:03 -1.9 C 3.23 g/m*3 -1.9 C 0 km/h
1264 02-01-2010 12:54:02 -1.8 C 3.25 g/m*3 -1.8 C 0 km/h
1265 02-01-2010 13:06:02 -1.8 C 3.25 g/m*3 -1.8 C 0 km/h
1266 02-01-2010 13:18:02 -1.7 C 3.31 g/m*3 -1.7 C 0 km/h
1267 02-01-2010 13:30:02 -1.6 C 3.34 g/m*3 -1.6 C 0 km/h
1268 02-01-2010 13:42:02 -1.6 C 3.38 g/m*3 -1.6 C 0 km/h
1269 02-01-2010 13:54:02 -1.2 C 3.43 g/m*3 -1.2 C 0 km/h
1270 02-01-2010 14:06:02 -0.8 C 3.39 g/m*3 -0.8 C 0 km/h
1271 02-01-2010 14:18:02 -0.8 C 3.35 g/m*3 -0.8 C 0 km/h
1272 02-01-2010 14:30:02 -0.7 C 3.32 g/m*3 -0.7 C 0 km/h
1273 02-01-2010 14:42:02 -0.9 C 3.32 g/m*3 -0.9 C 0 km/h
1274 02-01-2010 14:54:02 -0.9 C 3.32 g/m*3 -0.9 C 0 km/h
1275 02-01-2010 15:06:02 -1.1 C 3.32 g/m*3 -1.1 C 0 km/h
Sensor: Nr:Datum:Temp:Abs-Feuchte:Windchill:Wind:
Aussen-T/F 1276 02-01-2010 15:18:02 -1.3 C 3.32 g/m*3 -1.3 C 0 km/h
1277 02-01-2010 15:30:02 -1.3 C 3.41 g/m*3 -1.3 C 0 km/h
1278 02-01-2010 15:42:02 -1.3 C 3.45 g/m*3 -1.3 C 0 km/h
1279 02-01-2010 15:54:01 -1.1 C 3.55 g/m*3 -1.1 C 0 km/h
1280 02-01-2010 16:06:01 -0.7 C 3.55 g/m*3 -0.7 C 0 km/h
1281 02-01-2010 16:18:02 -0.6 C 3.53 g/m*3 -0.6 C 0 km/h
1282 02-01-2010 16:30:02 -0.5 C 3.51 g/m*3 -0.5 C 0 km/h
1283 02-01-2010 16:42:01 -0.5 C 3.46 g/m*3 -0.5 C 0 km/h
1284 02-01-2010 16:54:01 -0.5 C 3.46 g/m*3 -0.5 C 0 km/h
1285 02-01-2010 17:06:01 -0.5 C 3.46 g/m*3 -0.5 C 0 km/h
1286 02-01-2010 17:18:02 -0.5 C 3.51 g/m*3 -0.5 C 0 km/h
1287 02-01-2010 17:30:02 -0.4 C 3.53 g/m*3 -0.4 C 0 km/h
1288 02-01-2010 17:42:01 -0.4 C 3.53 g/m*3 -0.4 C 0 km/h
1289 02-01-2010 17:54:03 -0.5 C 3.51 g/m*3 -0.5 C 0 km/h
1290 02-01-2010 18:06:02 -0.5 C 3.51 g/m*3 -0.5 C 0 km/h
1291 02-01-2010 18:18:02 -0.4 C 3.53 g/m*3 -0.4 C 0 km/h
1292 02-01-2010 18:30:02 -0.4 C 3.53 g/m*3 -0.4 C 0 km/h
1293 02-01-2010 18:42:02 -0.3 C 3.56 g/m*3 -0.3 C 0 km/h
1294 02-01-2010 18:54:02 -0.2 C 3.58 g/m*3 -0.2 C 0 km/h
1295 02-01-2010 19:06:02 -0.1 C 3.61 g/m*3 -0.1 C 0 km/h
1296 02-01-2010 19:18:02 -0.3 C 3.56 g/m*3 -0.3 C 0 km/h
1297 02-01-2010 19:30:03 -0.1 C 3.61 g/m*3 -0.1 C 0 km/h
1298 02-01-2010 19:42:02 -0.2 C 3.63 g/m*3 -0.2 C 0 km/h
1299 02-01-2010 19:54:02 -0.3 C 3.61 g/m*3 -0.3 C 0 km/h
1300 02-01-2010 20:06:01 -0.2 C 3.63 g/m*3 -0.2 C 0 km/h
Sensor: Nr:Datum:Temp:Abs-Feuchte:Windchill:Wind:
Aussen-T/F 1301 02-01-2010 20:18:02 -0.1 C 3.71 g/m*3 -0.1 C 0 km/h
1302 02-01-2010 20:30:02 -0.1 C 3.71 g/m*3 -0.1 C 0 km/h
1303 02-01-2010 20:42:02 -0.1 C 3.66 g/m*3 -0.1 C 0 km/h
1304 02-01-2010 20:54:01 -0.1 C 3.71 g/m*3 -0.1 C 0 km/h
1305 02-01-2010 21:06:02 -0.1 C 3.71 g/m*3 -0.1 C 0 km/h
1306 02-01-2010 21:18:01 -0.1 C 3.71 g/m*3 -0.1 C 0 km/h
1307 02-01-2010 21:30:01 -0.1 C 3.66 g/m*3 -0.1 C 0 km/h
1308 02-01-2010 21:42:02 -0.1 C 3.66 g/m*3 -0.1 C 0 km/h
1309 02-01-2010 21:54:02 -0.1 C 3.66 g/m*3 -0.1 C 0 km/h
1310 02-01-2010 22:06:01 -0.1 C 3.66 g/m*3 -0.1 C 0 km/h
1311 02-01-2010 22:18:02 -0.1 C 3.66 g/m*3 -0.1 C 0 km/h
1312 02-01-2010 22:30:02 -0.1 C 3.66 g/m*3 -0.1 C 0 km/h
1313 02-01-2010 22:42:02 -0.1 C 3.66 g/m*3 -0.1 C 0 km/h
1314 02-01-2010 22:55:03 -0.3 C 3.61 g/m*3 -0.3 C 0 km/h
1315 02-01-2010 23:07:03 -0.3 C 3.61 g/m*3 -0.3 C 0 km/h
1316 02-01-2010 23:19:03 -0.3 C 3.65 g/m*3 -0.3 C 0 km/h
1317 02-01-2010 23:31:03 -0.3 C 3.65 g/m*3 -0.3 C 0 km/h
1318 02-01-2010 23:43:03 -0.3 C 3.7 g/m*3 -0.3 C 0 km/h
1319 02-01-2010 23:55:03 -0.4 C 3.68 g/m*3 -0.4 C 0 km/h
1320 03-01-2010 00:07:03 -0.5 C 3.65 g/m*3 -0.5 C 0 km/h
1321 03-01-2010 00:19:03 -0.4 C 3.68 g/m*3 -0.4 C 0 km/h
1322 03-01-2010 00:31:03 -0.4 C 3.68 g/m*3 -0.4 C 0 km/h
1323 03-01-2010 00:43:03 -0.4 C 3.68 g/m*3 -0.4 C 0 km/h
1324 03-01-2010 00:55:03 -0.4 C 3.72 g/m*3 -0.4 C 0 km/h
1325 03-01-2010 01:07:03 -0.3 C 3.75 g/m*3 -0.3 C 0 km/h
Sensor: Nr:Datum:Temp:Abs-Feuchte:Windchill:Wind:
Aussen-T/F 1326 03-01-2010 01:19:03 -0.3 C 3.75 g/m*3 -0.3 C 0 km/h
1327 03-01-2010 01:31:03 -0.1 C 3.75 g/m*3 -0.1 C 0 km/h
1328 03-01-2010 01:43:04 -0.1 C 3.75 g/m*3 -0.1 C 0 km/h
1329 03-01-2010 01:55:04 0 C 3.78 g/m*3 0 C 0 km/h
1330 03-01-2010 02:07:04 0.1 C 3.76 g/m*3 0.1 C 0 km/h
1331 03-01-2010 02:19:04 0.1 C 3.76 g/m*3 0.1 C 0 km/h
1332 03-01-2010 02:31:04 0.1 C 3.71 g/m*3 0.1 C 0 km/h
1333 03-01-2010 02:43:04 -0.2 C 3.63 g/m*3 -0.2 C 0 km/h
1334 03-01-2010 02:55:04 -0.4 C 3.58 g/m*3 -0.4 C 0 km/h
1335 03-01-2010 03:07:04 -0.4 C 3.58 g/m*3 -0.4 C 0 km/h
1336 03-01-2010 03:19:04 -0.4 C 3.58 g/m*3 -0.4 C 0 km/h
1337 03-01-2010 03:31:04 -0.7 C 3.51 g/m*3 -0.7 C 0 km/h
1338 03-01-2010 03:43:04 -0.7 C 3.55 g/m*3 -0.7 C 0 km/h
1339 03-01-2010 03:55:04 -0.3 C 3.65 g/m*3 -0.3 C 0 km/h
1340 03-01-2010 04:07:04 0 C 3.92 g/m*3 0 C 0 km/h
1341 03-01-2010 04:19:04 -0.4 C 3.96 g/m*3 -0.4 C 0 km/h
1342 03-01-2010 04:31:04 -0.4 C 4.01 g/m*3 -0.4 C 0 km/h
1343 03-01-2010 04:43:04 -0.3 C 4.03 g/m*3 -0.3 C 0 km/h
1344 03-01-2010 04:55:04 -0.1 C 4.09 g/m*3 -0.1 C 0 km/h
1345 03-01-2010 05:07:04 -0.1 C 4.04 g/m*3 -0.1 C 0 km/h
1346 03-01-2010 05:19:04 0.2 C 4.08 g/m*3 0.2 C 0 km/h
1347 03-01-2010 05:31:04 0.2 C 4.03 g/m*3 0.2 C 0 km/h
1348 03-01-2010 05:43:04 0.3 C 4.06 g/m*3 0.3 C 0 km/h
1349 03-01-2010 05:55:05 0.3 C 4.16 g/m*3 0.3 C 0 km/h
1350 03-01-2010 06:07:05 0.1 C 4.24 g/m*3 0.1 C 0 km/h
Sensor: Nr:Datum:Temp:Abs-Feuchte:Windchill:Wind:
Aussen-T/F 1351 03-01-2010 06:19:05 0 C 4.31 g/m*3 0 C 0 km/h
1352 03-01-2010 06:31:05 -0.1 C 4.33 g/m*3 -0.1 C 0 km/h
1353 03-01-2010 06:43:05 -0.1 C 4.38 g/m*3 -0.1 C 0 km/h
1354 03-01-2010 06:55:05 0 C 4.41 g/m*3 0 C 0 km/h
1355 03-01-2010 07:07:05 0.1 C 4.44 g/m*3 0.1 C 0 km/h
1356 03-01-2010 07:19:05 0.2 C 4.47 g/m*3 0.2 C 0 km/h
1357 03-01-2010 07:31:05 0.3 C 4.45 g/m*3 0.3 C 0 km/h
1358 03-01-2010 07:43:05 0.3 C 4.4 g/m*3 0.3 C 0 km/h
1359 03-01-2010 07:55:05 0.3 C 4.4 g/m*3 0.3 C 0 km/h
1360 03-01-2010 08:07:05 0.3 C 4.45 g/m*3 0.3 C 0 km/h
1361 03-01-2010 08:19:03 0.2 C 4.47 g/m*3 0.2 C 0 km/h
1362 03-01-2010 08:31:03 0.3 C 4.5 g/m*3 0.3 C 0 km/h
1363 03-01-2010 08:43:03 0.3 C 4.5 g/m*3 0.3 C 0 km/h
1364 03-01-2010 08:55:03 0.4 C 4.53 g/m*3 0.4 C 0 km/h
1365 03-01-2010 09:07:02 0.3 C 4.5 g/m*3 0.3 C 0 km/h
1366 03-01-2010 09:19:02 0.3 C 4.55 g/m*3 0.3 C 0 km/h
1367 03-01-2010 09:31:03 0.3 C 4.55 g/m*3 0.3 C 0 km/h
1368 03-01-2010 09:43:03 0.4 C 4.58 g/m*3 0.4 C 0 km/h
1369 03-01-2010 09:55:02 0.4 C 4.58 g/m*3 0.4 C 0 km/h
1370 03-01-2010 10:07:02 0.4 C 4.58 g/m*3 0.4 C 0 km/h
1371 03-01-2010 10:19:02 0.6 C 4.6 g/m*3 0.6 C 0 km/h
1372 03-01-2010 10:31:02 0.6 C 4.49 g/m*3 0.6 C 0 km/h
1373 03-01-2010 10:43:02 0.7 C 4.47 g/m*3 0.7 C 0 km/h
1374 03-01-2010 10:55:02 0.6 C 4.39 g/m*3 0.6 C 0 km/h
1375 03-01-2010 11:07:03 0.5 C 4.31 g/m*3 0.5 C 0 km/h
Sensor: Nr:Datum:Temp:Abs-Feuchte:Windchill:Wind:
Aussen-T/F 1376 03-01-2010 11:19:02 0.4 C 4.18 g/m*3 0.4 C 0 km/h
1377 03-01-2010 11:31:02 0 C 3.97 g/m*3 0 C 0 km/h
1378 03-01-2010 11:43:02 -0.1 C 3.99 g/m*3 -0.1 C 0 km/h
1379 03-01-2010 11:55:02 -0.5 C 3.84 g/m*3 -0.5 C 0 km/h
1380 03-01-2010 12:07:02 -0.8 C 3.76 g/m*3 -0.8 C 0 km/h
1381 03-01-2010 12:19:02 -0.9 C 3.73 g/m*3 -0.9 C 0 km/h
1382 03-01-2010 12:31:01 -1.6 C 3.55 g/m*3 -1.6 C 0 km/h
1383 03-01-2010 12:43:01 -1.6 C 3.55 g/m*3 -1.6 C 0 km/h
1384 03-01-2010 12:55:02 -1.7 C 3.49 g/m*3 -1.7 C 0 km/h
1385 03-01-2010 13:07:02 -2 C 3.41 g/m*3 -2 C 0 km/h
1386 03-01-2010 13:19:01 -2.2 C 3.41 g/m*3 -2.2 C 0 km/h
1387 03-01-2010 13:31:02 -2.2 C 3.41 g/m*3 -2.2 C 0 km/h
1388 03-01-2010 13:43:02 -2.2 C 3.37 g/m*3 -2.2 C 0 km/h
1389 03-01-2010 13:55:02 -2.1 C 3.39 g/m*3 -2.1 C 0 km/h
1390 03-01-2010 14:07:03 -2.2 C 3.33 g/m*3 -2.2 C 0 km/h
1391 03-01-2010 14:19:03 -2.3 C 3.26 g/m*3 -2.3 C 0 km/h
1392 03-01-2010 14:31:02 -2.4 C 3.2 g/m*3 -2.4 C 0 km/h
1393 03-01-2010 14:43:02 -2.5 C 3.17 g/m*3 -2.5 C 0 km/h
1394 03-01-2010 14:55:02 -2.5 C 3.09 g/m*3 -2.5 C 0 km/h
1395 03-01-2010 15:07:03 -2.4 C 3.11 g/m*3 -2.4 C 0 km/h
1396 03-01-2010 15:19:02 -2.7 C 2.97 g/m*3 -2.7 C 0 km/h
1397 03-01-2010 15:31:03 -2.9 C 2.89 g/m*3 -2.9 C 0 km/h
1398 03-01-2010 15:43:03 -2.8 C 2.91 g/m*3 -2.8 C 0 km/h
1399 03-01-2010 15:55:02 -3 C 2.87 g/m*3 -3 C 0 km/h
1400 03-01-2010 16:07:01 -3.3 C 2.77 g/m*3 -3.3 C 0 km/h
Sensor: Nr:Datum:Temp:Abs-Feuchte:Windchill:Wind:
Aussen-T/F 1401 03-01-2010 16:19:02 -3.7 C 2.69 g/m*3 -3.7 C 0 km/h
1402 03-01-2010 16:31:02 -3.9 C 2.69 g/m*3 -3.9 C 0 km/h
1403 03-01-2010 16:43:02 -4.1 C 2.65 g/m*3 -4.1 C 0 km/h
1404 03-01-2010 16:55:02 -4 C 2.67 g/m*3 -4 C 0 km/h
1405 03-01-2010 17:07:01 -4 C 2.71 g/m*3 -4 C 0 km/h
1406 03-01-2010 17:19:01 -4.5 C 2.61 g/m*3 -4.5 C 0 km/h
1407 03-01-2010 17:31:02 -4.6 C 2.63 g/m*3 -4.6 C 0 km/h
1408 03-01-2010 17:43:02 -4.8 C 2.59 g/m*3 -4.8 C 0 km/h
1409 03-01-2010 17:55:02 -4.8 C 2.63 g/m*3 -4.8 C 0 km/h
1410 03-01-2010 18:07:02 -4.6 C 2.7 g/m*3 -4.6 C 0 km/h
1411 03-01-2010 18:19:02 -4.5 C 2.72 g/m*3 -4.5 C 0 km/h
1412 03-01-2010 18:31:02 -4.5 C 2.68 g/m*3 -4.5 C 0 km/h
1413 03-01-2010 18:43:02 -4.5 C 2.68 g/m*3 -4.5 C 0 km/h
1414 03-01-2010 18:55:02 -4.5 C 2.68 g/m*3 -4.5 C 0 km/h
1415 03-01-2010 19:07:02 -4.5 C 2.68 g/m*3 -4.5 C 0 km/h
1416 03-01-2010 19:19:02 -4.4 C 2.74 g/m*3 -4.4 C 0 km/h
1417 03-01-2010 19:31:02 -4.4 C 2.74 g/m*3 -4.4 C 0 km/h
1418 03-01-2010 19:43:02 -4.4 C 2.77 g/m*3 -4.4 C 0 km/h
1419 03-01-2010 19:55:01 -4.4 C 2.77 g/m*3 -4.4 C 0 km/h
1420 03-01-2010 20:07:02 -4.3 C 2.79 g/m*3 -4.3 C 0 km/h
1421 03-01-2010 20:19:01 -4.3 C 2.79 g/m*3 -4.3 C 0 km/h
1422 03-01-2010 20:31:01 -4.3 C 2.79 g/m*3 -4.3 C 0 km/h
1423 03-01-2010 20:43:01 -4.3 C 2.79 g/m*3 -4.3 C 0 km/h
1424 03-01-2010 20:55:01 -4.3 C 2.79 g/m*3 -4.3 C 0 km/h
1425 03-01-2010 21:07:01 -4.2 C 2.85 g/m*3 -4.2 C 0 km/h
Sensor: Nr:Datum:Temp:Abs-Feuchte:Windchill:Wind:
Aussen-T/F 1426 03-01-2010 21:19:02 -4.2 C 2.81 g/m*3 -4.2 C 0 km/h
1427 03-01-2010 21:31:01 -4.3 C 2.76 g/m*3 -4.3 C 0 km/h
1428 03-01-2010 21:43:01 -4.3 C 2.76 g/m*3 -4.3 C 0 km/h
1429 03-01-2010 21:55:01 -4.3 C 2.76 g/m*3 -4.3 C 0 km/h
1430 03-01-2010 22:07:02 -4.4 C 2.74 g/m*3 -4.4 C 0 km/h
1431 03-01-2010 22:19:01 -4.4 C 2.74 g/m*3 -4.4 C 0 km/h
1432 03-01-2010 22:31:01 -4.5 C 2.72 g/m*3 -4.5 C 0 km/h
1433 03-01-2010 22:43:01 -4.5 C 2.75 g/m*3 -4.5 C 0 km/h
1434 03-01-2010 22:56:02 -4.4 C 2.77 g/m*3 -4.4 C 0 km/h
1435 03-01-2010 23:08:02 -4.5 C 2.75 g/m*3 -4.5 C 0 km/h
1436 03-01-2010 23:20:02 -4.5 C 2.75 g/m*3 -4.5 C 0 km/h
1437 03-01-2010 23:32:02 -4.5 C 2.75 g/m*3 -4.5 C 0 km/h
1438 03-01-2010 23:44:02 -4.6 C 2.73 g/m*3 -4.6 C 0 km/h
1439 03-01-2010 23:56:02 -4.6 C 2.73 g/m*3 -4.6 C 0 km/h
1440 04-01-2010 00:08:02 -4.5 C 2.75 g/m*3 -4.5 C 0 km/h
1441 04-01-2010 00:20:02 -4.5 C 2.75 g/m*3 -4.5 C 0 km/h
1442 04-01-2010 00:32:02 -4.3 C 2.83 g/m*3 -4.3 C 0 km/h
1443 04-01-2010 00:44:02 -4.4 C 2.81 g/m*3 -4.4 C 0 km/h
1444 04-01-2010 00:56:02 -4.2 C 2.85 g/m*3 -4.2 C 0 km/h
1445 04-01-2010 01:08:02 -4.4 C 2.77 g/m*3 -4.4 C 0 km/h
1446 04-01-2010 01:20:02 -4.3 C 2.79 g/m*3 -4.3 C 0 km/h
1447 04-01-2010 01:32:02 -4.3 C 2.79 g/m*3 -4.3 C 0 km/h
1448 04-01-2010 01:44:02 -4.4 C 2.77 g/m*3 -4.4 C 0 km/h
1449 04-01-2010 01:56:02 -4.4 C 2.74 g/m*3 -4.4 C 0 km/h
1450 04-01-2010 02:08:02 -4.3 C 2.76 g/m*3 -4.3 C 0 km/h
Sensor: Nr:Datum:Temp:Abs-Feuchte:Windchill:Wind:
Aussen-T/F 1451 04-01-2010 02:20:02 -4.3 C 2.72 g/m*3 -4.3 C 0 km/h
1452 04-01-2010 02:32:03 -4.3 C 2.72 g/m*3 -4.3 C 0 km/h
1453 04-01-2010 02:44:03 -4.3 C 2.72 g/m*3 -4.3 C 0 km/h
1454 04-01-2010 02:56:03 -4.3 C 2.65 g/m*3 -4.3 C 0 km/h
1455 04-01-2010 03:08:03 -4.3 C 2.61 g/m*3 -4.3 C 0 km/h
1456 04-01-2010 03:20:03 -4.3 C 2.58 g/m*3 -4.3 C 0 km/h
1457 04-01-2010 03:32:03 -4.3 C 2.54 g/m*3 -4.3 C 0 km/h
1458 04-01-2010 03:44:03 -4.4 C 2.52 g/m*3 -4.4 C 0 km/h
1459 04-01-2010 03:56:03 -4.4 C 2.52 g/m*3 -4.4 C 0 km/h
1460 04-01-2010 04:08:03 -4.3 C 2.58 g/m*3 -4.3 C 0 km/h
1461 04-01-2010 04:20:03 -4.3 C 2.58 g/m*3 -4.3 C 0 km/h
1462 04-01-2010 04:32:03 -4.3 C 2.58 g/m*3 -4.3 C 0 km/h
1463 04-01-2010 04:44:03 -4.3 C 2.58 g/m*3 -4.3 C 0 km/h
1464 04-01-2010 04:56:03 -4.3 C 2.58 g/m*3 -4.3 C 0 km/h
1465 04-01-2010 05:08:03 -4.2 C 2.63 g/m*3 -4.2 C 0 km/h
1466 04-01-2010 05:20:03 -4.2 C 2.63 g/m*3 -4.2 C 0 km/h
1467 04-01-2010 05:32:03 -4.2 C 2.63 g/m*3 -4.2 C 0 km/h
1468 04-01-2010 05:44:03 -4.4 C 2.56 g/m*3 -4.4 C 0 km/h
1469 04-01-2010 05:56:03 -4.4 C 2.56 g/m*3 -4.4 C 0 km/h
1470 04-01-2010 06:08:03 -4.4 C 2.63 g/m*3 -4.4 C 0 km/h
1471 04-01-2010 06:20:03 -4.4 C 2.67 g/m*3 -4.4 C 0 km/h
1472 04-01-2010 06:32:03 -4.4 C 2.67 g/m*3 -4.4 C 0 km/h
1473 04-01-2010 06:44:03 -4.3 C 2.72 g/m*3 -4.3 C 0 km/h
1474 04-01-2010 06:56:04 -4.3 C 2.72 g/m*3 -4.3 C 0 km/h
1475 04-01-2010 07:08:04 -4.3 C 2.72 g/m*3 -4.3 C 0 km/h
Sensor: Nr:Datum:Temp:Abs-Feuchte:Windchill:Wind:
Aussen-T/F 1476 04-01-2010 07:20:04 -4.4 C 2.67 g/m*3 -4.4 C 0 km/h
1477 04-01-2010 07:32:04 -4.4 C 2.63 g/m*3 -4.4 C 0 km/h
1478 04-01-2010 07:44:04 -4.4 C 2.6 g/m*3 -4.4 C 0 km/h
1479 04-01-2010 07:56:04 -4.4 C 2.6 g/m*3 -4.4 C 0 km/h
1480 04-01-2010 08:08:04 -4.4 C 2.6 g/m*3 -4.4 C 0 km/h
1481 04-01-2010 08:20:04 -4.4 C 2.56 g/m*3 -4.4 C 0 km/h
1482 04-01-2010 08:32:04 -4.4 C 2.56 g/m*3 -4.4 C 0 km/h
1483 04-01-2010 08:44:04 -4.4 C 2.56 g/m*3 -4.4 C 0 km/h
1484 04-01-2010 08:56:04 -4.4 C 2.56 g/m*3 -4.4 C 0 km/h
1485 04-01-2010 09:08:04 -4.3 C 2.58 g/m*3 -4.3 C 0 km/h
1486 04-01-2010 09:20:04 -4.3 C 2.58 g/m*3 -4.3 C 0 km/h
1487 04-01-2010 09:32:04 -4.3 C 2.58 g/m*3 -4.3 C 0 km/h
1488 04-01-2010 09:44:04 -4.2 C 2.56 g/m*3 -4.2 C 0 km/h
1489 04-01-2010 09:56:04 -4.1 C 2.54 g/m*3 -4.1 C 0 km/h
1490 04-01-2010 10:08:02 -4 C 2.56 g/m*3 -4 C 0 km/h
1491 04-01-2010 10:20:03 -4 C 2.56 g/m*3 -4 C 0 km/h
1492 04-01-2010 10:32:02 -3.7 C 2.62 g/m*3 -3.7 C 0 km/h
1493 04-01-2010 10:44:02 -3.6 C 2.56 g/m*3 -3.6 C 0 km/h
1494 04-01-2010 10:56:02 -3.4 C 2.63 g/m*3 -3.4 C 0 km/h
1495 04-01-2010 11:08:02 -3.1 C 2.65 g/m*3 -3.1 C 0 km/h
1496 04-01-2010 11:20:02 -3 C 2.63 g/m*3 -3 C 0 km/h
1497 04-01-2010 11:32:02 -3.1 C 2.54 g/m*3 -3.1 C 0 km/h
1498 04-01-2010 11:44:02 -3.1 C 2.46 g/m*3 -3.1 C 0 km/h
1499 04-01-2010 11:56:02 -3.1 C 2.46 g/m*3 -3.1 C 0 km/h
1500 04-01-2010 12:08:02 -3.2 C 2.4 g/m*3 -3.2 C 0 km/h
Sensor: Nr:Datum:Temp:Abs-Feuchte:Windchill:Wind:
Aussen-T/F 1501 04-01-2010 12:20:02 -3 C 2.4 g/m*3 -3 C 0 km/h
1502 04-01-2010 12:32:02 -3.5 C 2.24 g/m*3 -3.5 C 0 km/h
1503 04-01-2010 12:44:02 -3.7 C 2.21 g/m*3 -3.7 C 0 km/h
1504 04-01-2010 12:56:02 -3.9 C 2.25 g/m*3 -3.9 C 0 km/h
1505 04-01-2010 13:08:02 -4 C 2.27 g/m*3 -4 C 0 km/h
1506 04-01-2010 13:20:02 -4.1 C 2.29 g/m*3 -4.1 C 0 km/h
1507 04-01-2010 13:32:01 -4 C 2.34 g/m*3 -4 C 0 km/h
1508 04-01-2010 13:44:01 -3.8 C 2.41 g/m*3 -3.8 C 0 km/h
1509 04-01-2010 13:56:02 -3.6 C 2.41 g/m*3 -3.6 C 0 km/h
1510 04-01-2010 14:08:01 -3.4 C 2.41 g/m*3 -3.4 C 0 km/h
1511 04-01-2010 14:20:01 -3.2 C 2.4 g/m*3 -3.2 C 0 km/h
1512 04-01-2010 14:32:02 -3.2 C 2.28 g/m*3 -3.2 C 0 km/h
1513 04-01-2010 14:44:02 -3.4 C 2.21 g/m*3 -3.4 C 0 km/h
1514 04-01-2010 14:56:02 -3.7 C 2.21 g/m*3 -3.7 C 0 km/h
1515 04-01-2010 15:08:01 -4 C 2.23 g/m*3 -4 C 0 km/h
1516 04-01-2010 15:20:02 -4.2 C 2.24 g/m*3 -4.2 C 0 km/h
1517 04-01-2010 15:32:02 -4.2 C 2.24 g/m*3 -4.2 C 0 km/h
1518 04-01-2010 15:44:02 -4.3 C 2.18 g/m*3 -4.3 C 0 km/h
1519 04-01-2010 15:56:01 -4.6 C 2.17 g/m*3 -4.6 C 0 km/h
1520 04-01-2010 16:08:02 -4.9 C 2.19 g/m*3 -4.9 C 0 km/h
1521 04-01-2010 16:20:01 -5.2 C 2.18 g/m*3 -5.2 C 0 km/h
1522 04-01-2010 16:32:01 -5.5 C 2.17 g/m*3 -5.5 C 0 km/h
1523 04-01-2010 16:44:01 -5.7 C 2.2 g/m*3 -5.7 C 0 km/h
1524 04-01-2010 16:56:01 -5.9 C 2.17 g/m*3 -5.9 C 0 km/h
1525 04-01-2010 17:08:02 -6.2 C 2.15 g/m*3 -6.2 C 0 km/h
Sensor: Nr:Datum:Temp:Abs-Feuchte:Windchill:Wind:
Aussen-T/F 1526 04-01-2010 17:20:01 -6.3 C 2.17 g/m*3 -6.3 C 0 km/h
1527 04-01-2010 17:32:01 -6.4 C 2.18 g/m*3 -6.4 C 0 km/h
1528 04-01-2010 17:44:01 -6.5 C 2.2 g/m*3 -6.5 C 0 km/h
1529 04-01-2010 17:56:01 -6.5 C 2.2 g/m*3 -6.5 C 0 km/h
1530 04-01-2010 18:08:02 -6.7 C 2.2 g/m*3 -6.7 C 0 km/h
1531 04-01-2010 18:20:01 -6.8 C 2.21 g/m*3 -6.8 C 0 km/h
1532 04-01-2010 18:32:02 -6.9 C 2.19 g/m*3 -6.9 C 0 km/h
1533 04-01-2010 18:44:02 -7 C 2.18 g/m*3 -7 C 0 km/h
1534 04-01-2010 18:56:01 -7.1 C 2.19 g/m*3 -7.1 C 0 km/h
1535 04-01-2010 19:08:02 -7.2 C 2.18 g/m*3 -7.2 C 0 km/h
1536 04-01-2010 19:20:02 -7.3 C 2.19 g/m*3 -7.3 C 0 km/h
1537 04-01-2010 19:32:01 -7.3 C 2.22 g/m*3 -7.3 C 0 km/h
1538 04-01-2010 19:44:01 -7.6 C 2.14 g/m*3 -7.6 C 0 km/h
1539 04-01-2010 19:56:02 -7.7 C 2.15 g/m*3 -7.7 C 0 km/h
1540 04-01-2010 20:08:02 -7.7 C 2.18 g/m*3 -7.7 C 0 km/h
1541 04-01-2010 20:20:02 -7.8 C 2.16 g/m*3 -7.8 C 0 km/h
1542 04-01-2010 20:32:02 -7.9 C 2.15 g/m*3 -7.9 C 0 km/h
1543 04-01-2010 20:44:02 -7.9 C 2.18 g/m*3 -7.9 C 0 km/h
1544 04-01-2010 20:56:02 -8.1 C 2.14 g/m*3 -8.1 C 0 km/h
1545 04-01-2010 21:08:02 -8.4 C 2.1 g/m*3 -8.4 C 0 km/h
1546 04-01-2010 21:20:02 -8.5 C 2.08 g/m*3 -8.5 C 0 km/h
1547 04-01-2010 21:32:02 -8.5 C 2.08 g/m*3 -8.5 C 0 km/h
1548 04-01-2010 21:44:02 -8.6 C 2.09 g/m*3 -8.6 C 0 km/h
1549 04-01-2010 21:56:02 -8.7 C 2.08 g/m*3 -8.7 C 0 km/h
1550 04-01-2010 22:08:02 -8.7 C 2.08 g/m*3 -8.7 C 0 km/h
Sensor: Nr:Datum:Temp:Abs-Feuchte:Windchill:Wind:
Aussen-T/F 1551 04-01-2010 22:20:02 -8.7 C 2.1 g/m*3 -8.7 C 0 km/h
1552 04-01-2010 22:33:03 -8.8 C 2.09 g/m*3 -8.8 C 0 km/h
1553 04-01-2010 22:45:03 -9 C 2.06 g/m*3 -9 C 0 km/h
1554 04-01-2010 22:57:03 -9 C 2.06 g/m*3 -9 C 0 km/h
1555 04-01-2010 23:09:03 -9 C 2.06 g/m*3 -9 C 0 km/h
1556 04-01-2010 23:21:04 -9.2 C 2.03 g/m*3 -9.2 C 0 km/h
1557 04-01-2010 23:33:04 -9.2 C 2.03 g/m*3 -9.2 C 0 km/h
1558 04-01-2010 23:45:04 -9.3 C 2.01 g/m*3 -9.3 C 0 km/h
1559 04-01-2010 23:57:04 -9.4 C 2 g/m*3 -9.4 C 0 km/h
1560 05-01-2010 00:09:04 -9.6 C 1.97 g/m*3 -9.6 C 0 km/h
1561 05-01-2010 00:21:04 -9.5 C 1.98 g/m*3 -9.5 C 0 km/h
1562 05-01-2010 00:33:04 -9.5 C 1.98 g/m*3 -9.5 C 0 km/h
1563 05-01-2010 00:45:04 -9.5 C 2.01 g/m*3 -9.5 C 0 km/h
1564 05-01-2010 00:57:04 -9.7 C 1.98 g/m*3 -9.7 C 0 km/h
1565 05-01-2010 01:09:04 -9.7 C 1.98 g/m*3 -9.7 C 0 km/h
1566 05-01-2010 01:21:04 -9.8 C 1.96 g/m*3 -9.8 C 0 km/h
1567 05-01-2010 01:33:04 -9.8 C 1.96 g/m*3 -9.8 C 0 km/h
1568 05-01-2010 01:45:04 -9.8 C 1.96 g/m*3 -9.8 C 0 km/h
1569 05-01-2010 01:57:04 -9.9 C 1.95 g/m*3 -9.9 C 0 km/h
1570 05-01-2010 02:09:04 -10 C 1.93 g/m*3 -10 C 0 km/h
1571 05-01-2010 02:21:05 -10 C 1.93 g/m*3 -10 C 0 km/h
1572 05-01-2010 02:33:05 -10.1 C 1.92 g/m*3 -10.1 C 0 km/h
1573 05-01-2010 02:45:05 -10.2 C 1.9 g/m*3 -10.2 C 0 km/h
1574 05-01-2010 02:57:05 -10.2 C 1.9 g/m*3 -10.2 C 0 km/h
1575 05-01-2010 03:09:05 -10.1 C 1.92 g/m*3 -10.1 C 0 km/h
Sensor: Nr:Datum:Temp:Abs-Feuchte:Windchill:Wind:
Aussen-T/F 1576 05-01-2010 03:21:05 -10.2 C 1.9 g/m*3 -10.2 C 0 km/h
1577 05-01-2010 03:33:05 -10.3 C 1.89 g/m*3 -10.3 C 0 km/h
1578 05-01-2010 03:45:05 -10.2 C 1.9 g/m*3 -10.2 C 0 km/h
1579 05-01-2010 03:57:05 -10.2 C 1.9 g/m*3 -10.2 C 0 km/h
1580 05-01-2010 04:09:05 -10.2 C 1.9 g/m*3 -10.2 C 0 km/h
1581 05-01-2010 04:21:05 -10.3 C 1.89 g/m*3 -10.3 C 0 km/h
1582 05-01-2010 04:33:05 -10.2 C 1.9 g/m*3 -10.2 C 0 km/h
1583 05-01-2010 04:45:05 -10.1 C 1.92 g/m*3 -10.1 C 0 km/h
1584 05-01-2010 04:57:05 -9.6 C 2.01 g/m*3 -9.6 C 0 km/h
1585 05-01-2010 05:09:05 -9.1 C 2.12 g/m*3 -9.1 C 0 km/h
1586 05-01-2010 05:21:05 -8.7 C 2.18 g/m*3 -8.7 C 0 km/h
1587 05-01-2010 05:33:05 -8.5 C 2.21 g/m*3 -8.5 C 0 km/h
1588 05-01-2010 05:45:05 -8.4 C 2.2 g/m*3 -8.4 C 0 km/h
1589 05-01-2010 05:57:05 -8.2 C 2.24 g/m*3 -8.2 C 0 km/h
1590 05-01-2010 06:09:05 -8 C 2.27 g/m*3 -8 C 0 km/h
1591 05-01-2010 06:21:05 -7.9 C 2.29 g/m*3 -7.9 C 0 km/h
1592 05-01-2010 06:33:06 -7.9 C 2.26 g/m*3 -7.9 C 0 km/h
1593 05-01-2010 06:45:06 -8.2 C 2.18 g/m*3 -8.2 C 0 km/h
1594 05-01-2010 06:57:06 -8.6 C 2.12 g/m*3 -8.6 C 0 km/h
1595 05-01-2010 07:09:06 -8.8 C 2.06 g/m*3 -8.8 C 0 km/h
1596 05-01-2010 07:21:06 -8.9 C 2.05 g/m*3 -8.9 C 0 km/h
1597 05-01-2010 07:33:06 -8.9 C 2.07 g/m*3 -8.9 C 0 km/h
1598 05-01-2010 07:45:06 -8.9 C 2.07 g/m*3 -8.9 C 0 km/h
1599 05-01-2010 07:57:06 -8.9 C 2.07 g/m*3 -8.9 C 0 km/h
1600 05-01-2010 08:09:06 -8.9 C 2.07 g/m*3 -8.9 C 0 km/h
Sensor: Nr:Datum:Temp:Abs-Feuchte:Windchill:Wind:
Aussen-T/F 1601 05-01-2010 08:21:06 -9 C 2.06 g/m*3 -9 C 0 km/h
1602 05-01-2010 08:33:03 -9 C 2.06 g/m*3 -9 C 0 km/h
1603 05-01-2010 08:45:02 -9 C 2.06 g/m*3 -9 C 0 km/h
1604 05-01-2010 08:57:02 -9 C 2.06 g/m*3 -9 C 0 km/h
1605 05-01-2010 09:09:02 -9 C 2.06 g/m*3 -9 C 0 km/h
1606 05-01-2010 09:21:02 -9 C 2.06 g/m*3 -9 C 0 km/h
1607 05-01-2010 09:33:02 -9 C 2.06 g/m*3 -9 C 0 km/h
1608 05-01-2010 09:45:01 -8.9 C 2.07 g/m*3 -8.9 C 0 km/h
1609 05-01-2010 09:57:01 -8.9 C 2.07 g/m*3 -8.9 C 0 km/h
1610 05-01-2010 10:09:02 -8.6 C 2.14 g/m*3 -8.6 C 0 km/h
1611 05-01-2010 10:21:01 -8.4 C 2.18 g/m*3 -8.4 C 0 km/h
1612 05-01-2010 10:33:01 -8.4 C 2.15 g/m*3 -8.4 C 0 km/h
1613 05-01-2010 10:45:01 -8.3 C 2.17 g/m*3 -8.3 C 0 km/h
1614 05-01-2010 10:57:01 -8.3 C 2.17 g/m*3 -8.3 C 0 km/h
1615 05-01-2010 11:09:01 -8.2 C 2.18 g/m*3 -8.2 C 0 km/h
1616 05-01-2010 11:21:02 -8 C 2.22 g/m*3 -8 C 0 km/h
1617 05-01-2010 11:33:01 -7.9 C 2.23 g/m*3 -7.9 C 0 km/h
1618 05-01-2010 11:45:01 -7.8 C 2.25 g/m*3 -7.8 C 0 km/h
1619 05-01-2010 11:57:01 -7.7 C 2.26 g/m*3 -7.7 C 0 km/h
1620 05-01-2010 12:09:01 -7.5 C 2.3 g/m*3 -7.5 C 0 km/h
1621 05-01-2010 12:21:02 -7.3 C 2.33 g/m*3 -7.3 C 0 km/h
1622 05-01-2010 12:33:01 -7.2 C 2.35 g/m*3 -7.2 C 0 km/h
1623 05-01-2010 12:45:03 -7.1 C 2.37 g/m*3 -7.1 C 0 km/h
1624 05-01-2010 12:57:03 -6.8 C 2.42 g/m*3 -6.8 C 0 km/h
1625 05-01-2010 13:09:02 -6.6 C 2.46 g/m*3 -6.6 C 0 km/h
Sensor: Nr:Datum:Temp:Abs-Feuchte:Windchill:Wind:
Aussen-T/F 1626 05-01-2010 13:21:02 -6.6 C 2.43 g/m*3 -6.6 C 0 km/h
1627 05-01-2010 13:33:02 -6.5 C 2.44 g/m*3 -6.5 C 0 km/h
1628 05-01-2010 13:45:02 -6.4 C 2.46 g/m*3 -6.4 C 0 km/h
1629 05-01-2010 13:57:02 -6.4 C 2.46 g/m*3 -6.4 C 0 km/h
1630 05-01-2010 14:09:02 -6.1 C 2.52 g/m*3 -6.1 C 0 km/h
1631 05-01-2010 14:21:02 -6 C 2.53 g/m*3 -6 C 0 km/h
1632 05-01-2010 14:33:01 -5.9 C 2.52 g/m*3 -5.9 C 0 km/h
1633 05-01-2010 14:45:02 -5.7 C 2.56 g/m*3 -5.7 C 0 km/h
1634 05-01-2010 14:57:02 -5.7 C 2.52 g/m*3 -5.7 C 0 km/h
1635 05-01-2010 15:09:01 -5.6 C 2.54 g/m*3 -5.6 C 0 km/h
1636 05-01-2010 15:21:02 -5.6 C 2.54 g/m*3 -5.6 C 0 km/h
1637 05-01-2010 15:33:01 -5.6 C 2.51 g/m*3 -5.6 C 0 km/h
1638 05-01-2010 15:45:02 -5.6 C 2.51 g/m*3 -5.6 C 0 km/h
1639 05-01-2010 15:57:02 -5.6 C 2.54 g/m*3 -5.6 C 0 km/h
1640 05-01-2010 16:09:02 -5.7 C 2.52 g/m*3 -5.7 C 0 km/h
1641 05-01-2010 16:21:02 -5.7 C 2.52 g/m*3 -5.7 C 0 km/h
1642 05-01-2010 16:33:03 -5.8 C 2.54 g/m*3 -5.8 C 0 km/h
1643 05-01-2010 16:45:04 -6 C 2.5 g/m*3 -6 C 0 km/h
1644 05-01-2010 16:57:04 -6.2 C 2.47 g/m*3 -6.2 C 0 km/h
1645 05-01-2010 17:09:02 -6.3 C 2.45 g/m*3 -6.3 C 0 km/h
1646 05-01-2010 17:21:02 -6.5 C 2.44 g/m*3 -6.5 C 0 km/h
1647 05-01-2010 17:33:01 -6.6 C 2.43 g/m*3 -6.6 C 0 km/h
1648 05-01-2010 17:45:03 -6.8 C 2.39 g/m*3 -6.8 C 0 km/h
1649 05-01-2010 17:57:03 -6.9 C 2.37 g/m*3 -6.9 C 0 km/h
1650 05-01-2010 18:09:03 -7 C 2.38 g/m*3 -7 C 0 km/h
Sensor: Nr:Datum:Temp:Abs-Feuchte:Windchill:Wind:
Aussen-T/F 1651 05-01-2010 18:21:02 -7.1 C 2.37 g/m*3 -7.1 C 0 km/h
1652 05-01-2010 18:33:03 -7.3 C 2.33 g/m*3 -7.3 C 0 km/h
1653 05-01-2010 18:45:02 -7.3 C 2.33 g/m*3 -7.3 C 0 km/h
1654 05-01-2010 18:57:03 -7.4 C 2.34 g/m*3 -7.4 C 0 km/h
1655 05-01-2010 19:09:01 -7.3 C 2.36 g/m*3 -7.3 C 0 km/h
1656 05-01-2010 19:21:02 -7.2 C 2.38 g/m*3 -7.2 C 0 km/h
1657 05-01-2010 19:33:02 -7.2 C 2.38 g/m*3 -7.2 C 0 km/h
1658 05-01-2010 19:45:02 -7.3 C 2.36 g/m*3 -7.3 C 0 km/h
1659 05-01-2010 19:57:02 -7.4 C 2.34 g/m*3 -7.4 C 0 km/h
1660 05-01-2010 20:09:02 -7.5 C 2.33 g/m*3 -7.5 C 0 km/h
1661 05-01-2010 20:21:04 -7.4 C 2.37 g/m*3 -7.4 C 0 km/h
1662 05-01-2010 20:33:02 -7.4 C 2.37 g/m*3 -7.4 C 0 km/h
1663 05-01-2010 20:45:02 -7 C 2.44 g/m*3 -7 C 0 km/h
1664 05-01-2010 20:57:03 -6.9 C 2.46 g/m*3 -6.9 C 0 km/h
1665 05-01-2010 21:09:01 -6.9 C 2.46 g/m*3 -6.9 C 0 km/h
1666 05-01-2010 21:21:02 -6.9 C 2.46 g/m*3 -6.9 C 0 km/h
1667 05-01-2010 21:33:02 -7.1 C 2.43 g/m*3 -7.1 C 0 km/h
1668 05-01-2010 21:45:01 -7.3 C 2.39 g/m*3 -7.3 C 0 km/h
1669 05-01-2010 21:57:02 -7.3 C 2.39 g/m*3 -7.3 C 0 km/h
1670 05-01-2010 22:09:02 -7.5 C 2.33 g/m*3 -7.5 C 0 km/h
1671 05-01-2010 22:21:02 -7.7 C 2.29 g/m*3 -7.7 C 0 km/h
1672 05-01-2010 22:33:01 -7.8 C 2.28 g/m*3 -7.8 C 0 km/h
1673 05-01-2010 22:45:02 -7.9 C 2.26 g/m*3 -7.9 C 0 km/h
1674 05-01-2010 22:57:02 -7.9 C 2.26 g/m*3 -7.9 C 0 km/h
1675 05-01-2010 23:09:02 -8 C 2.27 g/m*3 -8 C 0 km/h
Sensor: Nr:Datum:Temp:Abs-Feuchte:Windchill:Wind:
Aussen-T/F 1676 05-01-2010 23:21:02 -8.2 C 2.21 g/m*3 -8.2 C 0 km/h
1677 05-01-2010 23:34:04 -8.2 C 2.24 g/m*3 -8.2 C 0 km/h
1678 05-01-2010 23:46:04 -8.2 C 2.24 g/m*3 -8.2 C 0 km/h
1679 05-01-2010 23:58:04 -8.3 C 2.22 g/m*3 -8.3 C 0 km/h
1680 06-01-2010 00:10:04 -8.4 C 2.2 g/m*3 -8.4 C 0 km/h
1681 06-01-2010 00:22:04 -8.5 C 2.16 g/m*3 -8.5 C 0 km/h
1682 06-01-2010 00:34:04 -8.6 C 2.17 g/m*3 -8.6 C 0 km/h
1683 06-01-2010 00:46:04 -8.6 C 2.17 g/m*3 -8.6 C 0 km/h
1684 06-01-2010 00:58:04 -8.7 C 2.15 g/m*3 -8.7 C 0 km/h
1685 06-01-2010 01:10:04 -8.9 C 2.12 g/m*3 -8.9 C 0 km/h
1686 06-01-2010 01:22:04 -8.9 C 2.12 g/m*3 -8.9 C 0 km/h
1687 06-01-2010 01:34:05 -9 C 2.11 g/m*3 -9 C 0 km/h
1688 06-01-2010 01:46:05 -9.1 C 2.09 g/m*3 -9.1 C 0 km/h
1689 06-01-2010 01:58:05 -9.2 C 2.08 g/m*3 -9.2 C 0 km/h
1690 06-01-2010 02:10:05 -9.2 C 2.08 g/m*3 -9.2 C 0 km/h
1691 06-01-2010 02:22:05 -9.3 C 2.06 g/m*3 -9.3 C 0 km/h
1692 06-01-2010 02:34:05 -9.4 C 2.05 g/m*3 -9.4 C 0 km/h
1693 06-01-2010 02:46:05 -9.4 C 2.05 g/m*3 -9.4 C 0 km/h
1694 06-01-2010 02:58:05 -9.4 C 2.05 g/m*3 -9.4 C 0 km/h
1695 06-01-2010 03:10:05 -9.4 C 2.05 g/m*3 -9.4 C 0 km/h
1696 06-01-2010 03:22:05 -9.4 C 2.05 g/m*3 -9.4 C 0 km/h
1697 06-01-2010 03:34:05 -9.5 C 2.03 g/m*3 -9.5 C 0 km/h
1698 06-01-2010 03:46:05 -9.6 C 1.99 g/m*3 -9.6 C 0 km/h
1699 06-01-2010 03:58:05 -9.6 C 1.99 g/m*3 -9.6 C 0 km/h
1700 06-01-2010 04:10:05 -9.7 C 1.98 g/m*3 -9.7 C 0 km/h
Sensor: Nr:Datum:Temp:Abs-Feuchte:Windchill:Wind:
Aussen-T/F 1701 06-01-2010 04:22:05 -9.8 C 1.96 g/m*3 -9.8 C 0 km/h
1702 06-01-2010 04:34:05 -9.7 C 1.98 g/m*3 -9.7 C 0 km/h
1703 06-01-2010 04:46:05 -9.8 C 1.96 g/m*3 -9.8 C 0 km/h
1704 06-01-2010 04:58:05 -9.8 C 1.96 g/m*3 -9.8 C 0 km/h
1705 06-01-2010 05:10:05 -9.8 C 1.96 g/m*3 -9.8 C 0 km/h
1706 06-01-2010 05:22:05 -9.8 C 1.96 g/m*3 -9.8 C 0 km/h
1707 06-01-2010 05:34:05 -9.9 C 1.95 g/m*3 -9.9 C 0 km/h
1708 06-01-2010 05:46:06 -10 C 1.93 g/m*3 -10 C 0 km/h
1709 06-01-2010 05:58:06 -10 C 1.93 g/m*3 -10 C 0 km/h
1710 06-01-2010 06:10:06 -10 C 1.93 g/m*3 -10 C 0 km/h
1711 06-01-2010 06:22:06 -10 C 1.93 g/m*3 -10 C 0 km/h
1712 06-01-2010 06:34:06 -10 C 1.93 g/m*3 -10 C 0 km/h
1713 06-01-2010 06:46:06 -10.2 C 1.9 g/m*3 -10.2 C 0 km/h
1714 06-01-2010 06:58:06 -10.2 C 1.88 g/m*3 -10.2 C 0 km/h
1715 06-01-2010 07:10:06 -10.3 C 1.87 g/m*3 -10.3 C 0 km/h
1716 06-01-2010 07:22:06 -10.3 C 1.87 g/m*3 -10.3 C 0 km/h
1717 06-01-2010 07:34:06 -10.4 C 1.85 g/m*3 -10.4 C 0 km/h
1718 06-01-2010 07:46:06 -10.4 C 1.85 g/m*3 -10.4 C 0 km/h
1719 06-01-2010 07:58:06 -10.1 C 1.89 g/m*3 -10.1 C 0 km/h
1720 06-01-2010 08:10:04 -9.7 C 1.98 g/m*3 -9.7 C 0 km/h
1721 06-01-2010 08:22:04 -9.5 C 1.98 g/m*3 -9.5 C 0 km/h
1722 06-01-2010 08:34:04 -9.4 C 2 g/m*3 -9.4 C 0 km/h
1723 06-01-2010 08:46:02 -9.3 C 1.99 g/m*3 -9.3 C 0 km/h
1724 06-01-2010 08:58:02 -9.3 C 1.96 g/m*3 -9.3 C 0 km/h
1725 06-01-2010 09:10:02 -9.2 C 1.98 g/m*3 -9.2 C 0 km/h
Sensor: Nr:Datum:Temp:Abs-Feuchte:Windchill:Wind:
Aussen-T/F 1726 06-01-2010 09:22:01 -9.1 C 1.97 g/m*3 -9.1 C 0 km/h
1727 06-01-2010 09:34:02 -8.9 C 2 g/m*3 -8.9 C 0 km/h
1728 06-01-2010 09:46:03 -8.7 C 2.03 g/m*3 -8.7 C 0 km/h
1729 06-01-2010 09:58:03 -8.6 C 2.01 g/m*3 -8.6 C 0 km/h
1730 06-01-2010 10:10:02 -8.3 C 2.06 g/m*3 -8.3 C 0 km/h
1731 06-01-2010 10:22:02 -8.2 C 2.05 g/m*3 -8.2 C 0 km/h
1732 06-01-2010 10:34:02 -8 C 2.08 g/m*3 -8 C 0 km/h
1733 06-01-2010 10:46:02 -7.6 C 2.11 g/m*3 -7.6 C 0 km/h
1734 06-01-2010 10:58:02 -7.3 C 2.13 g/m*3 -7.3 C 0 km/h
1735 06-01-2010 11:10:02 -7.1 C 2.13 g/m*3 -7.1 C 0 km/h
1736 06-01-2010 11:22:02 -6.8 C 2.18 g/m*3 -6.8 C 0 km/h
1737 06-01-2010 11:34:01 -6.8 C 2.18 g/m*3 -6.8 C 0 km/h
1738 06-01-2010 11:46:02 -6.6 C 2.21 g/m*3 -6.6 C 0 km/h
1739 06-01-2010 11:58:02 -6.5 C 2.23 g/m*3 -6.5 C 0 km/h
1740 06-01-2010 12:10:01 -6.3 C 2.26 g/m*3 -6.3 C 0 km/h
1741 06-01-2010 12:22:02 -6.4 C 2.21 g/m*3 -6.4 C 0 km/h
1742 06-01-2010 12:34:01 -6.3 C 2.26 g/m*3 -6.3 C 0 km/h
1743 06-01-2010 12:46:02 -6 C 2.31 g/m*3 -6 C 0 km/h
1744 06-01-2010 12:58:02 -5.8 C 2.35 g/m*3 -5.8 C 0 km/h
1745 06-01-2010 13:10:02 -5.6 C 2.35 g/m*3 -5.6 C 0 km/h
1746 06-01-2010 13:22:02 -5.4 C 2.38 g/m*3 -5.4 C 0 km/h
1747 06-01-2010 13:34:02 -5.3 C 2.4 g/m*3 -5.3 C 0 km/h
1748 06-01-2010 13:46:02 -4.9 C 2.43 g/m*3 -4.9 C 0 km/h
1749 06-01-2010 13:58:02 -4.8 C 2.45 g/m*3 -4.8 C 0 km/h
1750 06-01-2010 14:10:01 -4.5 C 2.54 g/m*3 -4.5 C 0 km/h
Sensor: Nr:Datum:Temp:Abs-Feuchte:Windchill:Wind:
Aussen-T/F 1751 06-01-2010 14:22:02 -4.5 C 2.51 g/m*3 -4.5 C 0 km/h
1752 06-01-2010 14:34:01 -4.4 C 2.49 g/m*3 -4.4 C 0 km/h
1753 06-01-2010 14:46:01 -4.2 C 2.52 g/m*3 -4.2 C 0 km/h
1754 06-01-2010 14:58:01 -4.1 C 2.51 g/m*3 -4.1 C 0 km/h
1755 06-01-2010 15:10:02 -3.9 C 2.54 g/m*3 -3.9 C 0 km/h
1756 06-01-2010 15:22:01 -4 C 2.52 g/m*3 -4 C 0 km/h
1757 06-01-2010 15:34:01 -4 C 2.52 g/m*3 -4 C 0 km/h
1758 06-01-2010 15:46:01 -4 C 2.56 g/m*3 -4 C 0 km/h
1759 06-01-2010 15:58:01 -4 C 2.6 g/m*3 -4 C 0 km/h
1760 06-01-2010 16:10:02 -4 C 2.6 g/m*3 -4 C 0 km/h
1761 06-01-2010 16:22:01 -4.1 C 2.58 g/m*3 -4.1 C 0 km/h
1762 06-01-2010 16:34:02 -4.1 C 2.62 g/m*3 -4.1 C 0 km/h
1763 06-01-2010 16:46:01 -4.2 C 2.6 g/m*3 -4.2 C 0 km/h
1764 06-01-2010 16:58:01 -4.2 C 2.63 g/m*3 -4.2 C 0 km/h
1765 06-01-2010 17:10:02 -4.2 C 2.63 g/m*3 -4.2 C 0 km/h
1766 06-01-2010 17:22:01 -4.3 C 2.61 g/m*3 -4.3 C 0 km/h
1767 06-01-2010 17:34:02 -4.3 C 2.65 g/m*3 -4.3 C 0 km/h
1768 06-01-2010 17:46:01 -4.3 C 2.65 g/m*3 -4.3 C 0 km/h
1769 06-01-2010 17:58:01 -4.3 C 2.69 g/m*3 -4.3 C 0 km/h
1770 06-01-2010 18:10:02 -4.3 C 2.69 g/m*3 -4.3 C 0 km/h
1771 06-01-2010 18:22:01 -4.3 C 2.69 g/m*3 -4.3 C 0 km/h
1772 06-01-2010 18:34:02 -4.4 C 2.67 g/m*3 -4.4 C 0 km/h
1773 06-01-2010 18:46:01 -4.4 C 2.67 g/m*3 -4.4 C 0 km/h
1774 06-01-2010 18:58:01 -4.4 C 2.67 g/m*3 -4.4 C 0 km/h
1775 06-01-2010 19:10:02 -4.4 C 2.67 g/m*3 -4.4 C 0 km/h
Sensor: Nr:Datum:Temp:Abs-Feuchte:Windchill:Wind:
Aussen-T/F 1776 06-01-2010 19:22:01 -4.4 C 2.7 g/m*3 -4.4 C 0 km/h
1777 06-01-2010 19:34:02 -4.4 C 2.7 g/m*3 -4.4 C 0 km/h
1778 06-01-2010 19:46:01 -4.4 C 2.7 g/m*3 -4.4 C 0 km/h
1779 06-01-2010 19:58:01 -4.5 C 2.68 g/m*3 -4.5 C 0 km/h
1780 06-01-2010 20:10:02 -4.4 C 2.74 g/m*3 -4.4 C 0 km/h
1781 06-01-2010 20:22:02 -4.4 C 2.7 g/m*3 -4.4 C 0 km/h
1782 06-01-2010 20:34:01 -4.2 C 2.67 g/m*3 -4.2 C 0 km/h
1783 06-01-2010 20:46:01 -4.2 C 2.63 g/m*3 -4.2 C 0 km/h
1784 06-01-2010 20:58:01 -4.2 C 2.6 g/m*3 -4.2 C 0 km/h
1785 06-01-2010 21:10:01 -4.2 C 2.52 g/m*3 -4.2 C 0 km/h
1786 06-01-2010 21:22:02 -4.3 C 2.47 g/m*3 -4.3 C 0 km/h
1787 06-01-2010 21:34:01 -4.5 C 2.36 g/m*3 -4.5 C 0 km/h
1788 06-01-2010 21:46:03 -4.7 C 2.3 g/m*3 -4.7 C 0 km/h
1789 06-01-2010 21:58:03 -4.8 C 2.28 g/m*3 -4.8 C 0 km/h
1790 06-01-2010 22:10:02 -4.8 C 2.25 g/m*3 -4.8 C 0 km/h
1791 06-01-2010 22:22:02 -4.9 C 2.23 g/m*3 -4.9 C 0 km/h
1792 06-01-2010 22:35:04 -5 C 2.21 g/m*3 -5 C 0 km/h
1793 06-01-2010 22:47:04 -5 C 2.21 g/m*3 -5 C 0 km/h
1794 06-01-2010 22:59:04 -5.2 C 2.22 g/m*3 -5.2 C 0 km/h
1795 06-01-2010 23:11:04 -5.3 C 2.23 g/m*3 -5.3 C 0 km/h
1796 06-01-2010 23:23:04 -5.3 C 2.27 g/m*3 -5.3 C 0 km/h
1797 06-01-2010 23:35:04 -5.3 C 2.3 g/m*3 -5.3 C 0 km/h
1798 06-01-2010 23:47:04 -5.3 C 2.3 g/m*3 -5.3 C 0 km/h
1799 06-01-2010 23:59:04 -5.2 C 2.35 g/m*3 -5.2 C 0 km/h
1800 07-01-2010 00:11:04 -5.2 C 2.35 g/m*3 -5.2 C 0 km/h
Sensor: Nr:Datum:Temp:Abs-Feuchte:Windchill:Wind:
Aussen-T/F 1801 07-01-2010 00:23:04 -5.3 C 2.37 g/m*3 -5.3 C 0 km/h
1802 07-01-2010 00:35:04 -5.3 C 2.37 g/m*3 -5.3 C 0 km/h
1803 07-01-2010 00:47:04 -5.3 C 2.37 g/m*3 -5.3 C 0 km/h
1804 07-01-2010 00:59:04 -5.2 C 2.38 g/m*3 -5.2 C 0 km/h
1805 07-01-2010 01:11:04 -5.1 C 2.4 g/m*3 -5.1 C 0 km/h
1806 07-01-2010 01:23:04 -5.2 C 2.42 g/m*3 -5.2 C 0 km/h
1807 07-01-2010 01:35:04 -5.2 C 2.38 g/m*3 -5.2 C 0 km/h
1808 07-01-2010 01:47:04 -5.1 C 2.4 g/m*3 -5.1 C 0 km/h
1809 07-01-2010 01:59:05 -5.4 C 2.32 g/m*3 -5.4 C 0 km/h
1810 07-01-2010 02:11:05 -5.9 C 2.23 g/m*3 -5.9 C 0 km/h
1811 07-01-2010 02:23:05 -5.8 C 2.31 g/m*3 -5.8 C 0 km/h
1812 07-01-2010 02:35:05 -5.7 C 2.33 g/m*3 -5.7 C 0 km/h
1813 07-01-2010 02:47:05 -5.7 C 2.36 g/m*3 -5.7 C 0 km/h
1814 07-01-2010 02:59:05 -5.9 C 2.3 g/m*3 -5.9 C 0 km/h
1815 07-01-2010 03:11:05 -6.1 C 2.3 g/m*3 -6.1 C 0 km/h
1816 07-01-2010 03:23:05 -6.1 C 2.3 g/m*3 -6.1 C 0 km/h
1817 07-01-2010 03:35:05 -6 C 2.34 g/m*3 -6 C 0 km/h
1818 07-01-2010 03:47:05 -5.8 C 2.41 g/m*3 -5.8 C 0 km/h
1819 07-01-2010 03:59:05 -5.6 C 2.45 g/m*3 -5.6 C 0 km/h
1820 07-01-2010 04:11:05 -5.6 C 2.45 g/m*3 -5.6 C 0 km/h
1821 07-01-2010 04:23:05 -5.6 C 2.45 g/m*3 -5.6 C 0 km/h
1822 07-01-2010 04:35:05 -5.4 C 2.48 g/m*3 -5.4 C 0 km/h
1823 07-01-2010 04:47:05 -5.3 C 2.53 g/m*3 -5.3 C 0 km/h
1824 07-01-2010 04:59:05 -5.2 C 2.55 g/m*3 -5.2 C 0 km/h
1825 07-01-2010 05:11:05 -5.2 C 2.55 g/m*3 -5.2 C 0 km/h
Sensor: Nr:Datum:Temp:Abs-Feuchte:Windchill:Wind:
Aussen-T/F 1826 07-01-2010 05:23:05 -5.2 C 2.55 g/m*3 -5.2 C 0 km/h
1827 07-01-2010 05:35:05 -5.1 C 2.57 g/m*3 -5.1 C 0 km/h
1828 07-01-2010 05:47:05 -5 C 2.59 g/m*3 -5 C 0 km/h
1829 07-01-2010 05:59:05 -5 C 2.59 g/m*3 -5 C 0 km/h
1830 07-01-2010 06:11:05 -5 C 2.59 g/m*3 -5 C 0 km/h
1831 07-01-2010 06:23:06 -4.9 C 2.61 g/m*3 -4.9 C 0 km/h
1832 07-01-2010 06:35:06 -5 C 2.59 g/m*3 -5 C 0 km/h
1833 07-01-2010 06:47:06 -4.9 C 2.61 g/m*3 -4.9 C 0 km/h
1834 07-01-2010 06:59:06 -5 C 2.59 g/m*3 -5 C 0 km/h
1835 07-01-2010 07:11:06 -4.9 C 2.64 g/m*3 -4.9 C 0 km/h
1836 07-01-2010 07:23:06 -5 C 2.62 g/m*3 -5 C 0 km/h
1837 07-01-2010 07:35:06 -5 C 2.62 g/m*3 -5 C 0 km/h
1838 07-01-2010 07:47:06 -5 C 2.62 g/m*3 -5 C 0 km/h
1839 07-01-2010 07:59:06 -4.9 C 2.64 g/m*3 -4.9 C 0 km/h
1840 07-01-2010 08:11:06 -4.8 C 2.69 g/m*3 -4.8 C 0 km/h
1841 07-01-2010 08:23:03 -4.8 C 2.69 g/m*3 -4.8 C 0 km/h
1842 07-01-2010 08:35:04 -4.8 C 2.69 g/m*3 -4.8 C 0 km/h
1843 07-01-2010 08:47:02 -4.7 C 2.71 g/m*3 -4.7 C 0 km/h
1844 07-01-2010 08:59:02 -4.8 C 2.69 g/m*3 -4.8 C 0 km/h
1845 07-01-2010 09:11:02 -4.8 C 2.69 g/m*3 -4.8 C 0 km/h
1846 07-01-2010 09:23:02 -4.6 C 2.77 g/m*3 -4.6 C 0 km/h
1847 07-01-2010 09:35:02 -4.5 C 2.75 g/m*3 -4.5 C 0 km/h
1848 07-01-2010 09:47:02 -4.3 C 2.79 g/m*3 -4.3 C 0 km/h
1849 07-01-2010 09:59:02 -4.1 C 2.83 g/m*3 -4.1 C 0 km/h
1850 07-01-2010 10:11:02 -3.9 C 2.87 g/m*3 -3.9 C 0 km/h
Sensor: Nr:Datum:Temp:Abs-Feuchte:Windchill:Wind:
Aussen-T/F 1851 07-01-2010 10:23:01 -3.7 C 2.92 g/m*3 -3.7 C 0 km/h
1852 07-01-2010 10:35:02 -3.4 C 2.94 g/m*3 -3.4 C 0 km/h
1853 07-01-2010 10:47:02 -3.3 C 2.92 g/m*3 -3.3 C 0 km/h
1854 07-01-2010 10:59:02 -3.2 C 2.87 g/m*3 -3.2 C 0 km/h
1855 07-01-2010 11:11:02 -2.9 C 2.93 g/m*3 -2.9 C 0 km/h
1856 07-01-2010 11:23:01 -2.8 C 2.91 g/m*3 -2.8 C 0 km/h
1857 07-01-2010 11:35:02 -3.1 C 2.81 g/m*3 -3.1 C 0 km/h
1858 07-01-2010 11:47:02 -2.9 C 2.85 g/m*3 -2.9 C 0 km/h
1859 07-01-2010 11:59:02 -2.6 C 2.91 g/m*3 -2.6 C 0 km/h
1860 07-01-2010 12:11:02 -2 C 3.03 g/m*3 -2 C 0 km/h
1861 07-01-2010 12:23:01 -1.6 C 3.08 g/m*3 -1.6 C 0 km/h
1862 07-01-2010 12:35:02 -1.9 C 2.97 g/m*3 -1.9 C 0 km/h
1863 07-01-2010 12:47:01 -2.3 C 2.89 g/m*3 -2.3 C 0 km/h
1864 07-01-2010 12:59:01 -2.1 C 2.97 g/m*3 -2.1 C 0 km/h
1865 07-01-2010 13:11:02 -1.6 C 3.08 g/m*3 -1.6 C 0 km/h
1866 07-01-2010 13:23:02 -1.4 C 3.08 g/m*3 -1.4 C 0 km/h
1867 07-01-2010 13:35:02 -1.2 C 3.12 g/m*3 -1.2 C 0 km/h
1868 07-01-2010 13:47:01 -1.1 C 3.1 g/m*3 -1.1 C 0 km/h
1869 07-01-2010 13:59:01 -1.1 C 3.1 g/m*3 -1.1 C 0 km/h
1870 07-01-2010 14:11:02 -1.1 C 3.05 g/m*3 -1.1 C 0 km/h
1871 07-01-2010 14:23:01 -1.3 C 3.01 g/m*3 -1.3 C 0 km/h
1872 07-01-2010 14:35:02 -1.3 C 3.01 g/m*3 -1.3 C 0 km/h
1873 07-01-2010 14:47:02 -1.4 C 3.03 g/m*3 -1.4 C 0 km/h
1874 07-01-2010 14:59:02 -1.4 C 3.03 g/m*3 -1.4 C 0 km/h
1875 07-01-2010 15:11:02 -1.4 C 3.03 g/m*3 -1.4 C 0 km/h
Sensor: Nr:Datum:Temp:Abs-Feuchte:Windchill:Wind:
Aussen-T/F 1876 07-01-2010 15:23:02 -1.6 C 3.03 g/m*3 -1.6 C 0 km/h
1877 07-01-2010 15:35:02 -1.8 C 2.95 g/m*3 -1.8 C 0 km/h
1878 07-01-2010 15:47:02 -1.8 C 3.04 g/m*3 -1.8 C 0 km/h
1879 07-01-2010 15:59:02 -1.9 C 3.06 g/m*3 -1.9 C 0 km/h
1880 07-01-2010 16:11:03 -2 C 3.03 g/m*3 -2 C 0 km/h
1881 07-01-2010 16:23:02 -2.1 C 3.06 g/m*3 -2.1 C 0 km/h
1882 07-01-2010 16:35:02 -2.2 C 3.08 g/m*3 -2.2 C 0 km/h
1883 07-01-2010 16:47:02 -2.2 C 3.12 g/m*3 -2.2 C 0 km/h
1884 07-01-2010 16:59:02 -2.3 C 3.1 g/m*3 -2.3 C 0 km/h
1885 07-01-2010 17:11:02 -2.4 C 3.11 g/m*3 -2.4 C 0 km/h
1886 07-01-2010 17:23:02 -2.5 C 3.13 g/m*3 -2.5 C 0 km/h
1887 07-01-2010 17:35:02 -2.6 C 3.11 g/m*3 -2.6 C 0 km/h
1888 07-01-2010 17:47:02 -2.7 C 3.13 g/m*3 -2.7 C 0 km/h
1889 07-01-2010 17:59:02 -2.8 C 3.11 g/m*3 -2.8 C 0 km/h
1890 07-01-2010 18:11:02 -3 C 3.06 g/m*3 -3 C 0 km/h
1891 07-01-2010 18:23:01 -3.1 C 3.08 g/m*3 -3.1 C 0 km/h
1892 07-01-2010 18:35:02 -3.1 C 3.08 g/m*3 -3.1 C 0 km/h
1893 07-01-2010 18:47:02 -3.1 C 3.08 g/m*3 -3.1 C 0 km/h
1894 07-01-2010 18:59:02 -3.1 C 3.04 g/m*3 -3.1 C 0 km/h
1895 07-01-2010 19:11:02 -3.1 C 3.04 g/m*3 -3.1 C 0 km/h
1896 07-01-2010 19:23:02 -3.2 C 3.02 g/m*3 -3.2 C 0 km/h
1897 07-01-2010 19:35:02 -3.3 C 3 g/m*3 -3.3 C 0 km/h
1898 07-01-2010 19:47:02 -3.3 C 3.04 g/m*3 -3.3 C 0 km/h
1899 07-01-2010 19:59:02 -3.3 C 3.04 g/m*3 -3.3 C 0 km/h
1900 07-01-2010 20:11:02 -3.5 C 2.99 g/m*3 -3.5 C 0 km/h
Sensor: Nr:Datum:Temp:Abs-Feuchte:Windchill:Wind:
Aussen-T/F 1901 07-01-2010 20:23:02 -3.7 C 2.99 g/m*3 -3.7 C 0 km/h
1902 07-01-2010 20:35:02 -3.5 C 3.03 g/m*3 -3.5 C 0 km/h
1903 07-01-2010 20:47:01 -3.5 C 3.03 g/m*3 -3.5 C 0 km/h
1904 07-01-2010 20:59:01 -3.4 C 3.05 g/m*3 -3.4 C 0 km/h
1905 07-01-2010 21:11:02 -3.3 C 3.08 g/m*3 -3.3 C 0 km/h
1906 07-01-2010 21:23:01 -3.3 C 3.08 g/m*3 -3.3 C 0 km/h
1907 07-01-2010 21:35:01 -3.3 C 3.08 g/m*3 -3.3 C 0 km/h
1908 07-01-2010 21:47:01 -3.3 C 3.04 g/m*3 -3.3 C 0 km/h
1909 07-01-2010 21:59:01 -3.4 C 3.02 g/m*3 -3.4 C 0 km/h
1910 07-01-2010 22:11:01 -3.4 C 3.02 g/m*3 -3.4 C 0 km/h
1911 07-01-2010 22:23:02 -3.4 C 2.98 g/m*3 -3.4 C 0 km/h
1912 07-01-2010 22:35:01 -3.6 C 2.94 g/m*3 -3.6 C 0 km/h
1913 07-01-2010 22:47:02 -3.8 C 2.89 g/m*3 -3.8 C 0 km/h
1914 07-01-2010 22:59:02 -4.1 C 2.83 g/m*3 -4.1 C 0 km/h
1915 07-01-2010 23:11:02 -4.2 C 2.81 g/m*3 -4.2 C 0 km/h
1916 07-01-2010 23:23:02 -4.2 C 2.85 g/m*3 -4.2 C 0 km/h
1917 07-01-2010 23:36:03 -4.3 C 2.83 g/m*3 -4.3 C 0 km/h
1918 07-01-2010 23:48:03 -4.4 C 2.81 g/m*3 -4.4 C 0 km/h
1919 08-01-2010 00:00:03 -4.4 C 2.81 g/m*3 -4.4 C 0 km/h
1920 08-01-2010 00:12:03 -4.2 C 2.89 g/m*3 -4.2 C 0 km/h
1921 08-01-2010 00:24:03 -4.1 C 2.91 g/m*3 -4.1 C 0 km/h
1922 08-01-2010 00:36:03 -4.2 C 2.89 g/m*3 -4.2 C 0 km/h
1923 08-01-2010 00:48:03 -4.3 C 2.86 g/m*3 -4.3 C 0 km/h
1924 08-01-2010 01:00:03 -4.4 C 2.84 g/m*3 -4.4 C 0 km/h
1925 08-01-2010 01:12:03 -4.6 C 2.8 g/m*3 -4.6 C 0 km/h
Sensor: Nr:Datum:Temp:Abs-Feuchte:Windchill:Wind:
Aussen-T/F 1926 08-01-2010 01:24:03 -4.6 C 2.8 g/m*3 -4.6 C 0 km/h
1927 08-01-2010 01:36:04 -4.7 C 2.78 g/m*3 -4.7 C 0 km/h
1928 08-01-2010 01:48:04 -4.8 C 2.76 g/m*3 -4.8 C 0 km/h
1929 08-01-2010 02:00:04 -5 C 2.72 g/m*3 -5 C 0 km/h
1930 08-01-2010 02:12:04 -5.2 C 2.68 g/m*3 -5.2 C 0 km/h
1931 08-01-2010 02:24:04 -5.4 C 2.65 g/m*3 -5.4 C 0 km/h
1932 08-01-2010 02:36:04 -5.5 C 2.63 g/m*3 -5.5 C 0 km/h
1933 08-01-2010 02:48:04 -5.5 C 2.66 g/m*3 -5.5 C 0 km/h
1934 08-01-2010 03:00:04 -5.6 C 2.64 g/m*3 -5.6 C 0 km/h
1935 08-01-2010 03:12:04 -5.6 C 2.67 g/m*3 -5.6 C 0 km/h
1936 08-01-2010 03:24:04 -5.5 C 2.69 g/m*3 -5.5 C 0 km/h
1937 08-01-2010 03:36:04 -5.6 C 2.67 g/m*3 -5.6 C 0 km/h
1938 08-01-2010 03:48:04 -5.5 C 2.69 g/m*3 -5.5 C 0 km/h
1939 08-01-2010 04:00:04 -5.4 C 2.75 g/m*3 -5.4 C 0 km/h
1940 08-01-2010 04:12:04 -5.5 C 2.69 g/m*3 -5.5 C 0 km/h
1941 08-01-2010 04:24:04 -5.5 C 2.69 g/m*3 -5.5 C 0 km/h
1942 08-01-2010 04:36:04 -5.5 C 2.69 g/m*3 -5.5 C 0 km/h
1943 08-01-2010 04:48:04 -5.6 C 2.67 g/m*3 -5.6 C 0 km/h
1944 08-01-2010 05:00:04 -5.8 C 2.64 g/m*3 -5.8 C 0 km/h
1945 08-01-2010 05:12:04 -6 C 2.57 g/m*3 -6 C 0 km/h
1946 08-01-2010 05:24:04 -6.2 C 2.53 g/m*3 -6.2 C 0 km/h
1947 08-01-2010 05:36:04 -6.5 C 2.47 g/m*3 -6.5 C 0 km/h
1948 08-01-2010 05:48:05 -6.6 C 2.49 g/m*3 -6.6 C 0 km/h
1949 08-01-2010 06:00:05 -6.5 C 2.5 g/m*3 -6.5 C 0 km/h
1950 08-01-2010 06:12:05 -6.5 C 2.5 g/m*3 -6.5 C 0 km/h
Sensor: Nr:Datum:Temp:Abs-Feuchte:Windchill:Wind:
Aussen-T/F 1951 08-01-2010 06:24:05 -6.8 C 2.45 g/m*3 -6.8 C 0 km/h
1952 08-01-2010 06:36:05 -7 C 2.41 g/m*3 -7 C 0 km/h
1953 08-01-2010 06:48:05 -7.2 C 2.35 g/m*3 -7.2 C 0 km/h
1954 08-01-2010 07:00:05 -7.5 C 2.3 g/m*3 -7.5 C 0 km/h
1955 08-01-2010 07:12:05 -7.6 C 2.28 g/m*3 -7.6 C 0 km/h
1956 08-01-2010 07:24:05 -7.7 C 2.26 g/m*3 -7.7 C 0 km/h
1957 08-01-2010 07:36:05 -7.6 C 2.31 g/m*3 -7.6 C 0 km/h
1958 08-01-2010 07:48:05 -7.6 C 2.31 g/m*3 -7.6 C 0 km/h
1959 08-01-2010 08:00:05 -7.7 C 2.29 g/m*3 -7.7 C 0 km/h
1960 08-01-2010 08:12:05 -7.9 C 2.23 g/m*3 -7.9 C 0 km/h
1961 08-01-2010 08:24:05 -8 C 2.22 g/m*3 -8 C 0 km/h
1962 08-01-2010 08:36:05 -8.2 C 2.18 g/m*3 -8.2 C 0 km/h
1963 08-01-2010 08:48:05 -8.2 C 2.18 g/m*3 -8.2 C 0 km/h
1964 08-01-2010 09:00:05 -8.2 C 2.18 g/m*3 -8.2 C 0 km/h
1965 08-01-2010 09:12:05 -8.2 C 2.18 g/m*3 -8.2 C 0 km/h
1966 08-01-2010 09:24:05 -8.2 C 2.18 g/m*3 -8.2 C 0 km/h
1967 08-01-2010 09:36:05 -8.2 C 2.18 g/m*3 -8.2 C 0 km/h
1968 08-01-2010 09:48:01 -7.9 C 2.23 g/m*3 -7.9 C 0 km/h
1969 08-01-2010 10:00:01 -7.3 C 2.36 g/m*3 -7.3 C 0 km/h
1970 08-01-2010 10:12:01 -6.7 C 2.47 g/m*3 -6.7 C 0 km/h
1971 08-01-2010 10:24:02 -6.2 C 2.56 g/m*3 -6.2 C 0 km/h
1972 08-01-2010 10:36:01 -6 C 2.53 g/m*3 -6 C 0 km/h
1973 08-01-2010 10:48:02 -5.6 C 2.58 g/m*3 -5.6 C 0 km/h
1974 08-01-2010 11:00:02 -5.6 C 2.48 g/m*3 -5.6 C 0 km/h
1975 08-01-2010 11:12:02 -5.5 C 2.46 g/m*3 -5.5 C 0 km/h
Sensor: Nr:Datum:Temp:Abs-Feuchte:Windchill:Wind:
Aussen-T/F 1976 08-01-2010 11:24:02 -5.2 C 2.48 g/m*3 -5.2 C 0 km/h
1977 08-01-2010 11:36:03 -5 C 2.49 g/m*3 -5 C 0 km/h
1978 08-01-2010 11:48:02 -5 C 2.45 g/m*3 -5 C 0 km/h
1979 08-01-2010 12:00:02 -4.6 C 2.52 g/m*3 -4.6 C 0 km/h
1980 08-01-2010 12:12:01 -4.8 C 2.42 g/m*3 -4.8 C 0 km/h
1981 08-01-2010 12:24:02 -5 C 2.35 g/m*3 -5 C 0 km/h
1982 08-01-2010 12:36:02 -4.9 C 2.37 g/m*3 -4.9 C 0 km/h
1983 08-01-2010 12:48:02 -4.4 C 2.49 g/m*3 -4.4 C 0 km/h
1984 08-01-2010 13:00:02 -4.7 C 2.37 g/m*3 -4.7 C 0 km/h
1985 08-01-2010 13:12:03 -4.8 C 2.35 g/m*3 -4.8 C 0 km/h
1986 08-01-2010 13:24:02 -4.9 C 2.37 g/m*3 -4.9 C 0 km/h
1987 08-01-2010 13:36:02 -4.9 C 2.37 g/m*3 -4.9 C 0 km/h
1988 08-01-2010 13:48:01 -4.9 C 2.4 g/m*3 -4.9 C 0 km/h
1989 08-01-2010 14:00:01 -4.6 C 2.49 g/m*3 -4.6 C 0 km/h
1990 08-01-2010 14:12:02 -4 C 2.6 g/m*3 -4 C 0 km/h
1991 08-01-2010 14:24:01 -3.5 C 2.65 g/m*3 -3.5 C 0 km/h
1992 08-01-2010 14:36:02 -3.3 C 2.65 g/m*3 -3.3 C 0 km/h
1993 08-01-2010 14:48:02 -3.2 C 2.63 g/m*3 -3.2 C 0 km/h
1994 08-01-2010 15:00:02 -3.2 C 2.63 g/m*3 -3.2 C 0 km/h
1995 08-01-2010 15:12:02 -3.2 C 2.63 g/m*3 -3.2 C 0 km/h
1996 08-01-2010 15:24:01 -3.2 C 2.63 g/m*3 -3.2 C 0 km/h
1997 08-01-2010 15:36:02 -3 C 2.71 g/m*3 -3 C 0 km/h
1998 08-01-2010 15:48:02 -2.8 C 2.71 g/m*3 -2.8 C 0 km/h
1999 08-01-2010 16:00:02 -2.7 C 2.65 g/m*3 -2.7 C 0 km/h
2000 08-01-2010 16:12:02 -2.7 C 2.57 g/m*3 -2.7 C 0 km/h
Sensor: Nr:Datum:Temp:Abs-Feuchte:Windchill:Wind:
Aussen-T/F 2001 08-01-2010 16:24:02 -2.7 C 2.53 g/m*3 -2.7 C 0 km/h
2002 08-01-2010 16:36:02 -2.8 C 2.55 g/m*3 -2.8 C 0 km/h
2003 08-01-2010 16:48:02 -2.8 C 2.55 g/m*3 -2.8 C 0 km/h
2004 08-01-2010 17:00:02 -2.8 C 2.55 g/m*3 -2.8 C 0 km/h
2005 08-01-2010 17:12:02 -2.8 C 2.59 g/m*3 -2.8 C 0 km/h
2006 08-01-2010 17:24:02 -2.8 C 2.55 g/m*3 -2.8 C 0 km/h
2007 08-01-2010 17:36:02 -2.8 C 2.55 g/m*3 -2.8 C 0 km/h
2008 08-01-2010 17:48:02 -2.9 C 2.49 g/m*3 -2.9 C 0 km/h
2009 08-01-2010 18:00:02 -3 C 2.51 g/m*3 -3 C 0 km/h
2010 08-01-2010 18:12:02 -3 C 2.51 g/m*3 -3 C 0 km/h
2011 08-01-2010 18:24:02 -3 C 2.47 g/m*3 -3 C 0 km/h
2012 08-01-2010 18:36:01 -3 C 2.44 g/m*3 -3 C 0 km/h
2013 08-01-2010 18:48:02 -3.1 C 2.42 g/m*3 -3.1 C 0 km/h
2014 08-01-2010 19:00:02 -3.1 C 2.42 g/m*3 -3.1 C 0 km/h
2015 08-01-2010 19:12:01 -3.1 C 2.46 g/m*3 -3.1 C 0 km/h
2016 08-01-2010 19:24:02 -3.2 C 2.44 g/m*3 -3.2 C 0 km/h
2017 08-01-2010 19:36:02 -3.3 C 2.38 g/m*3 -3.3 C 0 km/h
2018 08-01-2010 19:48:02 -3.3 C 2.38 g/m*3 -3.3 C 0 km/h
2019 08-01-2010 20:00:03 -3.3 C 2.38 g/m*3 -3.3 C 0 km/h
2020 08-01-2010 20:12:02 -3.3 C 2.38 g/m*3 -3.3 C 0 km/h
2021 08-01-2010 20:24:02 -3.3 C 2.38 g/m*3 -3.3 C 0 km/h
2022 08-01-2010 20:36:03 -3.3 C 2.42 g/m*3 -3.3 C 0 km/h
2023 08-01-2010 20:48:02 -3.3 C 2.42 g/m*3 -3.3 C 0 km/h
2024 08-01-2010 21:00:02 -3.4 C 2.44 g/m*3 -3.4 C 0 km/h
2025 08-01-2010 21:12:02 -3.4 C 2.48 g/m*3 -3.4 C 0 km/h
Sensor: Nr:Datum:Temp:Abs-Feuchte:Windchill:Wind:
Aussen-T/F 2026 08-01-2010 21:24:01 -3.4 C 2.52 g/m*3 -3.4 C 0 km/h
2027 08-01-2010 21:36:02 -3.4 C 2.56 g/m*3 -3.4 C 0 km/h
2028 08-01-2010 21:48:02 -3.5 C 2.62 g/m*3 -3.5 C 0 km/h
2029 08-01-2010 22:00:02 -3.5 C 2.62 g/m*3 -3.5 C 0 km/h
2030 08-01-2010 22:12:02 -3.4 C 2.6 g/m*3 -3.4 C 0 km/h
2031 08-01-2010 22:25:03 -3.4 C 2.56 g/m*3 -3.4 C 0 km/h
2032 08-01-2010 22:37:03 -3.5 C 2.58 g/m*3 -3.5 C 0 km/h
2033 08-01-2010 22:49:03 -3.5 C 2.62 g/m*3 -3.5 C 0 km/h
2034 08-01-2010 23:01:03 -3.6 C 2.63 g/m*3 -3.6 C 0 km/h
2035 08-01-2010 23:13:03 -3.7 C 2.73 g/m*3 -3.7 C 0 km/h
2036 08-01-2010 23:25:03 -3.8 C 2.78 g/m*3 -3.8 C 0 km/h
2037 08-01-2010 23:37:03 -3.8 C 2.82 g/m*3 -3.8 C 0 km/h
2038 08-01-2010 23:49:03 -3.9 C 2.84 g/m*3 -3.9 C 0 km/h
2039 09-01-2010 00:01:03 -3.9 C 2.87 g/m*3 -3.9 C 0 km/h
2040 09-01-2010 00:13:03 -3.9 C 2.87 g/m*3 -3.9 C 0 km/h
2041 09-01-2010 00:25:03 -3.9 C 2.91 g/m*3 -3.9 C 0 km/h
2042 09-01-2010 00:37:03 -3.9 C 2.91 g/m*3 -3.9 C 0 km/h
2043 09-01-2010 00:49:03 -4 C 2.89 g/m*3 -4 C 0 km/h
2044 09-01-2010 01:01:03 -4 C 2.89 g/m*3 -4 C 0 km/h
2045 09-01-2010 01:13:03 -4 C 2.89 g/m*3 -4 C 0 km/h
2046 09-01-2010 01:25:04 -3.9 C 2.91 g/m*3 -3.9 C 0 km/h
2047 09-01-2010 01:37:04 -3.9 C 2.87 g/m*3 -3.9 C 0 km/h
2048 09-01-2010 01:49:04 -3.9 C 2.84 g/m*3 -3.9 C 0 km/h
2049 09-01-2010 02:01:04 -3.9 C 2.76 g/m*3 -3.9 C 0 km/h
2050 09-01-2010 02:13:04 -3.8 C 2.71 g/m*3 -3.8 C 0 km/h
Sensor: Nr:Datum:Temp:Abs-Feuchte:Windchill:Wind:
Aussen-T/F 2051 09-01-2010 02:25:04 -3.8 C 2.63 g/m*3 -3.8 C 0 km/h
2052 09-01-2010 02:37:04 -3.7 C 2.62 g/m*3 -3.7 C 0 km/h
2053 09-01-2010 02:49:04 -3.7 C 2.62 g/m*3 -3.7 C 0 km/h
2054 09-01-2010 03:01:04 -3.7 C 2.58 g/m*3 -3.7 C 0 km/h
2055 09-01-2010 03:13:04 -3.6 C 2.56 g/m*3 -3.6 C 0 km/h
2056 09-01-2010 03:25:04 -3.7 C 2.54 g/m*3 -3.7 C 0 km/h
2057 09-01-2010 03:37:04 -3.8 C 2.56 g/m*3 -3.8 C 0 km/h
2058 09-01-2010 03:49:04 -3.8 C 2.6 g/m*3 -3.8 C 0 km/h
2059 09-01-2010 04:01:04 -3.9 C 2.62 g/m*3 -3.9 C 0 km/h
2060 09-01-2010 04:13:04 -4 C 2.63 g/m*3 -4 C 0 km/h
2061 09-01-2010 04:25:04 -4 C 2.71 g/m*3 -4 C 0 km/h
2062 09-01-2010 04:37:04 -4.1 C 2.76 g/m*3 -4.1 C 0 km/h
2063 09-01-2010 04:49:04 -4.1 C 2.83 g/m*3 -4.1 C 0 km/h
2064 09-01-2010 05:01:04 -4.1 C 2.87 g/m*3 -4.1 C 0 km/h
2065 09-01-2010 05:13:04 -4.1 C 2.91 g/m*3 -4.1 C 0 km/h
2066 09-01-2010 05:25:05 -4.1 C 2.94 g/m*3 -4.1 C 0 km/h
2067 09-01-2010 05:37:05 -4.1 C 2.98 g/m*3 -4.1 C 0 km/h
2068 09-01-2010 05:49:05 -4.1 C 2.98 g/m*3 -4.1 C 0 km/h
2069 09-01-2010 06:01:05 -4.1 C 3.01 g/m*3 -4.1 C 0 km/h
2070 09-01-2010 06:13:05 -4.1 C 3.01 g/m*3 -4.1 C 0 km/h
2071 09-01-2010 06:25:05 -4.1 C 3.05 g/m*3 -4.1 C 0 km/h
2072 09-01-2010 06:37:05 -4 C 3.07 g/m*3 -4 C 0 km/h
2073 09-01-2010 06:49:05 -3.9 C 3.13 g/m*3 -3.9 C 0 km/h
2074 09-01-2010 07:01:05 -3.9 C 3.13 g/m*3 -3.9 C 0 km/h
2075 09-01-2010 07:13:05 -3.8 C 3.15 g/m*3 -3.8 C 0 km/h
Sensor: Nr:Datum:Temp:Abs-Feuchte:Windchill:Wind:
Aussen-T/F 2076 09-01-2010 07:25:03 -3.8 C 3.19 g/m*3 -3.8 C 0 km/h
2077 09-01-2010 07:37:02 -3.7 C 3.21 g/m*3 -3.7 C 0 km/h
2078 09-01-2010 07:49:02 -3.7 C 3.21 g/m*3 -3.7 C 0 km/h
2079 09-01-2010 08:01:01 -3.5 C 3.26 g/m*3 -3.5 C 0 km/h
2080 09-01-2010 08:13:01 -3.5 C 3.26 g/m*3 -3.5 C 0 km/h
2081 09-01-2010 08:25:02 -3.4 C 3.32 g/m*3 -3.4 C 0 km/h
2082 09-01-2010 08:37:01 -3.4 C 3.32 g/m*3 -3.4 C 0 km/h
2083 09-01-2010 08:49:02 -3.3 C 3.35 g/m*3 -3.3 C 0 km/h
2084 09-01-2010 09:01:01 -3.2 C 3.37 g/m*3 -3.2 C 0 km/h
2085 09-01-2010 09:13:01 -3.1 C 3.39 g/m*3 -3.1 C 0 km/h
2086 09-01-2010 09:25:01 -2.9 C 3.48 g/m*3 -2.9 C 0 km/h
2087 09-01-2010 09:37:02 -2.7 C 3.53 g/m*3 -2.7 C 0 km/h
2088 09-01-2010 09:49:02 -2.6 C 3.52 g/m*3 -2.6 C 0 km/h
2089 09-01-2010 10:01:02 -2.5 C 3.54 g/m*3 -2.5 C 0 km/h
2090 09-01-2010 10:13:02 -2.3 C 3.59 g/m*3 -2.3 C 0 km/h
2091 09-01-2010 10:25:02 -2 C 3.67 g/m*3 -2 C 0 km/h
2092 09-01-2010 10:37:02 -1.8 C 3.68 g/m*3 -1.8 C 0 km/h
2093 09-01-2010 10:49:02 -1.7 C 3.66 g/m*3 -1.7 C 0 km/h
2094 09-01-2010 11:01:02 -1.7 C 3.62 g/m*3 -1.7 C 0 km/h
2095 09-01-2010 11:13:02 -1.8 C 3.59 g/m*3 -1.8 C 0 km/h
2096 09-01-2010 11:25:02 -1.8 C 3.59 g/m*3 -1.8 C 0 km/h
2097 09-01-2010 11:37:02 -1.9 C 3.52 g/m*3 -1.9 C 0 km/h
2098 09-01-2010 11:49:01 -2 C 3.41 g/m*3 -2 C 0 km/h
2099 09-01-2010 12:01:01 -1.9 C 3.44 g/m*3 -1.9 C 0 km/h
2100 09-01-2010 12:13:01 -1.9 C 3.44 g/m*3 -1.9 C 0 km/h
Sensor: Nr:Datum:Temp:Abs-Feuchte:Windchill:Wind:
Aussen-T/F 2101 09-01-2010 12:25:01 -2 C 3.37 g/m*3 -2 C 0 km/h
2102 09-01-2010 12:37:01 -2 C 3.29 g/m*3 -2 C 0 km/h
2103 09-01-2010 12:49:01 -1.9 C 3.23 g/m*3 -1.9 C 0 km/h
2104 09-01-2010 13:01:01 -1.9 C 3.14 g/m*3 -1.9 C 0 km/h
2105 09-01-2010 13:13:01 -1.8 C 3.12 g/m*3 -1.8 C 0 km/h
2106 09-01-2010 13:25:02 -1.8 C 3.08 g/m*3 -1.8 C 0 km/h
2107 09-01-2010 13:37:01 -1.7 C 3.06 g/m*3 -1.7 C 0 km/h
2108 09-01-2010 13:49:03 -1.7 C 3.06 g/m*3 -1.7 C 0 km/h
2109 09-01-2010 14:01:02 -1.7 C 3.06 g/m*3 -1.7 C 0 km/h
2110 09-01-2010 14:13:02 -1.7 C 3.06 g/m*3 -1.7 C 0 km/h
2111 09-01-2010 14:25:02 -1.7 C 3.01 g/m*3 -1.7 C 0 km/h
2112 09-01-2010 14:37:02 -1.6 C 3.03 g/m*3 -1.6 C 0 km/h
2113 09-01-2010 14:49:02 -1.7 C 3.01 g/m*3 -1.7 C 0 km/h
2114 09-01-2010 15:01:02 -1.7 C 3.01 g/m*3 -1.7 C 0 km/h
2115 09-01-2010 15:13:02 -1.7 C 2.97 g/m*3 -1.7 C 0 km/h
2116 09-01-2010 15:25:02 -1.7 C 2.97 g/m*3 -1.7 C 0 km/h
2117 09-01-2010 15:37:01 -1.7 C 2.97 g/m*3 -1.7 C 0 km/h
2118 09-01-2010 15:49:02 -1.7 C 2.97 g/m*3 -1.7 C 0 km/h
2119 09-01-2010 16:01:01 -1.7 C 3.01 g/m*3 -1.7 C 0 km/h
2120 09-01-2010 16:13:01 -1.7 C 2.97 g/m*3 -1.7 C 0 km/h
2121 09-01-2010 16:25:02 -1.7 C 2.97 g/m*3 -1.7 C 0 km/h
2122 09-01-2010 16:37:02 -1.8 C 2.99 g/m*3 -1.8 C 0 km/h
2123 09-01-2010 16:49:02 -1.8 C 2.95 g/m*3 -1.8 C 0 km/h
2124 09-01-2010 17:01:02 -1.8 C 2.95 g/m*3 -1.8 C 0 km/h
2125 09-01-2010 17:13:02 -1.8 C 2.95 g/m*3 -1.8 C 0 km/h
Sensor: Nr:Datum:Temp:Abs-Feuchte:Windchill:Wind:
Aussen-T/F 2126 09-01-2010 17:25:02 -1.8 C 2.95 g/m*3 -1.8 C 0 km/h
2127 09-01-2010 17:37:02 -1.8 C 2.95 g/m*3 -1.8 C 0 km/h
2128 09-01-2010 17:49:01 -1.8 C 2.95 g/m*3 -1.8 C 0 km/h
2129 09-01-2010 18:01:02 -1.8 C 2.99 g/m*3 -1.8 C 0 km/h
2130 09-01-2010 18:13:02 -1.9 C 2.97 g/m*3 -1.9 C 0 km/h
2131 09-01-2010 18:25:01 -1.8 C 2.99 g/m*3 -1.8 C 0 km/h
2132 09-01-2010 18:37:01 -1.9 C 3.01 g/m*3 -1.9 C 0 km/h
2133 09-01-2010 18:49:01 -1.9 C 2.97 g/m*3 -1.9 C 0 km/h
2134 09-01-2010 19:01:02 -1.9 C 2.97 g/m*3 -1.9 C 0 km/h
2135 09-01-2010 19:13:02 -1.8 C 2.99 g/m*3 -1.8 C 0 km/h
2136 09-01-2010 19:25:01 -1.9 C 2.97 g/m*3 -1.9 C 0 km/h
2137 09-01-2010 19:37:01 -1.9 C 2.97 g/m*3 -1.9 C 0 km/h
2138 09-01-2010 19:49:01 -1.8 C 2.95 g/m*3 -1.8 C 0 km/h
2139 09-01-2010 20:01:02 -1.8 C 2.95 g/m*3 -1.8 C 0 km/h
2140 09-01-2010 20:13:02 -1.9 C 2.97 g/m*3 -1.9 C 0 km/h
2141 09-01-2010 20:25:02 -1.9 C 2.97 g/m*3 -1.9 C 0 km/h
2142 09-01-2010 20:37:01 -1.9 C 2.97 g/m*3 -1.9 C 0 km/h
2143 09-01-2010 20:49:02 -1.9 C 2.97 g/m*3 -1.9 C 0 km/h
2144 09-01-2010 21:01:01 -1.9 C 2.97 g/m*3 -1.9 C 0 km/h
2145 09-01-2010 21:13:01 -1.9 C 2.97 g/m*3 -1.9 C 0 km/h
2146 09-01-2010 21:25:02 -1.9 C 2.93 g/m*3 -1.9 C 0 km/h
2147 09-01-2010 21:37:01 -2 C 2.95 g/m*3 -2 C 0 km/h
2148 09-01-2010 21:49:03 -1.9 C 2.97 g/m*3 -1.9 C 0 km/h
2149 09-01-2010 22:01:02 -2 C 2.95 g/m*3 -2 C 0 km/h
2150 09-01-2010 22:13:02 -2 C 2.99 g/m*3 -2 C 0 km/h
Sensor: Nr:Datum:Temp:Abs-Feuchte:Windchill:Wind:
Aussen-T/F 2151 09-01-2010 22:26:02 -2 C 2.99 g/m*3 -2 C 0 km/h
2152 09-01-2010 22:38:02 -2 C 2.99 g/m*3 -2 C 0 km/h
2153 09-01-2010 22:50:02 -2 C 3.03 g/m*3 -2 C 0 km/h
2154 09-01-2010 23:02:03 -2 C 3.03 g/m*3 -2 C 0 km/h
2155 09-01-2010 23:14:03 -2 C 3.03 g/m*3 -2 C 0 km/h
2156 09-01-2010 23:26:03 -2 C 3.03 g/m*3 -2 C 0 km/h
2157 09-01-2010 23:38:03 -2.1 C 3.01 g/m*3 -2.1 C 0 km/h
2158 09-01-2010 23:50:03 -2.1 C 3.01 g/m*3 -2.1 C 0 km/h
2159 10-01-2010 00:02:03 -2.1 C 3.01 g/m*3 -2.1 C 0 km/h
2160 10-01-2010 00:14:03 -2.1 C 3.01 g/m*3 -2.1 C 0 km/h
2161 10-01-2010 00:26:03 -2.1 C 3.01 g/m*3 -2.1 C 0 km/h
2162 10-01-2010 00:38:03 -2.1 C 3.01 g/m*3 -2.1 C 0 km/h
2163 10-01-2010 00:50:03 -2.1 C 3.01 g/m*3 -2.1 C 0 km/h
2164 10-01-2010 01:02:03 -2.1 C 3.01 g/m*3 -2.1 C 0 km/h
2165 10-01-2010 01:14:03 -2.2 C 2.99 g/m*3 -2.2 C 0 km/h
2166 10-01-2010 01:26:03 -2.2 C 2.99 g/m*3 -2.2 C 0 km/h
2167 10-01-2010 01:38:03 -2.2 C 2.99 g/m*3 -2.2 C 0 km/h
2168 10-01-2010 01:50:03 -2.2 C 2.99 g/m*3 -2.2 C 0 km/h
2169 10-01-2010 02:02:03 -2.3 C 2.97 g/m*3 -2.3 C 0 km/h
2170 10-01-2010 02:14:03 -2.3 C 3.01 g/m*3 -2.3 C 0 km/h
2171 10-01-2010 02:26:03 -2.4 C 2.99 g/m*3 -2.4 C 0 km/h
2172 10-01-2010 02:38:03 -2.4 C 2.99 g/m*3 -2.4 C 0 km/h
2173 10-01-2010 02:50:03 -2.5 C 3.01 g/m*3 -2.5 C 0 km/h
2174 10-01-2010 03:02:04 -2.4 C 3.03 g/m*3 -2.4 C 0 km/h
2175 10-01-2010 03:14:04 -2.4 C 3.03 g/m*3 -2.4 C 0 km/h
Sensor: Nr:Datum:Temp:Abs-Feuchte:Windchill:Wind:
Aussen-T/F 2176 10-01-2010 03:26:04 -2.5 C 3.01 g/m*3 -2.5 C 0 km/h
2177 10-01-2010 03:38:04 -2.5 C 3.05 g/m*3 -2.5 C 0 km/h
2178 10-01-2010 03:50:04 -2.6 C 3.03 g/m*3 -2.6 C 0 km/h
2179 10-01-2010 04:02:04 -2.6 C 3.03 g/m*3 -2.6 C 0 km/h
2180 10-01-2010 04:14:04 -2.6 C 3.03 g/m*3 -2.6 C 0 km/h
2181 10-01-2010 04:26:04 -2.6 C 3.03 g/m*3 -2.6 C 0 km/h
2182 10-01-2010 04:38:04 -2.6 C 3.07 g/m*3 -2.6 C 0 km/h
2183 10-01-2010 04:50:04 -2.6 C 3.07 g/m*3 -2.6 C 0 km/h
2184 10-01-2010 05:02:04 -2.6 C 3.11 g/m*3 -2.6 C 0 km/h
2185 10-01-2010 05:14:04 -2.6 C 3.15 g/m*3 -2.6 C 0 km/h
2186 10-01-2010 05:26:04 -2.6 C 3.15 g/m*3 -2.6 C 0 km/h
2187 10-01-2010 05:38:04 -2.8 C 3.11 g/m*3 -2.8 C 0 km/h
2188 10-01-2010 05:50:04 -2.8 C 3.15 g/m*3 -2.8 C 0 km/h
2189 10-01-2010 06:02:04 -2.8 C 3.15 g/m*3 -2.8 C 0 km/h
2190 10-01-2010 06:14:04 -2.8 C 3.15 g/m*3 -2.8 C 0 km/h
2191 10-01-2010 06:26:04 -2.8 C 3.19 g/m*3 -2.8 C 0 km/h
2192 10-01-2010 06:38:04 -2.7 C 3.21 g/m*3 -2.7 C 0 km/h
2193 10-01-2010 06:50:04 -2.7 C 3.21 g/m*3 -2.7 C 0 km/h
2194 10-01-2010 07:02:04 -2.8 C 3.19 g/m*3 -2.8 C 0 km/h
2195 10-01-2010 07:14:05 -2.7 C 3.21 g/m*3 -2.7 C 0 km/h
2196 10-01-2010 07:26:05 -2.8 C 3.19 g/m*3 -2.8 C 0 km/h
2197 10-01-2010 07:38:05 -2.9 C 3.2 g/m*3 -2.9 C 0 km/h
2198 10-01-2010 07:50:05 -3 C 3.18 g/m*3 -3 C 0 km/h
2199 10-01-2010 08:02:05 -2.9 C 3.24 g/m*3 -2.9 C 0 km/h
2200 10-01-2010 08:14:05 -2.8 C 3.27 g/m*3 -2.8 C 0 km/h
Sensor: Nr:Datum:Temp:Abs-Feuchte:Windchill:Wind:
Aussen-T/F 2201 10-01-2010 08:26:05 -2.9 C 3.24 g/m*3 -2.9 C 0 km/h
2202 10-01-2010 08:38:05 -3 C 3.22 g/m*3 -3 C 0 km/h
2203 10-01-2010 08:50:05 -2.9 C 3.28 g/m*3 -2.9 C 0 km/h
2204 10-01-2010 09:02:02 -2.8 C 3.31 g/m*3 -2.8 C 0 km/h
2205 10-01-2010 09:14:02 -2.7 C 3.33 g/m*3 -2.7 C 0 km/h
2206 10-01-2010 09:26:02 -2.6 C 3.35 g/m*3 -2.6 C 0 km/h
2207 10-01-2010 09:38:02 -2.6 C 3.35 g/m*3 -2.6 C 0 km/h
2208 10-01-2010 09:50:02 -2.6 C 3.35 g/m*3 -2.6 C 0 km/h
2209 10-01-2010 10:02:02 -2.6 C 3.35 g/m*3 -2.6 C 0 km/h
2210 10-01-2010 10:14:02 -2.4 C 3.4 g/m*3 -2.4 C 0 km/h
2211 10-01-2010 10:26:01 -2.1 C 3.52 g/m*3 -2.1 C 0 km/h
2212 10-01-2010 10:38:02 -1.9 C 3.52 g/m*3 -1.9 C 0 km/h
2213 10-01-2010 10:50:02 -1.8 C 3.55 g/m*3 -1.8 C 0 km/h
2214 10-01-2010 11:02:02 -1.8 C 3.51 g/m*3 -1.8 C 0 km/h
2215 10-01-2010 11:14:02 -1.6 C 3.55 g/m*3 -1.6 C 0 km/h
2216 10-01-2010 11:26:02 -1.7 C 3.49 g/m*3 -1.7 C 0 km/h
2217 10-01-2010 11:38:02 -1.3 C 3.59 g/m*3 -1.3 C 0 km/h
2218 10-01-2010 11:50:02 -1 C 3.62 g/m*3 -1 C 0 km/h
2219 10-01-2010 12:02:02 -0.7 C 3.69 g/m*3 -0.7 C 0 km/h
2220 10-01-2010 12:14:02 -0.6 C 3.67 g/m*3 -0.6 C 0 km/h
2221 10-01-2010 12:26:02 -0.8 C 3.53 g/m*3 -0.8 C 0 km/h
2222 10-01-2010 12:38:02 -0.7 C 3.51 g/m*3 -0.7 C 0 km/h
2223 10-01-2010 12:50:02 -0.6 C 3.49 g/m*3 -0.6 C 0 km/h
2224 10-01-2010 13:02:03 -0.5 C 3.37 g/m*3 -0.5 C 0 km/h
2225 10-01-2010 13:14:03 -0.6 C 3.21 g/m*3 -0.6 C 0 km/h
Sensor: Nr:Datum:Temp:Abs-Feuchte:Windchill:Wind:
Aussen-T/F 2226 10-01-2010 13:26:02 -0.5 C 3.23 g/m*3 -0.5 C 0 km/h
2227 10-01-2010 13:38:03 -0.4 C 3.3 g/m*3 -0.4 C 0 km/h
2228 10-01-2010 13:50:02 -0.4 C 3.3 g/m*3 -0.4 C 0 km/h
2229 10-01-2010 14:02:01 -0.5 C 3.28 g/m*3 -0.5 C 0 km/h
2230 10-01-2010 14:14:01 -0.4 C 3.3 g/m*3 -0.4 C 0 km/h
2231 10-01-2010 14:26:02 -0.4 C 3.35 g/m*3 -0.4 C 0 km/h
2232 10-01-2010 14:38:01 -0.5 C 3.32 g/m*3 -0.5 C 0 km/h
2233 10-01-2010 14:50:02 -0.4 C 3.35 g/m*3 -0.4 C 0 km/h
2234 10-01-2010 15:02:01 -0.4 C 3.35 g/m*3 -0.4 C 0 km/h
2235 10-01-2010 15:14:01 -0.5 C 3.28 g/m*3 -0.5 C 0 km/h
2236 10-01-2010 15:26:01 -0.5 C 3.28 g/m*3 -0.5 C 0 km/h
2237 10-01-2010 15:38:02 -0.6 C 3.3 g/m*3 -0.6 C 0 km/h
2238 10-01-2010 15:50:02 -0.6 C 3.3 g/m*3 -0.6 C 0 km/h
2239 10-01-2010 16:02:01 -0.6 C 3.3 g/m*3 -0.6 C 0 km/h
2240 10-01-2010 16:14:01 -0.8 C 3.3 g/m*3 -0.8 C 0 km/h
2241 10-01-2010 16:26:02 -1 C 3.3 g/m*3 -1 C 0 km/h
2242 10-01-2010 16:38:02 -1.2 C 3.25 g/m*3 -1.2 C 0 km/h
2243 10-01-2010 16:50:02 -1.3 C 3.28 g/m*3 -1.3 C 0 km/h
2244 10-01-2010 17:02:02 -1.5 C 3.23 g/m*3 -1.5 C 0 km/h
2245 10-01-2010 17:14:02 -1.6 C 3.25 g/m*3 -1.6 C 0 km/h
2246 10-01-2010 17:26:01 -1.7 C 3.27 g/m*3 -1.7 C 0 km/h
2247 10-01-2010 17:38:02 -1.8 C 3.25 g/m*3 -1.8 C 0 km/h
2248 10-01-2010 17:50:02 -1.9 C 3.23 g/m*3 -1.9 C 0 km/h
2249 10-01-2010 18:02:02 -1.9 C 3.27 g/m*3 -1.9 C 0 km/h
2250 10-01-2010 18:14:02 -1.8 C 3.29 g/m*3 -1.8 C 0 km/h
Sensor: Nr:Datum:Temp:Abs-Feuchte:Windchill:Wind:
Aussen-T/F 2251 10-01-2010 18:26:02 -1.8 C 3.33 g/m*3 -1.8 C 0 km/h
2252 10-01-2010 18:38:02 -1.8 C 3.33 g/m*3 -1.8 C 0 km/h
2253 10-01-2010 18:50:02 -1.9 C 3.31 g/m*3 -1.9 C 0 km/h
2254 10-01-2010 19:02:02 -1.9 C 3.31 g/m*3 -1.9 C 0 km/h
2255 10-01-2010 19:14:02 -1.8 C 3.38 g/m*3 -1.8 C 0 km/h
2256 10-01-2010 19:26:02 -1.8 C 3.38 g/m*3 -1.8 C 0 km/h
2257 10-01-2010 19:38:02 -1.9 C 3.35 g/m*3 -1.9 C 0 km/h
2258 10-01-2010 19:50:02 -1.9 C 3.35 g/m*3 -1.9 C 0 km/h
2259 10-01-2010 20:02:02 -1.8 C 3.38 g/m*3 -1.8 C 0 km/h
2260 10-01-2010 20:14:02 -1.8 C 3.42 g/m*3 -1.8 C 0 km/h
2261 10-01-2010 20:26:02 -1.8 C 3.42 g/m*3 -1.8 C 0 km/h
2262 10-01-2010 20:38:02 -1.8 C 3.38 g/m*3 -1.8 C 0 km/h
2263 10-01-2010 20:50:01 -1.8 C 3.42 g/m*3 -1.8 C 0 km/h
2264 10-01-2010 21:02:01 -1.8 C 3.42 g/m*3 -1.8 C 0 km/h
2265 10-01-2010 21:14:01 -1.8 C 3.42 g/m*3 -1.8 C 0 km/h
2266 10-01-2010 21:26:02 -1.8 C 3.42 g/m*3 -1.8 C 0 km/h
2267 10-01-2010 21:38:01 -1.8 C 3.42 g/m*3 -1.8 C 0 km/h
2268 10-01-2010 21:50:03 -1.7 C 3.44 g/m*3 -1.7 C 0 km/h
2269 10-01-2010 22:02:02 -1.8 C 3.42 g/m*3 -1.8 C 0 km/h
2270 10-01-2010 22:14:02 -1.8 C 3.42 g/m*3 -1.8 C 0 km/h
2271 10-01-2010 22:26:02 -1.8 C 3.42 g/m*3 -1.8 C 0 km/h
2272 10-01-2010 22:39:03 -1.8 C 3.42 g/m*3 -1.8 C 0 km/h
2273 10-01-2010 22:51:03 -1.8 C 3.42 g/m*3 -1.8 C 0 km/h
2274 10-01-2010 23:03:03 -1.8 C 3.42 g/m*3 -1.8 C 0 km/h
2275 10-01-2010 23:15:03 -1.8 C 3.42 g/m*3 -1.8 C 0 km/h
Sensor: Nr:Datum:Temp:Abs-Feuchte:Windchill:Wind:
Aussen-T/F 2276 10-01-2010 23:27:03 -1.8 C 3.42 g/m*3 -1.8 C 0 km/h
2277 10-01-2010 23:39:03 -1.8 C 3.42 g/m*3 -1.8 C 0 km/h
2278 10-01-2010 23:51:03 -1.8 C 3.42 g/m*3 -1.8 C 0 km/h
2279 11-01-2010 00:03:03 -1.8 C 3.42 g/m*3 -1.8 C 0 km/h
2280 11-01-2010 00:15:03 -1.8 C 3.42 g/m*3 -1.8 C 0 km/h
2281 11-01-2010 00:27:03 -1.8 C 3.42 g/m*3 -1.8 C 0 km/h
2282 11-01-2010 00:39:03 -1.9 C 3.4 g/m*3 -1.9 C 0 km/h
2283 11-01-2010 00:51:03 -1.9 C 3.4 g/m*3 -1.9 C 0 km/h
2284 11-01-2010 01:03:03 -2.1 C 3.35 g/m*3 -2.1 C 0 km/h
2285 11-01-2010 01:15:03 -2.2 C 3.33 g/m*3 -2.2 C 0 km/h
2286 11-01-2010 01:27:03 -2.3 C 3.34 g/m*3 -2.3 C 0 km/h
2287 11-01-2010 01:39:03 -2.2 C 3.37 g/m*3 -2.2 C 0 km/h
2288 11-01-2010 01:51:03 -2.1 C 3.39 g/m*3 -2.1 C 0 km/h
2289 11-01-2010 02:03:03 -2.1 C 3.43 g/m*3 -2.1 C 0 km/h
2290 11-01-2010 02:15:03 -2.1 C 3.43 g/m*3 -2.1 C 0 km/h
2291 11-01-2010 02:27:03 -2.1 C 3.43 g/m*3 -2.1 C 0 km/h
2292 11-01-2010 02:39:04 -2.1 C 3.43 g/m*3 -2.1 C 0 km/h
2293 11-01-2010 02:51:04 -2.1 C 3.47 g/m*3 -2.1 C 0 km/h
2294 11-01-2010 03:03:04 -2.1 C 3.47 g/m*3 -2.1 C 0 km/h
2295 11-01-2010 03:15:04 -2.1 C 3.47 g/m*3 -2.1 C 0 km/h
2296 11-01-2010 03:27:04 -2.1 C 3.52 g/m*3 -2.1 C 0 km/h
2297 11-01-2010 03:39:04 -2.1 C 3.52 g/m*3 -2.1 C 0 km/h
2298 11-01-2010 03:51:04 -2.1 C 3.52 g/m*3 -2.1 C 0 km/h
2299 11-01-2010 04:03:04 -2.1 C 3.52 g/m*3 -2.1 C 0 km/h
2300 11-01-2010 04:15:04 -2 C 3.54 g/m*3 -2 C 0 km/h
Sensor: Nr:Datum:Temp:Abs-Feuchte:Windchill:Wind:
Aussen-T/F 2301 11-01-2010 04:27:04 -2 C 3.54 g/m*3 -2 C 0 km/h
2302 11-01-2010 04:39:04 -2 C 3.5 g/m*3 -2 C 0 km/h
2303 11-01-2010 04:51:04 -2 C 3.5 g/m*3 -2 C 0 km/h
2304 11-01-2010 05:03:04 -2 C 3.5 g/m*3 -2 C 0 km/h
2305 11-01-2010 05:15:04 -2 C 3.5 g/m*3 -2 C 0 km/h
2306 11-01-2010 05:27:04 -2 C 3.5 g/m*3 -2 C 0 km/h
2307 11-01-2010 05:39:04 -2 C 3.5 g/m*3 -2 C 0 km/h
2308 11-01-2010 05:51:04 -1.9 C 3.52 g/m*3 -1.9 C 0 km/h
2309 11-01-2010 06:03:04 -1.9 C 3.52 g/m*3 -1.9 C 0 km/h
2310 11-01-2010 06:15:04 -1.9 C 3.52 g/m*3 -1.9 C 0 km/h
2311 11-01-2010 06:27:04 -1.9 C 3.52 g/m*3 -1.9 C 0 km/h
2312 11-01-2010 06:39:04 -1.9 C 3.52 g/m*3 -1.9 C 0 km/h
2313 11-01-2010 06:51:05 -2 C 3.5 g/m*3 -2 C 0 km/h
2314 11-01-2010 07:03:05 -2 C 3.5 g/m*3 -2 C 0 km/h
2315 11-01-2010 07:15:03 -2 C 3.5 g/m*3 -2 C 0 km/h
2316 11-01-2010 07:27:03 -2 C 3.5 g/m*3 -2 C 0 km/h
2317 11-01-2010 07:39:03 -1.9 C 3.52 g/m*3 -1.9 C 0 km/h
2318 11-01-2010 07:51:02 -1.9 C 3.52 g/m*3 -1.9 C 0 km/h
2319 11-01-2010 08:03:02 -2 C 3.5 g/m*3 -2 C 0 km/h
2320 11-01-2010 08:15:01 -2.1 C 3.47 g/m*3 -2.1 C 0 km/h
2321 11-01-2010 08:27:01 -2.1 C 3.52 g/m*3 -2.1 C 0 km/h
2322 11-01-2010 08:39:02 -2.1 C 3.52 g/m*3 -2.1 C 0 km/h
2323 11-01-2010 08:51:02 -2 C 3.54 g/m*3 -2 C 0 km/h
2324 11-01-2010 09:03:02 -2.1 C 3.52 g/m*3 -2.1 C 0 km/h
2325 11-01-2010 09:15:02 -1.9 C 3.57 g/m*3 -1.9 C 0 km/h
Sensor: Nr:Datum:Temp:Abs-Feuchte:Windchill:Wind:
Aussen-T/F 2326 11-01-2010 09:27:02 -1.9 C 3.57 g/m*3 -1.9 C 0 km/h
2327 11-01-2010 09:39:02 -1.8 C 3.59 g/m*3 -1.8 C 0 km/h
2328 11-01-2010 09:51:02 -1.7 C 3.62 g/m*3 -1.7 C 0 km/h
2329 11-01-2010 10:03:03 -1.5 C 3.67 g/m*3 -1.5 C 0 km/h
2330 11-01-2010 10:15:02 -1.3 C 3.72 g/m*3 -1.3 C 0 km/h
2331 11-01-2010 10:27:02 -1.3 C 3.67 g/m*3 -1.3 C 0 km/h
2332 11-01-2010 10:39:02 -1.2 C 3.7 g/m*3 -1.2 C 0 km/h
2333 11-01-2010 10:51:02 -1 C 3.71 g/m*3 -1 C 0 km/h
2334 11-01-2010 11:03:02 -0.9 C 3.73 g/m*3 -0.9 C 0 km/h
2335 11-01-2010 11:15:02 -0.8 C 3.71 g/m*3 -0.8 C 0 km/h
2336 11-01-2010 11:27:02 -0.6 C 3.72 g/m*3 -0.6 C 0 km/h
2337 11-01-2010 11:39:02 -0.6 C 3.67 g/m*3 -0.6 C 0 km/h
2338 11-01-2010 11:51:02 -0.8 C 3.53 g/m*3 -0.8 C 0 km/h
2339 11-01-2010 12:03:02 -0.6 C 3.53 g/m*3 -0.6 C 0 km/h
2340 11-01-2010 12:15:02 -0.6 C 3.49 g/m*3 -0.6 C 0 km/h
2341 11-01-2010 12:27:02 -0.5 C 3.51 g/m*3 -0.5 C 0 km/h
2342 11-01-2010 12:39:02 -0.6 C 3.44 g/m*3 -0.6 C 0 km/h
2343 11-01-2010 12:51:02 -0.6 C 3.49 g/m*3 -0.6 C 0 km/h
2344 11-01-2010 13:03:02 -0.5 C 3.46 g/m*3 -0.5 C 0 km/h
2345 11-01-2010 13:15:02 -0.4 C 3.49 g/m*3 -0.4 C 0 km/h
2346 11-01-2010 13:27:02 -0.5 C 3.46 g/m*3 -0.5 C 0 km/h
2347 11-01-2010 13:39:01 -0.6 C 3.49 g/m*3 -0.6 C 0 km/h
2348 11-01-2010 13:51:02 -0.6 C 3.49 g/m*3 -0.6 C 0 km/h
2349 11-01-2010 14:03:01 -0.6 C 3.49 g/m*3 -0.6 C 0 km/h
2350 11-01-2010 14:15:02 -0.6 C 3.53 g/m*3 -0.6 C 0 km/h
Sensor: Nr:Datum:Temp:Abs-Feuchte:Windchill:Wind:
Aussen-T/F 2351 11-01-2010 14:27:02 -0.5 C 3.56 g/m*3 -0.5 C 0 km/h
2352 11-01-2010 14:39:01 -0.6 C 3.49 g/m*3 -0.6 C 0 km/h
2353 11-01-2010 14:51:02 -0.7 C 3.51 g/m*3 -0.7 C 0 km/h
2354 11-01-2010 15:03:02 -0.7 C 3.55 g/m*3 -0.7 C 0 km/h
2355 11-01-2010 15:15:02 -0.7 C 3.55 g/m*3 -0.7 C 0 km/h
2356 11-01-2010 15:27:02 -0.8 C 3.58 g/m*3 -0.8 C 0 km/h
2357 11-01-2010 15:39:03 -0.8 C 3.62 g/m*3 -0.8 C 0 km/h
2358 11-01-2010 15:51:02 -0.8 C 3.67 g/m*3 -0.8 C 0 km/h
2359 11-01-2010 16:03:01 -0.8 C 3.71 g/m*3 -0.8 C 0 km/h
2360 11-01-2010 16:15:02 -0.8 C 3.76 g/m*3 -0.8 C 0 km/h
2361 11-01-2010 16:27:02 -0.8 C 3.8 g/m*3 -0.8 C 0 km/h
2362 11-01-2010 16:39:02 -1 C 3.75 g/m*3 -1 C 0 km/h
2363 11-01-2010 16:51:01 -1.1 C 3.77 g/m*3 -1.1 C 0 km/h
2364 11-01-2010 17:03:02 -1.2 C 3.74 g/m*3 -1.2 C 0 km/h
2365 11-01-2010 17:15:01 -1.2 C 3.79 g/m*3 -1.2 C 0 km/h
2366 11-01-2010 17:27:01 -1.1 C 3.82 g/m*3 -1.1 C 0 km/h
2367 11-01-2010 17:39:02 -1.2 C 3.79 g/m*3 -1.2 C 0 km/h
2368 11-01-2010 17:51:02 -1.3 C 3.81 g/m*3 -1.3 C 0 km/h
2369 11-01-2010 18:03:02 -1.3 C 3.81 g/m*3 -1.3 C 0 km/h
2370 11-01-2010 18:15:01 -1.3 C 3.85 g/m*3 -1.3 C 0 km/h
2371 11-01-2010 18:27:01 -1.2 C 3.88 g/m*3 -1.2 C 0 km/h
2372 11-01-2010 18:39:02 -1.3 C 3.85 g/m*3 -1.3 C 0 km/h
2373 11-01-2010 18:51:02 -1.4 C 3.82 g/m*3 -1.4 C 0 km/h
2374 11-01-2010 19:03:02 -1.4 C 3.82 g/m*3 -1.4 C 0 km/h
2375 11-01-2010 19:15:01 -1.4 C 3.82 g/m*3 -1.4 C 0 km/h
Sensor: Nr:Datum:Temp:Abs-Feuchte:Windchill:Wind:
Aussen-T/F 2376 11-01-2010 19:27:01 -1.3 C 3.85 g/m*3 -1.3 C 0 km/h
2377 11-01-2010 19:39:02 -1.4 C 3.82 g/m*3 -1.4 C 0 km/h
2378 11-01-2010 19:51:02 -1.3 C 3.85 g/m*3 -1.3 C 0 km/h
2379 11-01-2010 20:03:02 -1.3 C 3.85 g/m*3 -1.3 C 0 km/h
2380 11-01-2010 20:15:01 -1.3 C 3.85 g/m*3 -1.3 C 0 km/h
2381 11-01-2010 20:27:01 -1.3 C 3.85 g/m*3 -1.3 C 0 km/h
2382 11-01-2010 20:39:02 -1.3 C 3.85 g/m*3 -1.3 C 0 km/h
2383 11-01-2010 20:51:02 -1.3 C 3.85 g/m*3 -1.3 C 0 km/h
2384 11-01-2010 21:03:02 -1.3 C 3.85 g/m*3 -1.3 C 0 km/h
2385 11-01-2010 21:15:02 -1.3 C 3.81 g/m*3 -1.3 C 0 km/h
2386 11-01-2010 21:27:02 -1.3 C 3.81 g/m*3 -1.3 C 0 km/h
2387 11-01-2010 21:39:02 -1.3 C 3.81 g/m*3 -1.3 C 0 km/h
2388 11-01-2010 21:51:02 -1.3 C 3.81 g/m*3 -1.3 C 0 km/h
2389 11-01-2010 22:03:02 -1.3 C 3.81 g/m*3 -1.3 C 0 km/h
2390 11-01-2010 22:15:02 -1.3 C 3.81 g/m*3 -1.3 C 0 km/h
2391 11-01-2010 22:27:02 -1.2 C 3.83 g/m*3 -1.2 C 0 km/h
2392 11-01-2010 22:40:04 -1.2 C 3.83 g/m*3 -1.2 C 0 km/h
2393 11-01-2010 22:52:04 -1.1 C 3.86 g/m*3 -1.1 C 0 km/h
2394 11-01-2010 23:04:04 -1.1 C 3.86 g/m*3 -1.1 C 0 km/h
2395 11-01-2010 23:16:04 -1.2 C 3.83 g/m*3 -1.2 C 0 km/h
2396 11-01-2010 23:28:04 -1.2 C 3.83 g/m*3 -1.2 C 0 km/h
2397 11-01-2010 23:40:04 -1.2 C 3.83 g/m*3 -1.2 C 0 km/h
2398 11-01-2010 23:52:04 -1.3 C 3.76 g/m*3 -1.3 C 0 km/h
2399 12-01-2010 00:04:04 -1.3 C 3.76 g/m*3 -1.3 C 0 km/h
2400 12-01-2010 00:16:04 -1.3 C 3.76 g/m*3 -1.3 C 0 km/h
Sensor: Nr:Datum:Temp:Abs-Feuchte:Windchill:Wind:
Aussen-T/F 2401 12-01-2010 00:28:04 -1.3 C 3.76 g/m*3 -1.3 C 0 km/h
2402 12-01-2010 00:40:04 -1.3 C 3.72 g/m*3 -1.3 C 0 km/h
2403 12-01-2010 00:52:04 -1.3 C 3.72 g/m*3 -1.3 C 0 km/h
2404 12-01-2010 01:04:04 -1.3 C 3.72 g/m*3 -1.3 C 0 km/h
2405 12-01-2010 01:16:04 -1.3 C 3.67 g/m*3 -1.3 C 0 km/h
2406 12-01-2010 01:28:05 -1.3 C 3.67 g/m*3 -1.3 C 0 km/h
2407 12-01-2010 01:40:05 -1.3 C 3.67 g/m*3 -1.3 C 0 km/h
2408 12-01-2010 01:52:05 -1.3 C 3.67 g/m*3 -1.3 C 0 km/h
2409 12-01-2010 02:04:05 -1.3 C 3.67 g/m*3 -1.3 C 0 km/h
2410 12-01-2010 02:16:05 -1.4 C 3.65 g/m*3 -1.4 C 0 km/h
2411 12-01-2010 02:28:05 -1.4 C 3.65 g/m*3 -1.4 C 0 km/h
2412 12-01-2010 02:40:05 -1.3 C 3.67 g/m*3 -1.3 C 0 km/h
2413 12-01-2010 02:52:05 -1.4 C 3.65 g/m*3 -1.4 C 0 km/h
2414 12-01-2010 03:04:05 -1.4 C 3.65 g/m*3 -1.4 C 0 km/h
2415 12-01-2010 03:16:05 -1.4 C 3.65 g/m*3 -1.4 C 0 km/h
2416 12-01-2010 03:28:05 -1.5 C 3.62 g/m*3 -1.5 C 0 km/h
2417 12-01-2010 03:40:05 -1.5 C 3.62 g/m*3 -1.5 C 0 km/h
2418 12-01-2010 03:52:05 -1.6 C 3.64 g/m*3 -1.6 C 0 km/h
2419 12-01-2010 04:04:05 -1.6 C 3.64 g/m*3 -1.6 C 0 km/h
2420 12-01-2010 04:16:05 -1.6 C 3.64 g/m*3 -1.6 C 0 km/h
2421 12-01-2010 04:28:05 -1.8 C 3.59 g/m*3 -1.8 C 0 km/h
2422 12-01-2010 04:40:05 -1.8 C 3.63 g/m*3 -1.8 C 0 km/h
2423 12-01-2010 04:52:05 -1.8 C 3.63 g/m*3 -1.8 C 0 km/h
2424 12-01-2010 05:04:05 -1.9 C 3.61 g/m*3 -1.9 C 0 km/h
2425 12-01-2010 05:16:05 -1.9 C 3.61 g/m*3 -1.9 C 0 km/h
Sensor: Nr:Datum:Temp:Abs-Feuchte:Windchill:Wind:
Aussen-T/F 2426 12-01-2010 05:28:05 -1.9 C 3.61 g/m*3 -1.9 C 0 km/h
2427 12-01-2010 05:40:06 -2 C 3.58 g/m*3 -2 C 0 km/h
2428 12-01-2010 05:52:06 -2 C 3.58 g/m*3 -2 C 0 km/h
2429 12-01-2010 06:04:06 -2 C 3.58 g/m*3 -2 C 0 km/h
2430 12-01-2010 06:16:06 -2 C 3.58 g/m*3 -2 C 0 km/h
2431 12-01-2010 06:28:06 -2.1 C 3.56 g/m*3 -2.1 C 0 km/h
2432 12-01-2010 06:40:06 -2.1 C 3.56 g/m*3 -2.1 C 0 km/h
2433 12-01-2010 06:52:03 -2.1 C 3.56 g/m*3 -2.1 C 0 km/h
2434 12-01-2010 07:04:02 -2.1 C 3.56 g/m*3 -2.1 C 0 km/h
2435 12-01-2010 07:16:02 -2.2 C 3.49 g/m*3 -2.2 C 0 km/h
2436 12-01-2010 07:28:02 -2.2 C 3.49 g/m*3 -2.2 C 0 km/h
2437 12-01-2010 07:40:02 -2.2 C 3.45 g/m*3 -2.2 C 0 km/h
2438 12-01-2010 07:52:02 -2.3 C 3.43 g/m*3 -2.3 C 0 km/h
2439 12-01-2010 08:04:02 -2.4 C 3.36 g/m*3 -2.4 C 0 km/h
2440 12-01-2010 08:16:02 -2.3 C 3.38 g/m*3 -2.3 C 0 km/h
2441 12-01-2010 08:28:02 -2.4 C 3.36 g/m*3 -2.4 C 0 km/h
2442 12-01-2010 08:40:01 -2.4 C 3.36 g/m*3 -2.4 C 0 km/h
2443 12-01-2010 08:52:02 -2.4 C 3.36 g/m*3 -2.4 C 0 km/h
2444 12-01-2010 09:04:01 -2.3 C 3.34 g/m*3 -2.3 C 0 km/h
2445 12-01-2010 09:16:01 -2.3 C 3.34 g/m*3 -2.3 C 0 km/h
2446 12-01-2010 09:28:01 -2.1 C 3.35 g/m*3 -2.1 C 0 km/h
2447 12-01-2010 09:40:02 -2.1 C 3.31 g/m*3 -2.1 C 0 km/h
2448 12-01-2010 09:52:02 -2.1 C 3.26 g/m*3 -2.1 C 0 km/h
2449 12-01-2010 10:04:01 -1.9 C 3.31 g/m*3 -1.9 C 0 km/h
2450 12-01-2010 10:16:02 -1.8 C 3.29 g/m*3 -1.8 C 0 km/h
Sensor: Nr:Datum:Temp:Abs-Feuchte:Windchill:Wind:
Aussen-T/F 2451 12-01-2010 10:28:02 -1.7 C 3.31 g/m*3 -1.7 C 0 km/h
2452 12-01-2010 10:40:02 -1.6 C 3.29 g/m*3 -1.6 C 0 km/h
2453 12-01-2010 10:52:01 -1.4 C 3.34 g/m*3 -1.4 C 0 km/h
2454 12-01-2010 11:04:02 -1.3 C 3.32 g/m*3 -1.3 C 0 km/h
2455 12-01-2010 11:16:01 -1.3 C 3.28 g/m*3 -1.3 C 0 km/h
2456 12-01-2010 11:28:01 -1.1 C 3.32 g/m*3 -1.1 C 0 km/h
2457 12-01-2010 11:40:02 -1 C 3.35 g/m*3 -1 C 0 km/h
2458 12-01-2010 11:52:02 -1 C 3.35 g/m*3 -1 C 0 km/h
2459 12-01-2010 12:04:02 -1 C 3.3 g/m*3 -1 C 0 km/h
2460 12-01-2010 12:16:01 -1 C 3.3 g/m*3 -1 C 0 km/h
2461 12-01-2010 12:28:01 -1 C 3.3 g/m*3 -1 C 0 km/h
2462 12-01-2010 12:40:02 -1.2 C 3.21 g/m*3 -1.2 C 0 km/h
2463 12-01-2010 12:52:02 -1.2 C 3.25 g/m*3 -1.2 C 0 km/h
2464 12-01-2010 13:04:02 -1.2 C 3.21 g/m*3 -1.2 C 0 km/h
2465 12-01-2010 13:16:01 -1.2 C 3.21 g/m*3 -1.2 C 0 km/h
2466 12-01-2010 13:28:01 -1.2 C 3.21 g/m*3 -1.2 C 0 km/h
2467 12-01-2010 13:40:02 -1.2 C 3.21 g/m*3 -1.2 C 0 km/h
2468 12-01-2010 13:52:02 -1.2 C 3.25 g/m*3 -1.2 C 0 km/h
2469 12-01-2010 14:04:02 -1.2 C 3.25 g/m*3 -1.2 C 0 km/h
2470 12-01-2010 14:16:02 -1 C 3.3 g/m*3 -1 C 0 km/h
2471 12-01-2010 14:28:02 -1.1 C 3.28 g/m*3 -1.1 C 0 km/h
2472 12-01-2010 14:40:02 -1 C 3.3 g/m*3 -1 C 0 km/h
2473 12-01-2010 14:52:02 -1.2 C 3.25 g/m*3 -1.2 C 0 km/h
2474 12-01-2010 15:04:02 -1.3 C 3.28 g/m*3 -1.3 C 0 km/h
2475 12-01-2010 15:16:02 -1.4 C 3.3 g/m*3 -1.4 C 0 km/h
Sensor: Nr:Datum:Temp:Abs-Feuchte:Windchill:Wind:
Aussen-T/F 2476 12-01-2010 15:28:02 -1.4 C 3.3 g/m*3 -1.4 C 0 km/h
2477 12-01-2010 15:40:02 -1.3 C 3.36 g/m*3 -1.3 C 0 km/h
2478 12-01-2010 15:52:02 -1.4 C 3.34 g/m*3 -1.4 C 0 km/h
2479 12-01-2010 16:04:02 -1.3 C 3.36 g/m*3 -1.3 C 0 km/h
2480 12-01-2010 16:16:02 -1.5 C 3.36 g/m*3 -1.5 C 0 km/h
2481 12-01-2010 16:28:02 -1.6 C 3.34 g/m*3 -1.6 C 0 km/h
2482 12-01-2010 16:40:01 -1.7 C 3.31 g/m*3 -1.7 C 0 km/h
2483 12-01-2010 16:52:02 -1.8 C 3.33 g/m*3 -1.8 C 0 km/h
2484 12-01-2010 17:04:01 -1.9 C 3.31 g/m*3 -1.9 C 0 km/h
2485 12-01-2010 17:16:02 -1.9 C 3.31 g/m*3 -1.9 C 0 km/h
2486 12-01-2010 17:28:02 -1.9 C 3.31 g/m*3 -1.9 C 0 km/h
2487 12-01-2010 17:40:02 -1.9 C 3.31 g/m*3 -1.9 C 0 km/h
2488 12-01-2010 17:52:02 -1.9 C 3.31 g/m*3 -1.9 C 0 km/h
2489 12-01-2010 18:04:02 -1.9 C 3.35 g/m*3 -1.9 C 0 km/h
2490 12-01-2010 18:16:02 -1.8 C 3.38 g/m*3 -1.8 C 0 km/h
2491 12-01-2010 18:28:02 -1.8 C 3.33 g/m*3 -1.8 C 0 km/h
2492 12-01-2010 18:40:03 -1.8 C 3.33 g/m*3 -1.8 C 0 km/h
2493 12-01-2010 18:52:02 -1.8 C 3.33 g/m*3 -1.8 C 0 km/h
2494 12-01-2010 19:04:02 -1.9 C 3.27 g/m*3 -1.9 C 0 km/h
2495 12-01-2010 19:16:02 -1.9 C 3.27 g/m*3 -1.9 C 0 km/h
2496 12-01-2010 19:28:02 -1.9 C 3.27 g/m*3 -1.9 C 0 km/h
2497 12-01-2010 19:40:02 -2 C 3.2 g/m*3 -2 C 0 km/h
2498 12-01-2010 19:52:02 -2 C 3.2 g/m*3 -2 C 0 km/h
2499 12-01-2010 20:04:02 -2 C 3.2 g/m*3 -2 C 0 km/h
2500 12-01-2010 20:16:02 -1.9 C 3.27 g/m*3 -1.9 C 0 km/h
Sensor: Nr:Datum:Temp:Abs-Feuchte:Windchill:Wind:
Aussen-T/F 2501 12-01-2010 20:28:02 -1.9 C 3.27 g/m*3 -1.9 C 0 km/h
2502 12-01-2010 20:40:02 -1.9 C 3.27 g/m*3 -1.9 C 0 km/h
2503 12-01-2010 20:52:02 -1.8 C 3.25 g/m*3 -1.8 C 0 km/h
2504 12-01-2010 21:04:02 -1.7 C 3.27 g/m*3 -1.7 C 0 km/h
2505 12-01-2010 21:16:02 -1.7 C 3.27 g/m*3 -1.7 C 0 km/h
2506 12-01-2010 21:28:02 -1.7 C 3.27 g/m*3 -1.7 C 0 km/h
2507 12-01-2010 21:40:02 -1.6 C 3.29 g/m*3 -1.6 C 0 km/h
2508 12-01-2010 21:53:01 -1.7 C 3.27 g/m*3 -1.7 C 0 km/h
2509 12-01-2010 22:05:01 -1.7 C 3.27 g/m*3 -1.7 C 0 km/h
2510 12-01-2010 22:17:01 -1.7 C 3.23 g/m*3 -1.7 C 0 km/h
2511 12-01-2010 22:29:01 -1.6 C 3.25 g/m*3 -1.6 C 0 km/h
2512 12-01-2010 22:41:01 -1.7 C 3.19 g/m*3 -1.7 C 0 km/h
2513 12-01-2010 22:53:01 -1.8 C 3.16 g/m*3 -1.8 C 0 km/h
2514 12-01-2010 23:05:01 -1.8 C 3.16 g/m*3 -1.8 C 0 km/h
2515 12-01-2010 23:17:01 -1.9 C 3.14 g/m*3 -1.9 C 0 km/h
2516 12-01-2010 23:29:01 -1.8 C 3.21 g/m*3 -1.8 C 0 km/h
2517 12-01-2010 23:41:01 -1.8 C 3.21 g/m*3 -1.8 C 0 km/h
2518 12-01-2010 23:53:01 -1.7 C 3.23 g/m*3 -1.7 C 0 km/h
2519 13-01-2010 00:05:01 -1.7 C 3.19 g/m*3 -1.7 C 0 km/h
2520 13-01-2010 00:17:02 -1.7 C 3.19 g/m*3 -1.7 C 0 km/h
2521 13-01-2010 00:29:02 -1.7 C 3.19 g/m*3 -1.7 C 0 km/h
2522 13-01-2010 00:41:02 -1.8 C 3.16 g/m*3 -1.8 C 0 km/h
2523 13-01-2010 00:53:02 -2 C 3.16 g/m*3 -2 C 0 km/h
2524 13-01-2010 01:05:02 -2.1 C 3.14 g/m*3 -2.1 C 0 km/h
2525 13-01-2010 01:17:02 -2.5 C 3.05 g/m*3 -2.5 C 0 km/h
Sensor: Nr:Datum:Temp:Abs-Feuchte:Windchill:Wind:
Aussen-T/F 2526 13-01-2010 01:29:02 -2.8 C 3.03 g/m*3 -2.8 C 0 km/h
2527 13-01-2010 01:41:02 -2.7 C 3.09 g/m*3 -2.7 C 0 km/h
2528 13-01-2010 01:53:02 -2.6 C 3.11 g/m*3 -2.6 C 0 km/h
2529 13-01-2010 02:05:02 -2.7 C 3.13 g/m*3 -2.7 C 0 km/h
2530 13-01-2010 02:17:02 -2.7 C 3.13 g/m*3 -2.7 C 0 km/h
2531 13-01-2010 02:29:02 -2.8 C 3.11 g/m*3 -2.8 C 0 km/h
2532 13-01-2010 02:41:02 -2.9 C 3.09 g/m*3 -2.9 C 0 km/h
2533 13-01-2010 02:53:02 -2.9 C 3.09 g/m*3 -2.9 C 0 km/h
2534 13-01-2010 03:05:02 -2.9 C 3.13 g/m*3 -2.9 C 0 km/h
2535 13-01-2010 03:17:02 -2.9 C 3.13 g/m*3 -2.9 C 0 km/h
2536 13-01-2010 03:29:02 -3.2 C 3.06 g/m*3 -3.2 C 0 km/h
2537 13-01-2010 03:41:02 -3.5 C 2.96 g/m*3 -3.5 C 0 km/h
2538 13-01-2010 03:53:02 -3.4 C 3.02 g/m*3 -3.4 C 0 km/h
2539 13-01-2010 04:05:02 -3.2 C 3.1 g/m*3 -3.2 C 0 km/h
2540 13-01-2010 04:17:02 -3.1 C 3.12 g/m*3 -3.1 C 0 km/h
2541 13-01-2010 04:29:02 -3 C 3.1 g/m*3 -3 C 0 km/h
2542 13-01-2010 04:41:03 -2.9 C 3.09 g/m*3 -2.9 C 0 km/h
2543 13-01-2010 04:53:03 -3.1 C 3 g/m*3 -3.1 C 0 km/h
2544 13-01-2010 05:05:03 -3.1 C 3 g/m*3 -3.1 C 0 km/h
2545 13-01-2010 05:17:03 -2.9 C 3.05 g/m*3 -2.9 C 0 km/h
2546 13-01-2010 05:29:03 -3 C 3.02 g/m*3 -3 C 0 km/h
2547 13-01-2010 05:41:03 -2.9 C 3.01 g/m*3 -2.9 C 0 km/h
2548 13-01-2010 05:53:03 -2.9 C 3.01 g/m*3 -2.9 C 0 km/h
2549 13-01-2010 06:05:03 -2.8 C 2.99 g/m*3 -2.8 C 0 km/h
2550 13-01-2010 06:17:03 -2.7 C 3.01 g/m*3 -2.7 C 0 km/h
Sensor: Nr:Datum:Temp:Abs-Feuchte:Windchill:Wind:
Aussen-T/F 2551 13-01-2010 06:29:03 -2.7 C 2.93 g/m*3 -2.7 C 0 km/h
2552 13-01-2010 06:41:03 -2.8 C 2.95 g/m*3 -2.8 C 0 km/h
2553 13-01-2010 06:53:03 -2.8 C 2.91 g/m*3 -2.8 C 0 km/h
2554 13-01-2010 07:05:02 -2.9 C 2.89 g/m*3 -2.9 C 0 km/h
2555 13-01-2010 07:17:01 -2.9 C 2.89 g/m*3 -2.9 C 0 km/h
2556 13-01-2010 07:29:01 -2.8 C 2.91 g/m*3 -2.8 C 0 km/h
2557 13-01-2010 07:41:02 -3 C 2.83 g/m*3 -3 C 0 km/h
2558 13-01-2010 07:53:01 -3 C 2.87 g/m*3 -3 C 0 km/h
2559 13-01-2010 08:05:02 -3.1 C 2.81 g/m*3 -3.1 C 0 km/h
2560 13-01-2010 08:17:01 -3.2 C 2.79 g/m*3 -3.2 C 0 km/h
2561 13-01-2010 08:29:01 -3.2 C 2.75 g/m*3 -3.2 C 0 km/h
2562 13-01-2010 08:41:02 -3.1 C 2.77 g/m*3 -3.1 C 0 km/h
2563 13-01-2010 08:53:01 -3 C 2.79 g/m*3 -3 C 0 km/h
2564 13-01-2010 09:05:02 -2.9 C 2.77 g/m*3 -2.9 C 0 km/h
2565 13-01-2010 09:17:02 -3 C 2.71 g/m*3 -3 C 0 km/h
2566 13-01-2010 09:29:02 -2.9 C 2.73 g/m*3 -2.9 C 0 km/h
2567 13-01-2010 09:41:02 -3 C 2.71 g/m*3 -3 C 0 km/h
2568 13-01-2010 09:53:02 -3 C 2.67 g/m*3 -3 C 0 km/h
2569 13-01-2010 10:05:01 -2.9 C 2.65 g/m*3 -2.9 C 0 km/h
2570 13-01-2010 10:17:02 -2.6 C 2.71 g/m*3 -2.6 C 0 km/h
2571 13-01-2010 10:29:03 -2.5 C 2.65 g/m*3 -2.5 C 0 km/h
2572 13-01-2010 10:41:01 -2.3 C 2.68 g/m*3 -2.3 C 0 km/h
2573 13-01-2010 10:53:02 -2.1 C 2.68 g/m*3 -2.1 C 0 km/h
2574 13-01-2010 11:05:01 -2 C 2.61 g/m*3 -2 C 0 km/h
2575 13-01-2010 11:17:01 -2 C 2.61 g/m*3 -2 C 0 km/h
Sensor: Nr:Datum:Temp:Abs-Feuchte:Windchill:Wind:
Aussen-T/F 2576 13-01-2010 11:29:01 -1.8 C 2.69 g/m*3 -1.8 C 0 km/h
2577 13-01-2010 11:41:02 -1.6 C 2.73 g/m*3 -1.6 C 0 km/h
2578 13-01-2010 11:53:02 -1.9 C 2.59 g/m*3 -1.9 C 0 km/h
2579 13-01-2010 12:05:01 -1.6 C 2.69 g/m*3 -1.6 C 0 km/h
2580 13-01-2010 12:17:02 -1.2 C 2.72 g/m*3 -1.2 C 0 km/h
2581 13-01-2010 12:29:02 -1.1 C 2.74 g/m*3 -1.1 C 0 km/h
2582 13-01-2010 12:41:02 -1 C 2.76 g/m*3 -1 C 0 km/h
2583 13-01-2010 12:53:01 -0.9 C 2.78 g/m*3 -0.9 C 0 km/h
2584 13-01-2010 13:05:02 -0.7 C 2.82 g/m*3 -0.7 C 0 km/h
2585 13-01-2010 13:17:01 -0.8 C 2.84 g/m*3 -0.8 C 0 km/h
2586 13-01-2010 13:29:01 -1.3 C 2.79 g/m*3 -1.3 C 0 km/h
2587 13-01-2010 13:41:02 -1.3 C 2.97 g/m*3 -1.3 C 0 km/h
2588 13-01-2010 13:53:02 -1.2 C 3.08 g/m*3 -1.2 C 0 km/h
2589 13-01-2010 14:05:02 -1.2 C 3.08 g/m*3 -1.2 C 0 km/h
2590 13-01-2010 14:17:01 -1.2 C 3.08 g/m*3 -1.2 C 0 km/h
2591 13-01-2010 14:29:01 -1.4 C 3.03 g/m*3 -1.4 C 0 km/h
2592 13-01-2010 14:41:02 -1.6 C 2.99 g/m*3 -1.6 C 0 km/h
2593 13-01-2010 14:53:02 -1.6 C 3.03 g/m*3 -1.6 C 0 km/h
2594 13-01-2010 15:05:02 -1.5 C 3.06 g/m*3 -1.5 C 0 km/h
2595 13-01-2010 15:17:02 -1.4 C 3.12 g/m*3 -1.4 C 0 km/h
2596 13-01-2010 15:29:02 -1.6 C 2.99 g/m*3 -1.6 C 0 km/h
2597 13-01-2010 15:41:02 -1.7 C 3.01 g/m*3 -1.7 C 0 km/h
2598 13-01-2010 15:53:02 -1.8 C 3.04 g/m*3 -1.8 C 0 km/h
2599 13-01-2010 16:05:02 -1.8 C 3.04 g/m*3 -1.8 C 0 km/h
2600 13-01-2010 16:17:03 -1.8 C 3.08 g/m*3 -1.8 C 0 km/h
Sensor: Nr:Datum:Temp:Abs-Feuchte:Windchill:Wind:
Aussen-T/F 2601 13-01-2010 16:29:03 -1.9 C 3.01 g/m*3 -1.9 C 0 km/h
2602 13-01-2010 16:41:02 -2 C 2.99 g/m*3 -2 C 0 km/h
2603 13-01-2010 16:53:02 -2.1 C 3.01 g/m*3 -2.1 C 0 km/h
2604 13-01-2010 17:05:02 -2.2 C 2.95 g/m*3 -2.2 C 0 km/h
2605 13-01-2010 17:17:02 -2.3 C 2.93 g/m*3 -2.3 C 0 km/h
2606 13-01-2010 17:29:02 -2.2 C 2.99 g/m*3 -2.2 C 0 km/h
2607 13-01-2010 17:41:02 -2.3 C 2.93 g/m*3 -2.3 C 0 km/h
2608 13-01-2010 17:53:02 -2.3 C 2.97 g/m*3 -2.3 C 0 km/h
2609 13-01-2010 18:05:02 -2.2 C 2.95 g/m*3 -2.2 C 0 km/h
2610 13-01-2010 18:17:02 -2.3 C 2.93 g/m*3 -2.3 C 0 km/h
2611 13-01-2010 18:29:02 -2.3 C 2.93 g/m*3 -2.3 C 0 km/h
2612 13-01-2010 18:41:02 -2.4 C 2.91 g/m*3 -2.4 C 0 km/h
2613 13-01-2010 18:53:02 -2.4 C 2.95 g/m*3 -2.4 C 0 km/h
2614 13-01-2010 19:05:01 -2.3 C 2.97 g/m*3 -2.3 C 0 km/h
2615 13-01-2010 19:17:02 -2.3 C 2.97 g/m*3 -2.3 C 0 km/h
2616 13-01-2010 19:29:02 -2.3 C 2.97 g/m*3 -2.3 C 0 km/h
2617 13-01-2010 19:41:01 -2.3 C 2.97 g/m*3 -2.3 C 0 km/h
2618 13-01-2010 19:53:02 -2.3 C 3.01 g/m*3 -2.3 C 0 km/h
2619 13-01-2010 20:05:01 -2.2 C 3.03 g/m*3 -2.2 C 0 km/h
2620 13-01-2010 20:17:01 -2.1 C 3.06 g/m*3 -2.1 C 0 km/h
2621 13-01-2010 20:29:01 -2.2 C 3.03 g/m*3 -2.2 C 0 km/h
2622 13-01-2010 20:41:02 -2.1 C 3.06 g/m*3 -2.1 C 0 km/h
2623 13-01-2010 20:53:02 -2 C 3.12 g/m*3 -2 C 0 km/h
2624 13-01-2010 21:05:02 -2 C 3.12 g/m*3 -2 C 0 km/h
2625 13-01-2010 21:17:02 -1.9 C 3.18 g/m*3 -1.9 C 0 km/h
Sensor: Nr:Datum:Temp:Abs-Feuchte:Windchill:Wind:
Aussen-T/F 2626 13-01-2010 21:29:02 -1.9 C 3.18 g/m*3 -1.9 C 0 km/h
2627 13-01-2010 21:41:02 -1.8 C 3.21 g/m*3 -1.8 C 0 km/h
2628 13-01-2010 21:53:02 -1.8 C 3.21 g/m*3 -1.8 C 0 km/h
2629 13-01-2010 22:05:01 -1.7 C 3.27 g/m*3 -1.7 C 0 km/h
2630 13-01-2010 22:18:03 -1.6 C 3.29 g/m*3 -1.6 C 0 km/h
2631 13-01-2010 22:30:03 -1.7 C 3.27 g/m*3 -1.7 C 0 km/h
2632 13-01-2010 22:42:03 -1.6 C 3.34 g/m*3 -1.6 C 0 km/h
2633 13-01-2010 22:54:03 -1.6 C 3.34 g/m*3 -1.6 C 0 km/h
2634 13-01-2010 23:06:03 -1.6 C 3.34 g/m*3 -1.6 C 0 km/h
2635 13-01-2010 23:18:03 -1.5 C 3.36 g/m*3 -1.5 C 0 km/h
2636 13-01-2010 23:30:03 -1.5 C 3.36 g/m*3 -1.5 C 0 km/h
2637 13-01-2010 23:42:03 -1.5 C 3.36 g/m*3 -1.5 C 0 km/h
2638 13-01-2010 23:54:03 -1.4 C 3.43 g/m*3 -1.4 C 0 km/h
2639 14-01-2010 00:06:03 -1.4 C 3.43 g/m*3 -1.4 C 0 km/h
2640 14-01-2010 00:18:04 -1.4 C 3.43 g/m*3 -1.4 C 0 km/h
2641 14-01-2010 00:30:04 -1.4 C 3.43 g/m*3 -1.4 C 0 km/h
2642 14-01-2010 00:42:04 -1.5 C 3.41 g/m*3 -1.5 C 0 km/h
2643 14-01-2010 00:54:04 -1.4 C 3.47 g/m*3 -1.4 C 0 km/h
2644 14-01-2010 01:06:04 -1.4 C 3.47 g/m*3 -1.4 C 0 km/h
2645 14-01-2010 01:18:04 -1.5 C 3.45 g/m*3 -1.5 C 0 km/h
2646 14-01-2010 01:30:04 -1.4 C 3.52 g/m*3 -1.4 C 0 km/h
2647 14-01-2010 01:42:04 -1.3 C 3.54 g/m*3 -1.3 C 0 km/h
2648 14-01-2010 01:54:04 -1.4 C 3.52 g/m*3 -1.4 C 0 km/h
2649 14-01-2010 02:06:04 -1.4 C 3.52 g/m*3 -1.4 C 0 km/h
2650 14-01-2010 02:18:04 -1.2 C 3.61 g/m*3 -1.2 C 0 km/h
Sensor: Nr:Datum:Temp:Abs-Feuchte:Windchill:Wind:
Aussen-T/F 2651 14-01-2010 02:30:04 -1.1 C 3.64 g/m*3 -1.1 C 0 km/h
2652 14-01-2010 02:42:04 -1.2 C 3.61 g/m*3 -1.2 C 0 km/h
2653 14-01-2010 02:54:04 -1.1 C 3.64 g/m*3 -1.1 C 0 km/h
2654 14-01-2010 03:06:04 -1 C 3.71 g/m*3 -1 C 0 km/h
2655 14-01-2010 03:18:04 -1 C 3.71 g/m*3 -1 C 0 km/h
2656 14-01-2010 03:30:04 -1.1 C 3.68 g/m*3 -1.1 C 0 km/h
2657 14-01-2010 03:42:04 -1 C 3.71 g/m*3 -1 C 0 km/h
2658 14-01-2010 03:54:04 -1.1 C 3.68 g/m*3 -1.1 C 0 km/h
2659 14-01-2010 04:06:04 -0.9 C 3.78 g/m*3 -0.9 C 0 km/h
2660 14-01-2010 04:18:04 -0.9 C 3.78 g/m*3 -0.9 C 0 km/h
2661 14-01-2010 04:30:04 -0.9 C 3.78 g/m*3 -0.9 C 0 km/h
2662 14-01-2010 04:42:05 -0.9 C 3.78 g/m*3 -0.9 C 0 km/h
2663 14-01-2010 04:54:05 -0.8 C 3.8 g/m*3 -0.8 C 0 km/h
2664 14-01-2010 05:06:05 -0.7 C 3.83 g/m*3 -0.7 C 0 km/h
2665 14-01-2010 05:18:05 -0.8 C 3.8 g/m*3 -0.8 C 0 km/h
2666 14-01-2010 05:30:05 -0.7 C 3.83 g/m*3 -0.7 C 0 km/h
2667 14-01-2010 05:42:05 -0.7 C 3.83 g/m*3 -0.7 C 0 km/h
2668 14-01-2010 05:54:05 -0.6 C 3.9 g/m*3 -0.6 C 0 km/h
2669 14-01-2010 06:06:05 -0.6 C 3.86 g/m*3 -0.6 C 0 km/h
2670 14-01-2010 06:18:05 -0.6 C 3.9 g/m*3 -0.6 C 0 km/h
2671 14-01-2010 06:30:05 -0.8 C 3.8 g/m*3 -0.8 C 0 km/h
2672 14-01-2010 06:42:05 -0.6 C 3.9 g/m*3 -0.6 C 0 km/h
2673 14-01-2010 06:54:05 -0.6 C 3.9 g/m*3 -0.6 C 0 km/h
2674 14-01-2010 07:06:05 -0.6 C 3.9 g/m*3 -0.6 C 0 km/h
2675 14-01-2010 07:18:03 -0.8 C 3.85 g/m*3 -0.8 C 0 km/h
Sensor: Nr:Datum:Temp:Abs-Feuchte:Windchill:Wind:
Aussen-T/F 2676 14-01-2010 07:30:03 -0.6 C 3.9 g/m*3 -0.6 C 0 km/h
2677 14-01-2010 07:42:02 -0.6 C 3.9 g/m*3 -0.6 C 0 km/h
2678 14-01-2010 07:54:01 -0.6 C 3.9 g/m*3 -0.6 C 0 km/h
2679 14-01-2010 08:06:01 -0.6 C 3.9 g/m*3 -0.6 C 0 km/h
2680 14-01-2010 08:18:02 -0.6 C 3.86 g/m*3 -0.6 C 0 km/h
2681 14-01-2010 08:30:02 -0.6 C 3.86 g/m*3 -0.6 C 0 km/h
2682 14-01-2010 08:42:01 -0.8 C 3.8 g/m*3 -0.8 C 0 km/h
2683 14-01-2010 08:54:02 -1.1 C 3.73 g/m*3 -1.1 C 0 km/h
2684 14-01-2010 09:06:01 -1.1 C 3.73 g/m*3 -1.1 C 0 km/h
2685 14-01-2010 09:18:02 -0.9 C 3.82 g/m*3 -0.9 C 0 km/h
2686 14-01-2010 09:30:02 -0.6 C 3.9 g/m*3 -0.6 C 0 km/h
2687 14-01-2010 09:42:01 -0.4 C 3.96 g/m*3 -0.4 C 0 km/h
2688 14-01-2010 09:54:02 0 C 4.07 g/m*3 0 C 0 km/h
2689 14-01-2010 10:06:02 0.3 C 4.11 g/m*3 0.3 C 0 km/h
2690 14-01-2010 10:18:02 0.6 C 4.19 g/m*3 0.6 C 0 km/h
2691 14-01-2010 10:30:02 0.7 C 4.12 g/m*3 0.7 C 0 km/h
2692 14-01-2010 10:42:02 0.8 C 4.1 g/m*3 0.8 C 0 km/h
2693 14-01-2010 10:54:01 1 C 4.05 g/m*3 1 C 0 km/h
2694 14-01-2010 11:06:02 1.3 C 4.08 g/m*3 1.3 C 0 km/h
2695 14-01-2010 11:18:01 1.4 C 4.11 g/m*3 1.4 C 0 km/h
2696 14-01-2010 11:30:01 1.5 C 4.08 g/m*3 1.5 C 0 km/h
2697 14-01-2010 11:42:02 1.6 C 4.11 g/m*3 1.6 C 0 km/h
2698 14-01-2010 11:54:02 1.7 C 4.08 g/m*3 1.7 C 0 km/h
2699 14-01-2010 12:06:02 1.7 C 4.08 g/m*3 1.7 C 0 km/h
2700 14-01-2010 12:18:01 1.8 C 4.11 g/m*3 1.8 C 0 km/h
Sensor: Nr:Datum:Temp:Abs-Feuchte:Windchill:Wind:
Aussen-T/F 2701 14-01-2010 12:30:01 2 C 4.11 g/m*3 2 C 0 km/h
2702 14-01-2010 12:42:02 2 C 4.06 g/m*3 2 C 0 km/h
2703 14-01-2010 12:54:02 1.9 C 4.08 g/m*3 1.9 C 0 km/h
2704 14-01-2010 13:06:02 2 C 4.06 g/m*3 2 C 0 km/h
2705 14-01-2010 13:18:02 2 C 4.06 g/m*3 2 C 0 km/h
2706 14-01-2010 13:30:02 2 C 4.06 g/m*3 2 C 0 km/h
2707 14-01-2010 13:42:02 2 C 4.06 g/m*3 2 C 0 km/h
2708 14-01-2010 13:54:02 2 C 4.06 g/m*3 2 C 0 km/h
2709 14-01-2010 14:06:02 2 C 4.06 g/m*3 2 C 0 km/h
2710 14-01-2010 14:18:02 2.1 C 4.08 g/m*3 2.1 C 0 km/h
2711 14-01-2010 14:30:02 2.1 C 4.08 g/m*3 2.1 C 0 km/h
2712 14-01-2010 14:42:02 2 C 4.06 g/m*3 2 C 0 km/h
2713 14-01-2010 14:54:02 2 C 4.06 g/m*3 2 C 0 km/h
2714 14-01-2010 15:06:02 2 C 4.11 g/m*3 2 C 0 km/h
2715 14-01-2010 15:18:03 1.8 C 4.11 g/m*3 1.8 C 0 km/h
2716 14-01-2010 15:30:03 1.7 C 4.14 g/m*3 1.7 C 0 km/h
2717 14-01-2010 15:42:02 1.6 C 4.11 g/m*3 1.6 C 0 km/h
2718 14-01-2010 15:54:02 1.6 C 4.16 g/m*3 1.6 C 0 km/h
2719 14-01-2010 16:06:02 1.5 C 4.14 g/m*3 1.5 C 0 km/h
2720 14-01-2010 16:18:03 1.5 C 4.19 g/m*3 1.5 C 0 km/h
2721 14-01-2010 16:30:03 1.4 C 4.16 g/m*3 1.4 C 0 km/h
2722 14-01-2010 16:42:02 1.4 C 4.16 g/m*3 1.4 C 0 km/h
2723 14-01-2010 16:54:03 1.3 C 4.19 g/m*3 1.3 C 0 km/h
2724 14-01-2010 17:06:02 1.2 C 4.16 g/m*3 1.2 C 0 km/h
2725 14-01-2010 17:18:02 1.2 C 4.21 g/m*3 1.2 C 0 km/h
Sensor: Nr:Datum:Temp:Abs-Feuchte:Windchill:Wind:
Aussen-T/F 2726 14-01-2010 17:30:02 1.2 C 4.21 g/m*3 1.2 C 0 km/h
2727 14-01-2010 17:42:02 1.2 C 4.21 g/m*3 1.2 C 0 km/h
2728 14-01-2010 17:54:01 1.1 C 4.18 g/m*3 1.1 C 0 km/h
2729 14-01-2010 18:06:02 1.1 C 4.23 g/m*3 1.1 C 0 km/h
2730 14-01-2010 18:18:01 1.1 C 4.23 g/m*3 1.1 C 0 km/h
2731 14-01-2010 18:30:01 1.1 C 4.23 g/m*3 1.1 C 0 km/h
2732 14-01-2010 18:42:02 1.1 C 4.23 g/m*3 1.1 C 0 km/h
2733 14-01-2010 18:54:02 1 C 4.2 g/m*3 1 C 0 km/h
2734 14-01-2010 19:06:02 1 C 4.2 g/m*3 1 C 0 km/h
2735 14-01-2010 19:18:02 0.9 C 4.23 g/m*3 0.9 C 0 km/h
2736 14-01-2010 19:30:02 1 C 4.2 g/m*3 1 C 0 km/h
2737 14-01-2010 19:42:02 1 C 4.2 g/m*3 1 C 0 km/h
2738 14-01-2010 19:54:02 1 C 4.26 g/m*3 1 C 0 km/h
2739 14-01-2010 20:06:03 1 C 4.26 g/m*3 1 C 0 km/h
2740 14-01-2010 20:18:02 1 C 4.26 g/m*3 1 C 0 km/h
2741 14-01-2010 20:30:02 1 C 4.26 g/m*3 1 C 0 km/h
2742 14-01-2010 20:42:02 0.9 C 4.23 g/m*3 0.9 C 0 km/h
2743 14-01-2010 20:54:01 0.9 C 4.28 g/m*3 0.9 C 0 km/h
2744 14-01-2010 21:06:02 0.9 C 4.28 g/m*3 0.9 C 0 km/h
2745 14-01-2010 21:18:01 0.8 C 4.25 g/m*3 0.8 C 0 km/h
2746 14-01-2010 21:30:01 0.8 C 4.25 g/m*3 0.8 C 0 km/h
2747 14-01-2010 21:42:02 0.8 C 4.25 g/m*3 0.8 C 0 km/h
2748 14-01-2010 21:54:02 0.8 C 4.25 g/m*3 0.8 C 0 km/h
2749 14-01-2010 22:06:02 0.8 C 4.25 g/m*3 0.8 C 0 km/h
2750 14-01-2010 22:19:04 0.8 C 4.2 g/m*3 0.8 C 0 km/h
Sensor: Nr:Datum:Temp:Abs-Feuchte:Windchill:Wind:
Aussen-T/F 2751 14-01-2010 22:31:04 0.9 C 4.23 g/m*3 0.9 C 0 km/h
2752 14-01-2010 22:43:04 0.8 C 4.2 g/m*3 0.8 C 0 km/h
2753 14-01-2010 22:55:04 0.7 C 4.12 g/m*3 0.7 C 0 km/h
2754 14-01-2010 23:07:04 0.7 C 4.12 g/m*3 0.7 C 0 km/h
2755 14-01-2010 23:19:05 0.7 C 4.07 g/m*3 0.7 C 0 km/h
2756 14-01-2010 23:31:05 0.6 C 4.09 g/m*3 0.6 C 0 km/h
2757 14-01-2010 23:43:05 0.7 C 4.12 g/m*3 0.7 C 0 km/h
2758 14-01-2010 23:55:05 0.7 C 4.12 g/m*3 0.7 C 0 km/h
2759 15-01-2010 00:07:05 0.7 C 4.12 g/m*3 0.7 C 0 km/h
2760 15-01-2010 00:19:05 0.6 C 4.09 g/m*3 0.6 C 0 km/h
2761 15-01-2010 00:31:05 0.6 C 4.09 g/m*3 0.6 C 0 km/h
2762 15-01-2010 00:43:05 0.6 C 4.09 g/m*3 0.6 C 0 km/h
2763 15-01-2010 00:55:05 0.6 C 4.14 g/m*3 0.6 C 0 km/h
2764 15-01-2010 01:07:05 0.7 C 4.17 g/m*3 0.7 C 0 km/h
2765 15-01-2010 01:19:05 0.7 C 4.17 g/m*3 0.7 C 0 km/h
2766 15-01-2010 01:31:05 0.6 C 4.14 g/m*3 0.6 C 0 km/h
2767 15-01-2010 01:43:05 0.6 C 4.14 g/m*3 0.6 C 0 km/h
2768 15-01-2010 01:55:05 0.6 C 4.14 g/m*3 0.6 C 0 km/h
2769 15-01-2010 02:07:05 0.7 C 4.22 g/m*3 0.7 C 0 km/h
2770 15-01-2010 02:19:05 0.7 C 4.22 g/m*3 0.7 C 0 km/h
2771 15-01-2010 02:31:05 0.7 C 4.22 g/m*3 0.7 C 0 km/h
2772 15-01-2010 02:43:05 0.7 C 4.17 g/m*3 0.7 C 0 km/h
2773 15-01-2010 02:55:05 0.7 C 4.22 g/m*3 0.7 C 0 km/h
2774 15-01-2010 03:07:05 0.6 C 4.14 g/m*3 0.6 C 0 km/h
2775 15-01-2010 03:19:05 0.6 C 4.19 g/m*3 0.6 C 0 km/h
Sensor: Nr:Datum:Temp:Abs-Feuchte:Windchill:Wind:
Aussen-T/F 2776 15-01-2010 03:31:05 0.6 C 4.19 g/m*3 0.6 C 0 km/h
2777 15-01-2010 03:43:06 0.7 C 4.22 g/m*3 0.7 C 0 km/h
2778 15-01-2010 03:55:06 0.7 C 4.17 g/m*3 0.7 C 0 km/h
2779 15-01-2010 04:07:06 0.7 C 4.17 g/m*3 0.7 C 0 km/h
2780 15-01-2010 04:19:06 0.7 C 4.17 g/m*3 0.7 C 0 km/h
2781 15-01-2010 04:31:06 0.7 C 4.12 g/m*3 0.7 C 0 km/h
2782 15-01-2010 04:43:06 0.7 C 4.12 g/m*3 0.7 C 0 km/h
2783 15-01-2010 04:55:06 0.7 C 4.07 g/m*3 0.7 C 0 km/h
2784 15-01-2010 05:07:06 0.7 C 4.12 g/m*3 0.7 C 0 km/h
2785 15-01-2010 05:19:06 0.6 C 4.09 g/m*3 0.6 C 0 km/h
2786 15-01-2010 05:31:06 0.7 C 4.12 g/m*3 0.7 C 0 km/h
2787 15-01-2010 05:43:06 0.7 C 4.12 g/m*3 0.7 C 0 km/h
2788 15-01-2010 05:55:01 0.7 C 4.12 g/m*3 0.7 C 0 km/h
2789 15-01-2010 06:07:02 0.7 C 4.12 g/m*3 0.7 C 0 km/h
2790 15-01-2010 06:19:01 0.6 C 4.09 g/m*3 0.6 C 0 km/h
2791 15-01-2010 06:31:01 0.6 C 4.14 g/m*3 0.6 C 0 km/h
2792 15-01-2010 06:43:01 0.6 C 4.14 g/m*3 0.6 C 0 km/h
2793 15-01-2010 06:55:01 0.6 C 4.14 g/m*3 0.6 C 0 km/h
2794 15-01-2010 07:07:02 0.7 C 4.17 g/m*3 0.7 C 0 km/h
2795 15-01-2010 07:19:01 0.7 C 4.12 g/m*3 0.7 C 0 km/h
2796 15-01-2010 07:31:02 0.7 C 4.12 g/m*3 0.7 C 0 km/h
2797 15-01-2010 07:43:02 0.7 C 4.12 g/m*3 0.7 C 0 km/h
2798 15-01-2010 07:55:01 0.7 C 4.12 g/m*3 0.7 C 0 km/h
2799 15-01-2010 08:07:02 0.6 C 4.09 g/m*3 0.6 C 0 km/h
2800 15-01-2010 08:19:02 0.6 C 4.09 g/m*3 0.6 C 0 km/h
Sensor: Nr:Datum:Temp:Abs-Feuchte:Windchill:Wind:
Aussen-T/F 2801 15-01-2010 08:31:01 0.6 C 4.09 g/m*3 0.6 C 0 km/h
2802 15-01-2010 08:43:01 0.6 C 4.09 g/m*3 0.6 C 0 km/h
2803 15-01-2010 08:55:01 0.6 C 4.09 g/m*3 0.6 C 0 km/h
2804 15-01-2010 09:07:02 0.6 C 4.04 g/m*3 0.6 C 0 km/h
2805 15-01-2010 09:19:02 0.6 C 4.04 g/m*3 0.6 C 0 km/h
2806 15-01-2010 09:31:01 0.6 C 4.04 g/m*3 0.6 C 0 km/h
2807 15-01-2010 09:43:01 0.7 C 4.07 g/m*3 0.7 C 0 km/h
2808 15-01-2010 09:55:02 0.7 C 4.07 g/m*3 0.7 C 0 km/h
2809 15-01-2010 10:07:03 0.7 C 4.07 g/m*3 0.7 C 0 km/h
2810 15-01-2010 10:19:01 0.9 C 4.12 g/m*3 0.9 C 0 km/h
2811 15-01-2010 10:31:02 0.9 C 4.07 g/m*3 0.9 C 0 km/h
2812 15-01-2010 10:43:02 0.9 C 4.02 g/m*3 0.9 C 0 km/h
2813 15-01-2010 10:55:02 0.9 C 4.02 g/m*3 0.9 C 0 km/h
2814 15-01-2010 11:07:02 0.8 C 3.99 g/m*3 0.8 C 0 km/h
2815 15-01-2010 11:19:01 0.7 C 3.92 g/m*3 0.7 C 0 km/h
2816 15-01-2010 11:31:01 0.8 C 3.94 g/m*3 0.8 C 0 km/h
2817 15-01-2010 11:43:01 0.8 C 3.94 g/m*3 0.8 C 0 km/h
2818 15-01-2010 11:55:01 0.9 C 3.97 g/m*3 0.9 C 0 km/h
2819 15-01-2010 12:07:01 1 C 3.94 g/m*3 1 C 0 km/h
2820 15-01-2010 12:19:01 1.1 C 3.92 g/m*3 1.1 C 0 km/h
2821 15-01-2010 12:31:01 1.1 C 3.87 g/m*3 1.1 C 0 km/h
2822 15-01-2010 12:43:01 1.1 C 3.87 g/m*3 1.1 C 0 km/h
2823 15-01-2010 12:55:02 1.1 C 3.87 g/m*3 1.1 C 0 km/h
2824 15-01-2010 13:07:02 1.2 C 3.95 g/m*3 1.2 C 0 km/h
2825 15-01-2010 13:19:02 1.3 C 3.92 g/m*3 1.3 C 0 km/h
Sensor: Nr:Datum:Temp:Abs-Feuchte:Windchill:Wind:
Aussen-T/F 2826 15-01-2010 13:31:01 1.5 C 3.97 g/m*3 1.5 C 0 km/h
2827 15-01-2010 13:43:01 1.6 C 3.95 g/m*3 1.6 C 0 km/h
2828 15-01-2010 13:55:03 1.8 C 4 g/m*3 1.8 C 0 km/h
2829 15-01-2010 14:07:02 2.2 C 4.06 g/m*3 2.2 C 0 km/h
2830 15-01-2010 14:19:03 2.3 C 4.03 g/m*3 2.3 C 0 km/h
2831 15-01-2010 14:31:02 2.1 C 3.92 g/m*3 2.1 C 0 km/h
2832 15-01-2010 14:43:02 2 C 3.89 g/m*3 2 C 0 km/h
2833 15-01-2010 14:55:03 2.2 C 3.94 g/m*3 2.2 C 0 km/h
2834 15-01-2010 15:07:02 2.2 C 3.94 g/m*3 2.2 C 0 km/h
2835 15-01-2010 15:19:02 2.1 C 3.92 g/m*3 2.1 C 0 km/h
2836 15-01-2010 15:31:03 1.8 C 3.95 g/m*3 1.8 C 0 km/h
2837 15-01-2010 15:43:03 1.8 C 4 g/m*3 1.8 C 0 km/h
2838 15-01-2010 15:55:02 1.8 C 4 g/m*3 1.8 C 0 km/h
2839 15-01-2010 16:07:03 1.8 C 4 g/m*3 1.8 C 0 km/h
2840 15-01-2010 16:19:02 1.6 C 4 g/m*3 1.6 C 0 km/h
2841 15-01-2010 16:31:02 1.4 C 4 g/m*3 1.4 C 0 km/h
2842 15-01-2010 16:43:02 1.3 C 4.03 g/m*3 1.3 C 0 km/h
2843 15-01-2010 16:55:02 1.2 C 4 g/m*3 1.2 C 0 km/h
2844 15-01-2010 17:07:02 1.2 C 4.05 g/m*3 1.2 C 0 km/h
2845 15-01-2010 17:19:01 1.1 C 4.08 g/m*3 1.1 C 0 km/h
2846 15-01-2010 17:31:02 1 C 4.05 g/m*3 1 C 0 km/h
2847 15-01-2010 17:43:02 1 C 4.05 g/m*3 1 C 0 km/h
2848 15-01-2010 17:55:02 0.9 C 4.07 g/m*3 0.9 C 0 km/h
2849 15-01-2010 18:07:02 0.9 C 4.12 g/m*3 0.9 C 0 km/h
2850 15-01-2010 18:19:01 0.8 C 4.1 g/m*3 0.8 C 0 km/h
Sensor: Nr:Datum:Temp:Abs-Feuchte:Windchill:Wind:
Aussen-T/F 2851 15-01-2010 18:31:02 0.8 C 4.1 g/m*3 0.8 C 0 km/h
2852 15-01-2010 18:43:02 0.8 C 4.1 g/m*3 0.8 C 0 km/h
2853 15-01-2010 18:55:02 0.7 C 4.07 g/m*3 0.7 C 0 km/h
2854 15-01-2010 19:07:02 0.7 C 4.12 g/m*3 0.7 C 0 km/h
2855 15-01-2010 19:19:02 0.6 C 4.09 g/m*3 0.6 C 0 km/h
2856 15-01-2010 19:31:02 0.6 C 4.14 g/m*3 0.6 C 0 km/h
2857 15-01-2010 19:43:02 0.6 C 4.14 g/m*3 0.6 C 0 km/h
2858 15-01-2010 19:55:02 0.6 C 4.14 g/m*3 0.6 C 0 km/h
2859 15-01-2010 20:07:02 0.7 C 4.17 g/m*3 0.7 C 0 km/h
2860 15-01-2010 20:19:02 0.7 C 4.17 g/m*3 0.7 C 0 km/h
2861 15-01-2010 20:31:02 0.7 C 4.17 g/m*3 0.7 C 0 km/h
2862 15-01-2010 20:43:02 0.7 C 4.17 g/m*3 0.7 C 0 km/h
2863 15-01-2010 20:55:02 0.5 C 4.06 g/m*3 0.5 C 0 km/h
2864 15-01-2010 21:07:02 0.5 C 4.11 g/m*3 0.5 C 0 km/h
2865 15-01-2010 21:19:02 0.6 C 4.14 g/m*3 0.6 C 0 km/h
2866 15-01-2010 21:31:01 0.6 C 4.09 g/m*3 0.6 C 0 km/h
2867 15-01-2010 21:43:01 0.6 C 4.09 g/m*3 0.6 C 0 km/h
2868 15-01-2010 21:55:02 0.5 C 4.06 g/m*3 0.5 C 0 km/h
2869 15-01-2010 22:07:01 0.5 C 4.06 g/m*3 0.5 C 0 km/h
2870 15-01-2010 22:20:03 0.5 C 4.06 g/m*3 0.5 C 0 km/h
2871 15-01-2010 22:32:03 0.5 C 4.06 g/m*3 0.5 C 0 km/h
2872 15-01-2010 22:44:03 0.5 C 4.06 g/m*3 0.5 C 0 km/h
2873 15-01-2010 22:56:03 0.5 C 4.06 g/m*3 0.5 C 0 km/h
2874 15-01-2010 23:08:03 0.4 C 3.98 g/m*3 0.4 C 0 km/h
2875 15-01-2010 23:20:03 0.5 C 4.06 g/m*3 0.5 C 0 km/h
Sensor: Nr:Datum:Temp:Abs-Feuchte:Windchill:Wind:
Aussen-T/F 2876 15-01-2010 23:32:03 0.5 C 4.06 g/m*3 0.5 C 0 km/h
2877 15-01-2010 23:44:03 0.5 C 4.01 g/m*3 0.5 C 0 km/h
2878 15-01-2010 23:56:03 0.4 C 3.98 g/m*3 0.4 C 0 km/h
2879 16-01-2010 00:08:03 0.4 C 3.93 g/m*3 0.4 C 0 km/h
2880 16-01-2010 00:20:03 0.4 C 3.93 g/m*3 0.4 C 0 km/h
2881 16-01-2010 00:32:03 0.5 C 3.96 g/m*3 0.5 C 0 km/h
2882 16-01-2010 00:44:03 0.4 C 3.93 g/m*3 0.4 C 0 km/h
2883 16-01-2010 00:56:03 0.3 C 3.91 g/m*3 0.3 C 0 km/h
2884 16-01-2010 01:08:03 0.3 C 3.91 g/m*3 0.3 C 0 km/h
2885 16-01-2010 01:20:03 0.2 C 3.88 g/m*3 0.2 C 0 km/h
2886 16-01-2010 01:32:04 0.2 C 3.88 g/m*3 0.2 C 0 km/h
2887 16-01-2010 01:44:04 0.2 C 3.88 g/m*3 0.2 C 0 km/h
2888 16-01-2010 01:56:04 0.2 C 3.88 g/m*3 0.2 C 0 km/h
2889 16-01-2010 02:08:04 0.1 C 3.85 g/m*3 0.1 C 0 km/h
2890 16-01-2010 02:20:04 0.1 C 3.85 g/m*3 0.1 C 0 km/h
2891 16-01-2010 02:32:04 0.1 C 3.85 g/m*3 0.1 C 0 km/h
2892 16-01-2010 02:44:04 0.1 C 3.85 g/m*3 0.1 C 0 km/h
2893 16-01-2010 02:56:04 0.1 C 3.85 g/m*3 0.1 C 0 km/h
2894 16-01-2010 03:08:04 0.1 C 3.85 g/m*3 0.1 C 0 km/h
2895 16-01-2010 03:20:04 0.1 C 3.85 g/m*3 0.1 C 0 km/h
2896 16-01-2010 03:32:04 0.2 C 3.88 g/m*3 0.2 C 0 km/h
2897 16-01-2010 03:44:04 0.2 C 3.88 g/m*3 0.2 C 0 km/h
2898 16-01-2010 03:56:04 0.2 C 3.83 g/m*3 0.2 C 0 km/h
2899 16-01-2010 04:08:04 0.2 C 3.83 g/m*3 0.2 C 0 km/h
2900 16-01-2010 04:20:04 0.2 C 3.83 g/m*3 0.2 C 0 km/h
Sensor: Nr:Datum:Temp:Abs-Feuchte:Windchill:Wind:
Aussen-T/F 2901 16-01-2010 04:32:04 0.2 C 3.83 g/m*3 0.2 C 0 km/h
2902 16-01-2010 04:44:04 0.2 C 3.83 g/m*3 0.2 C 0 km/h
2903 16-01-2010 04:56:04 0.1 C 3.81 g/m*3 0.1 C 0 km/h
2904 16-01-2010 05:08:04 0.1 C 3.81 g/m*3 0.1 C 0 km/h
2905 16-01-2010 05:20:04 0 C 3.78 g/m*3 0 C 0 km/h
2906 16-01-2010 05:32:04 -0.1 C 3.8 g/m*3 -0.1 C 0 km/h
2907 16-01-2010 05:44:04 -0.2 C 3.78 g/m*3 -0.2 C 0 km/h
2908 16-01-2010 05:56:05 -0.2 C 3.82 g/m*3 -0.2 C 0 km/h
2909 16-01-2010 06:08:05 -0.3 C 3.8 g/m*3 -0.3 C 0 km/h
2910 16-01-2010 06:20:05 -0.3 C 3.8 g/m*3 -0.3 C 0 km/h
2911 16-01-2010 06:32:05 -0.4 C 3.77 g/m*3 -0.4 C 0 km/h
2912 16-01-2010 06:44:05 -0.4 C 3.82 g/m*3 -0.4 C 0 km/h
2913 16-01-2010 06:56:05 -0.4 C 3.82 g/m*3 -0.4 C 0 km/h
2914 16-01-2010 07:08:05 -0.4 C 3.82 g/m*3 -0.4 C 0 km/h
2915 16-01-2010 07:20:05 -0.5 C 3.79 g/m*3 -0.5 C 0 km/h
2916 16-01-2010 07:32:05 -0.6 C 3.72 g/m*3 -0.6 C 0 km/h
2917 16-01-2010 07:44:05 -0.7 C 3.69 g/m*3 -0.7 C 0 km/h
2918 16-01-2010 07:56:05 -0.7 C 3.74 g/m*3 -0.7 C 0 km/h
2919 16-01-2010 08:08:05 -0.7 C 3.69 g/m*3 -0.7 C 0 km/h
2920 16-01-2010 08:20:03 -0.7 C 3.69 g/m*3 -0.7 C 0 km/h
2921 16-01-2010 08:32:02 -0.7 C 3.69 g/m*3 -0.7 C 0 km/h
2922 16-01-2010 08:44:02 -0.6 C 3.72 g/m*3 -0.6 C 0 km/h
2923 16-01-2010 08:56:01 -0.5 C 3.74 g/m*3 -0.5 C 0 km/h
2924 16-01-2010 09:08:02 -0.5 C 3.74 g/m*3 -0.5 C 0 km/h
2925 16-01-2010 09:20:02 -0.4 C 3.77 g/m*3 -0.4 C 0 km/h
Sensor: Nr:Datum:Temp:Abs-Feuchte:Windchill:Wind:
Aussen-T/F 2926 16-01-2010 09:32:01 -0.4 C 3.77 g/m*3 -0.4 C 0 km/h
2927 16-01-2010 09:44:01 -0.4 C 3.72 g/m*3 -0.4 C 0 km/h
2928 16-01-2010 09:56:02 -0.3 C 3.75 g/m*3 -0.3 C 0 km/h
2929 16-01-2010 10:08:01 -0.5 C 3.6 g/m*3 -0.5 C 0 km/h
2930 16-01-2010 10:20:01 -0.5 C 3.6 g/m*3 -0.5 C 0 km/h
2931 16-01-2010 10:32:02 -0.3 C 3.65 g/m*3 -0.3 C 0 km/h
2932 16-01-2010 10:44:02 -0.7 C 3.51 g/m*3 -0.7 C 0 km/h
2933 16-01-2010 10:56:02 -0.5 C 3.56 g/m*3 -0.5 C 0 km/h
2934 16-01-2010 11:08:01 -0.5 C 3.51 g/m*3 -0.5 C 0 km/h
2935 16-01-2010 11:20:02 -0.3 C 3.56 g/m*3 -0.3 C 0 km/h
2936 16-01-2010 11:32:02 -0.2 C 3.58 g/m*3 -0.2 C 0 km/h
2937 16-01-2010 11:44:02 -0.1 C 3.56 g/m*3 -0.1 C 0 km/h
2938 16-01-2010 11:56:01 -0.2 C 3.49 g/m*3 -0.2 C 0 km/h
2939 16-01-2010 12:08:02 -0.2 C 3.49 g/m*3 -0.2 C 0 km/h
2940 16-01-2010 12:20:01 -0.1 C 3.51 g/m*3 -0.1 C 0 km/h
2941 16-01-2010 12:32:01 -0.3 C 3.46 g/m*3 -0.3 C 0 km/h
2942 16-01-2010 12:44:02 -0.2 C 3.49 g/m*3 -0.2 C 0 km/h
2943 16-01-2010 12:56:02 0 C 3.54 g/m*3 0 C 0 km/h
2944 16-01-2010 13:08:02 -0.1 C 3.51 g/m*3 -0.1 C 0 km/h
2945 16-01-2010 13:20:01 0.1 C 3.56 g/m*3 0.1 C 0 km/h
2946 16-01-2010 13:32:02 0 C 3.54 g/m*3 0 C 0 km/h
2947 16-01-2010 13:44:02 -0.2 C 3.44 g/m*3 -0.2 C 0 km/h
2948 16-01-2010 13:56:01 -0.5 C 3.42 g/m*3 -0.5 C 0 km/h
2949 16-01-2010 14:08:02 -0.4 C 3.49 g/m*3 -0.4 C 0 km/h
2950 16-01-2010 14:20:01 -0.5 C 3.46 g/m*3 -0.5 C 0 km/h
Sensor: Nr:Datum:Temp:Abs-Feuchte:Windchill:Wind:
Aussen-T/F 2951 16-01-2010 14:32:02 -0.4 C 3.53 g/m*3 -0.4 C 0 km/h
2952 16-01-2010 14:44:02 -0.3 C 3.56 g/m*3 -0.3 C 0 km/h
2953 16-01-2010 14:56:01 -0.2 C 3.58 g/m*3 -0.2 C 0 km/h
2954 16-01-2010 15:08:02 -0.2 C 3.58 g/m*3 -0.2 C 0 km/h
2955 16-01-2010 15:20:02 -0.2 C 3.58 g/m*3 -0.2 C 0 km/h
2956 16-01-2010 15:32:01 -0.2 C 3.58 g/m*3 -0.2 C 0 km/h
2957 16-01-2010 15:44:01 0 C 3.63 g/m*3 0 C 0 km/h
2958 16-01-2010 15:56:01 0 C 3.63 g/m*3 0 C 0 km/h
2959 16-01-2010 16:08:02 -0.2 C 3.63 g/m*3 -0.2 C 0 km/h
2960 16-01-2010 16:20:02 -0.2 C 3.63 g/m*3 -0.2 C 0 km/h
2961 16-01-2010 16:32:01 -0.2 C 3.63 g/m*3 -0.2 C 0 km/h
2962 16-01-2010 16:44:01 -0.2 C 3.68 g/m*3 -0.2 C 0 km/h
2963 16-01-2010 16:56:02 -0.2 C 3.68 g/m*3 -0.2 C 0 km/h
2964 16-01-2010 17:08:01 -0.2 C 3.68 g/m*3 -0.2 C 0 km/h
2965 16-01-2010 17:20:02 -0.1 C 3.71 g/m*3 -0.1 C 0 km/h
2966 16-01-2010 17:32:01 -0.1 C 3.71 g/m*3 -0.1 C 0 km/h
2967 16-01-2010 17:44:01 -0.1 C 3.71 g/m*3 -0.1 C 0 km/h
2968 16-01-2010 17:56:02 0 C 3.73 g/m*3 0 C 0 km/h
2969 16-01-2010 18:08:01 0 C 3.73 g/m*3 0 C 0 km/h
2970 16-01-2010 18:20:02 0 C 3.73 g/m*3 0 C 0 km/h
2971 16-01-2010 18:32:01 0 C 3.73 g/m*3 0 C 0 km/h
2972 16-01-2010 18:44:01 0.1 C 3.71 g/m*3 0.1 C 0 km/h
2973 16-01-2010 18:56:02 0.1 C 3.76 g/m*3 0.1 C 0 km/h
2974 16-01-2010 19:08:02 0.2 C 3.73 g/m*3 0.2 C 0 km/h
2975 16-01-2010 19:20:02 0.2 C 3.73 g/m*3 0.2 C 0 km/h
Sensor: Nr:Datum:Temp:Abs-Feuchte:Windchill:Wind:
Aussen-T/F 2976 16-01-2010 19:32:02 0.2 C 3.73 g/m*3 0.2 C 0 km/h
2977 16-01-2010 19:44:02 0.2 C 3.73 g/m*3 0.2 C 0 km/h
2978 16-01-2010 19:56:02 0.2 C 3.78 g/m*3 0.2 C 0 km/h
2979 16-01-2010 20:08:01 0.2 C 3.78 g/m*3 0.2 C 0 km/h
2980 16-01-2010 20:20:02 0.1 C 3.71 g/m*3 0.1 C 0 km/h
2981 16-01-2010 20:32:02 0.1 C 3.71 g/m*3 0.1 C 0 km/h
2982 16-01-2010 20:44:02 0.1 C 3.71 g/m*3 0.1 C 0 km/h
2983 16-01-2010 20:56:02 0.1 C 3.76 g/m*3 0.1 C 0 km/h
2984 16-01-2010 21:08:03 0.1 C 3.71 g/m*3 0.1 C 0 km/h
2985 16-01-2010 21:20:02 0 C 3.78 g/m*3 0 C 0 km/h
2986 16-01-2010 21:32:02 -0.1 C 3.85 g/m*3 -0.1 C 0 km/h
2987 16-01-2010 21:44:02 -0.3 C 3.94 g/m*3 -0.3 C 0 km/h
2988 16-01-2010 21:56:01 -0.3 C 3.99 g/m*3 -0.3 C 0 km/h
2989 16-01-2010 22:08:02 -0.3 C 3.99 g/m*3 -0.3 C 0 km/h
2990 16-01-2010 22:20:01 -0.2 C 4.01 g/m*3 -0.2 C 0 km/h
2991 16-01-2010 22:32:33 -0.2 C 4.01 g/m*3 -0.2 C 0 km/h
2992 16-01-2010 22:44:33 -0.1 C 4.04 g/m*3 -0.1 C 0 km/h
2993 16-01-2010 22:56:33 -0.1 C 4.09 g/m*3 -0.1 C 0 km/h
2994 16-01-2010 23:08:34 -0.1 C 4.09 g/m*3 -0.1 C 0 km/h
2995 16-01-2010 23:20:34 -0.1 C 4.09 g/m*3 -0.1 C 0 km/h
2996 16-01-2010 23:32:34 -0.1 C 4.09 g/m*3 -0.1 C 0 km/h
2997 16-01-2010 23:44:34 0 C 4.12 g/m*3 0 C 0 km/h
2998 16-01-2010 23:56:34 0 C 4.17 g/m*3 0 C 0 km/h
2999 17-01-2010 00:08:34 0 C 4.17 g/m*3 0 C 0 km/h
3000 17-01-2010 00:20:34 0 C 4.17 g/m*3 0 C 0 km/h
Sensor: Nr:Datum:Temp:Abs-Feuchte:Windchill:Wind:
Aussen-T/F 3001 17-01-2010 00:32:34 0.2 C 4.27 g/m*3 0.2 C 0 km/h
3002 17-01-2010 00:44:34 0.2 C 4.32 g/m*3 0.2 C 0 km/h
3003 17-01-2010 00:56:34 0.2 C 4.32 g/m*3 0.2 C 0 km/h
3004 17-01-2010 01:08:34 0.3 C 4.4 g/m*3 0.3 C 0 km/h
3005 17-01-2010 01:20:34 0.3 C 4.4 g/m*3 0.3 C 0 km/h
3006 17-01-2010 01:32:34 0.3 C 4.45 g/m*3 0.3 C 0 km/h
3007 17-01-2010 01:44:34 0.4 C 4.48 g/m*3 0.4 C 0 km/h
3008 17-01-2010 01:56:34 0.4 C 4.53 g/m*3 0.4 C 0 km/h
3009 17-01-2010 02:08:34 0.4 C 4.53 g/m*3 0.4 C 0 km/h
3010 17-01-2010 02:20:34 0.5 C 4.56 g/m*3 0.5 C 0 km/h
3011 17-01-2010 02:32:34 0.5 C 4.56 g/m*3 0.5 C 0 km/h
3012 17-01-2010 02:44:34 0.6 C 4.65 g/m*3 0.6 C 0 km/h
3013 17-01-2010 02:56:34 0.6 C 4.65 g/m*3 0.6 C 0 km/h
3014 17-01-2010 03:08:34 0.6 C 4.65 g/m*3 0.6 C 0 km/h
3015 17-01-2010 03:20:35 0.5 C 4.61 g/m*3 0.5 C 0 km/h
3016 17-01-2010 03:32:35 0.6 C 4.7 g/m*3 0.6 C 0 km/h
3017 17-01-2010 03:44:35 0.7 C 4.73 g/m*3 0.7 C 0 km/h
3018 17-01-2010 03:56:35 0.7 C 4.73 g/m*3 0.7 C 0 km/h
3019 17-01-2010 04:08:35 0.9 C 4.79 g/m*3 0.9 C 0 km/h
3020 17-01-2010 04:20:35 0.9 C 4.85 g/m*3 0.9 C 0 km/h
3021 17-01-2010 04:32:35 0.9 C 4.85 g/m*3 0.9 C 0 km/h
3022 17-01-2010 04:44:35 1 C 4.83 g/m*3 1 C 0 km/h
3023 17-01-2010 04:56:35 1.1 C 4.91 g/m*3 1.1 C 0 km/h
3024 17-01-2010 05:08:35 1.2 C 4.95 g/m*3 1.2 C 0 km/h
3025 17-01-2010 05:20:35 1.2 C 4.95 g/m*3 1.2 C 0 km/h
Sensor: Nr:Datum:Temp:Abs-Feuchte:Windchill:Wind:
Aussen-T/F 3026 17-01-2010 05:32:35 1.1 C 4.91 g/m*3 1.1 C 0 km/h
3027 17-01-2010 05:44:35 1.1 C 4.91 g/m*3 1.1 C 0 km/h
3028 17-01-2010 05:56:35 1.1 C 4.91 g/m*3 1.1 C 0 km/h
3029 17-01-2010 06:08:35 1.1 C 4.91 g/m*3 1.1 C 0 km/h
3030 17-01-2010 06:20:35 1.1 C 4.91 g/m*3 1.1 C 0 km/h
3031 17-01-2010 06:32:35 1.1 C 4.91 g/m*3 1.1 C 0 km/h
3032 17-01-2010 06:44:35 1 C 4.93 g/m*3 1 C 0 km/h
3033 17-01-2010 06:56:35 1.1 C 4.96 g/m*3 1.1 C 0 km/h
3034 17-01-2010 07:08:35 1.1 C 4.96 g/m*3 1.1 C 0 km/h
3035 17-01-2010 07:20:35 1.2 C 5 g/m*3 1.2 C 0 km/h
3036 17-01-2010 07:32:36 1.2 C 5 g/m*3 1.2 C 0 km/h
3037 17-01-2010 07:44:36 1.2 C 5 g/m*3 1.2 C 0 km/h
3038 17-01-2010 07:56:01 1.2 C 5 g/m*3 1.2 C 0 km/h
3039 17-01-2010 08:08:01 1.3 C 5.03 g/m*3 1.3 C 0 km/h
3040 17-01-2010 08:20:01 1.2 C 5 g/m*3 1.2 C 0 km/h
3041 17-01-2010 08:32:02 1.2 C 5 g/m*3 1.2 C 0 km/h
3042 17-01-2010 08:44:02 1.4 C 5.07 g/m*3 1.4 C 0 km/h
3043 17-01-2010 08:56:01 1.4 C 5.07 g/m*3 1.4 C 0 km/h
3044 17-01-2010 09:08:02 1.4 C 5.07 g/m*3 1.4 C 0 km/h
3045 17-01-2010 09:20:01 1.4 C 5.07 g/m*3 1.4 C 0 km/h
3046 17-01-2010 09:32:01 1.5 C 5.1 g/m*3 1.5 C 0 km/h
3047 17-01-2010 09:44:02 1.5 C 5.1 g/m*3 1.5 C 0 km/h
3048 17-01-2010 09:56:01 1.6 C 5.14 g/m*3 1.6 C 0 km/h
3049 17-01-2010 10:08:01 1.7 C 5.17 g/m*3 1.7 C 0 km/h
3050 17-01-2010 10:20:01 1.8 C 5.21 g/m*3 1.8 C 0 km/h
Sensor: Nr:Datum:Temp:Abs-Feuchte:Windchill:Wind:
Aussen-T/F 3051 17-01-2010 10:32:02 2 C 5.28 g/m*3 2 C 0 km/h
3052 17-01-2010 10:44:02 2.1 C 5.31 g/m*3 2.1 C 0 km/h
3053 17-01-2010 10:56:01 2.1 C 5.31 g/m*3 2.1 C 0 km/h
3054 17-01-2010 11:08:02 2 C 5.28 g/m*3 2 C 0 km/h
3055 17-01-2010 11:20:01 2.1 C 5.31 g/m*3 2.1 C 0 km/h
3056 17-01-2010 11:32:01 2.3 C 5.39 g/m*3 2.3 C 0 km/h
3057 17-01-2010 11:44:02 2.4 C 5.42 g/m*3 2.4 C 0 km/h
3058 17-01-2010 11:56:01 2.4 C 5.42 g/m*3 2.4 C 0 km/h
3059 17-01-2010 12:08:02 2.5 C 5.46 g/m*3 2.5 C 0 km/h
3060 17-01-2010 12:20:01 3.2 C 5.72 g/m*3 3.2 C 0 km/h
3061 17-01-2010 12:32:01 3.5 C 5.84 g/m*3 3.5 C 0 km/h
3062 17-01-2010 12:44:01 3.5 C 5.84 g/m*3 3.5 C 0 km/h
3063 17-01-2010 12:56:01 3.6 C 5.88 g/m*3 3.6 C 0 km/h
3064 17-01-2010 13:08:01 3.5 C 5.84 g/m*3 3.5 C 0 km/h
3065 17-01-2010 13:20:01 3.3 C 5.76 g/m*3 3.3 C 0 km/h
3066 17-01-2010 13:32:01 3.2 C 5.72 g/m*3 3.2 C 0 km/h
3067 17-01-2010 13:44:01 3.3 C 5.76 g/m*3 3.3 C 0 km/h
3068 17-01-2010 13:56:01 3.3 C 5.76 g/m*3 3.3 C 0 km/h
3069 17-01-2010 14:08:01 3.3 C 5.76 g/m*3 3.3 C 0 km/h
3070 17-01-2010 14:20:02 3.6 C 5.88 g/m*3 3.6 C 0 km/h
3071 17-01-2010 14:32:01 4.2 C 6.12 g/m*3 4.2 C 0 km/h
3072 17-01-2010 14:44:01 4.2 C 6.12 g/m*3 4.2 C 0 km/h
3073 17-01-2010 14:56:01 4.2 C 6.12 g/m*3 4.2 C 0 km/h
3074 17-01-2010 15:08:01 4.3 C 6.16 g/m*3 4.3 C 0 km/h
3075 17-01-2010 15:20:02 4.3 C 6.1 g/m*3 4.3 C 0 km/h
Sensor: Nr:Datum:Temp:Abs-Feuchte:Windchill:Wind:
Aussen-T/F 3076 17-01-2010 15:32:01 4.8 C 6.04 g/m*3 4.8 C 0 km/h
3077 17-01-2010 15:44:01 4.8 C 5.7 g/m*3 4.8 C 0 km/h
3078 17-01-2010 15:56:02 4.7 C 5.46 g/m*3 4.7 C 0 km/h
3079 17-01-2010 16:08:01 4.3 C 5.32 g/m*3 4.3 C 0 km/h
3080 17-01-2010 16:20:02 4.2 C 5.35 g/m*3 4.2 C 0 km/h
3081 17-01-2010 16:32:01 4 C 5.28 g/m*3 4 C 0 km/h
3082 17-01-2010 16:44:01 3.4 C 5.13 g/m*3 3.4 C 0 km/h
3083 17-01-2010 16:56:02 3 C 5.05 g/m*3 3 C 0 km/h
3084 17-01-2010 17:08:01 2.8 C 5.1 g/m*3 2.8 C 0 km/h
3085 17-01-2010 17:20:01 2.8 C 5.22 g/m*3 2.8 C 0 km/h
3086 17-01-2010 17:32:02 3 C 5.23 g/m*3 3 C 0 km/h
3087 17-01-2010 17:44:02 3.1 C 5.27 g/m*3 3.1 C 0 km/h
3088 17-01-2010 17:56:02 3.1 C 5.21 g/m*3 3.1 C 0 km/h
3089 17-01-2010 18:08:01 2.9 C 5.14 g/m*3 2.9 C 0 km/h
3090 17-01-2010 18:20:01 2.7 C 5.07 g/m*3 2.7 C 0 km/h
3091 17-01-2010 18:32:02 2.9 C 5.14 g/m*3 2.9 C 0 km/h
3092 17-01-2010 18:44:02 3 C 5.05 g/m*3 3 C 0 km/h
3093 17-01-2010 18:56:01 2.8 C 4.99 g/m*3 2.8 C 0 km/h
3094 17-01-2010 19:08:02 2.6 C 4.98 g/m*3 2.6 C 0 km/h
3095 17-01-2010 19:20:01 2.7 C 5.07 g/m*3 2.7 C 0 km/h
3096 17-01-2010 19:32:02 2.6 C 4.98 g/m*3 2.6 C 0 km/h
3097 17-01-2010 19:44:02 2.6 C 5.03 g/m*3 2.6 C 0 km/h
3098 17-01-2010 19:56:01 2.5 C 5 g/m*3 2.5 C 0 km/h
3099 17-01-2010 20:08:02 2.4 C 5.02 g/m*3 2.4 C 0 km/h
3100 17-01-2010 20:20:02 2.2 C 4.96 g/m*3 2.2 C 0 km/h
Sensor: Nr:Datum:Temp:Abs-Feuchte:Windchill:Wind:
Aussen-T/F 3101 17-01-2010 20:32:01 2.1 C 4.92 g/m*3 2.1 C 0 km/h
3102 17-01-2010 20:44:01 2.1 C 4.98 g/m*3 2.1 C 0 km/h
3103 17-01-2010 20:56:01 2.1 C 4.98 g/m*3 2.1 C 0 km/h
3104 17-01-2010 21:08:02 2.2 C 5.07 g/m*3 2.2 C 0 km/h
3105 17-01-2010 21:20:01 2.2 C 5.01 g/m*3 2.2 C 0 km/h
3106 17-01-2010 21:32:01 2.3 C 5.05 g/m*3 2.3 C 0 km/h
3107 17-01-2010 21:44:02 2.2 C 5.01 g/m*3 2.2 C 0 km/h
3108 17-01-2010 21:56:01 2.2 C 5.01 g/m*3 2.2 C 0 km/h
3109 17-01-2010 22:09:05 2.2 C 5.01 g/m*3 2.2 C 0 km/h
3110 17-01-2010 22:21:05 2.4 C 5.08 g/m*3 2.4 C 0 km/h
3111 17-01-2010 22:33:05 2.5 C 5.12 g/m*3 2.5 C 0 km/h
3112 17-01-2010 22:45:05 2.8 C 5.22 g/m*3 2.8 C 0 km/h
3113 17-01-2010 22:57:06 3.1 C 5.21 g/m*3 3.1 C 0 km/h
3114 17-01-2010 23:09:06 3.2 C 5.24 g/m*3 3.2 C 0 km/h
3115 17-01-2010 23:21:06 3.2 C 5.12 g/m*3 3.2 C 0 km/h
3116 17-01-2010 23:33:06 3.2 C 5.12 g/m*3 3.2 C 0 km/h
3117 17-01-2010 23:45:06 3.1 C 5.09 g/m*3 3.1 C 0 km/h
3118 17-01-2010 23:57:06 3 C 5.05 g/m*3 3 C 0 km/h
3119 18-01-2010 00:09:06 3.1 C 5.15 g/m*3 3.1 C 0 km/h
3120 18-01-2010 00:21:06 3.1 C 5.15 g/m*3 3.1 C 0 km/h
3121 18-01-2010 00:33:06 3.1 C 5.09 g/m*3 3.1 C 0 km/h
3122 18-01-2010 00:45:06 3 C 5.11 g/m*3 3 C 0 km/h
3123 18-01-2010 00:57:06 2.9 C 5.2 g/m*3 2.9 C 0 km/h
3124 18-01-2010 01:09:06 2.7 C 5.19 g/m*3 2.7 C 0 km/h
3125 18-01-2010 01:21:06 2.7 C 5.24 g/m*3 2.7 C 0 km/h
Sensor: Nr:Datum:Temp:Abs-Feuchte:Windchill:Wind:
Aussen-T/F 3126 18-01-2010 01:33:06 2.7 C 5.3 g/m*3 2.7 C 0 km/h
3127 18-01-2010 01:45:06 2.7 C 5.36 g/m*3 2.7 C 0 km/h
3128 18-01-2010 01:57:06 2.7 C 5.36 g/m*3 2.7 C 0 km/h
3129 18-01-2010 02:09:06 2.7 C 5.36 g/m*3 2.7 C 0 km/h
3130 18-01-2010 02:21:06 2.6 C 5.32 g/m*3 2.6 C 0 km/h
3131 18-01-2010 02:33:06 2.6 C 5.32 g/m*3 2.6 C 0 km/h
3132 18-01-2010 02:45:06 2.5 C 5.35 g/m*3 2.5 C 0 km/h
3133 18-01-2010 02:57:06 2.4 C 5.31 g/m*3 2.4 C 0 km/h
3134 18-01-2010 03:09:07 2.4 C 5.31 g/m*3 2.4 C 0 km/h
3135 18-01-2010 03:21:07 2.5 C 5.35 g/m*3 2.5 C 0 km/h
3136 18-01-2010 03:33:07 2.6 C 5.38 g/m*3 2.6 C 0 km/h
3137 18-01-2010 03:45:07 2.6 C 5.38 g/m*3 2.6 C 0 km/h
3138 18-01-2010 03:57:07 2.8 C 5.46 g/m*3 2.8 C 0 km/h
3139 18-01-2010 04:09:07 2.8 C 5.46 g/m*3 2.8 C 0 km/h
3140 18-01-2010 04:21:07 2.8 C 5.46 g/m*3 2.8 C 0 km/h
3141 18-01-2010 04:33:07 2.8 C 5.4 g/m*3 2.8 C 0 km/h
3142 18-01-2010 04:45:07 2.9 C 5.43 g/m*3 2.9 C 0 km/h
3143 18-01-2010 04:57:07 2.8 C 5.34 g/m*3 2.8 C 0 km/h
3144 18-01-2010 05:09:07 3 C 5.35 g/m*3 3 C 0 km/h
3145 18-01-2010 05:21:07 3 C 5.29 g/m*3 3 C 0 km/h
3146 18-01-2010 05:33:07 3.1 C 5.33 g/m*3 3.1 C 0 km/h
3147 18-01-2010 05:45:07 3.1 C 5.27 g/m*3 3.1 C 0 km/h
3148 18-01-2010 05:57:07 3.1 C 5.21 g/m*3 3.1 C 0 km/h
3149 18-01-2010 06:09:07 3.2 C 5.24 g/m*3 3.2 C 0 km/h
3150 18-01-2010 06:21:07 3.1 C 5.21 g/m*3 3.1 C 0 km/h
Sensor: Nr:Datum:Temp:Abs-Feuchte:Windchill:Wind:
Aussen-T/F 3151 18-01-2010 06:33:07 3.2 C 5.24 g/m*3 3.2 C 0 km/h
3152 18-01-2010 06:45:07 3.1 C 5.21 g/m*3 3.1 C 0 km/h
3153 18-01-2010 06:57:07 3 C 5.17 g/m*3 3 C 0 km/h
3154 18-01-2010 07:09:07 3 C 5.17 g/m*3 3 C 0 km/h
3155 18-01-2010 07:21:05 2.8 C 5.16 g/m*3 2.8 C 0 km/h
3156 18-01-2010 07:33:05 3 C 5.23 g/m*3 3 C 0 km/h
3157 18-01-2010 07:45:02 3 C 5.23 g/m*3 3 C 0 km/h
3158 18-01-2010 07:57:02 3 C 5.23 g/m*3 3 C 0 km/h
3159 18-01-2010 08:09:02 3.1 C 5.27 g/m*3 3.1 C 0 km/h
3160 18-01-2010 08:21:02 3 C 5.17 g/m*3 3 C 0 km/h
3161 18-01-2010 08:33:02 3 C 5.17 g/m*3 3 C 0 km/h
3162 18-01-2010 08:45:02 3.1 C 5.21 g/m*3 3.1 C 0 km/h
3163 18-01-2010 08:57:02 3.2 C 5.24 g/m*3 3.2 C 0 km/h
3164 18-01-2010 09:09:02 3.2 C 5.18 g/m*3 3.2 C 0 km/h
3165 18-01-2010 09:21:01 3.2 C 5.18 g/m*3 3.2 C 0 km/h
3166 18-01-2010 09:33:02 3.4 C 5.25 g/m*3 3.4 C 0 km/h
3167 18-01-2010 09:45:02 3.5 C 5.29 g/m*3 3.5 C 0 km/h
3168 18-01-2010 09:57:02 3.7 C 5.3 g/m*3 3.7 C 0 km/h
3169 18-01-2010 10:09:02 4 C 5.34 g/m*3 4 C 0 km/h
3170 18-01-2010 10:21:02 4.1 C 5.31 g/m*3 4.1 C 0 km/h
3171 18-01-2010 10:33:02 4.2 C 5.28 g/m*3 4.2 C 0 km/h
3172 18-01-2010 10:45:02 4.2 C 5.22 g/m*3 4.2 C 0 km/h
3173 18-01-2010 10:57:02 4.1 C 5.18 g/m*3 4.1 C 0 km/h
3174 18-01-2010 11:09:02 4 C 5.15 g/m*3 4 C 0 km/h
3175 18-01-2010 11:21:02 3.9 C 5.24 g/m*3 3.9 C 0 km/h
Sensor: Nr:Datum:Temp:Abs-Feuchte:Windchill:Wind:
Aussen-T/F 3176 18-01-2010 11:33:02 3.9 C 5.24 g/m*3 3.9 C 0 km/h
3177 18-01-2010 11:45:01 4 C 5.21 g/m*3 4 C 0 km/h
3178 18-01-2010 11:57:01 4 C 5.21 g/m*3 4 C 0 km/h
3179 18-01-2010 12:09:01 4.3 C 5.25 g/m*3 4.3 C 0 km/h
3180 18-01-2010 12:21:02 4.4 C 5.16 g/m*3 4.4 C 0 km/h
3181 18-01-2010 12:33:01 4.6 C 5.23 g/m*3 4.6 C 0 km/h
3182 18-01-2010 12:45:02 4.6 C 5.16 g/m*3 4.6 C 0 km/h
3183 18-01-2010 12:57:02 4.6 C 5.16 g/m*3 4.6 C 0 km/h
3184 18-01-2010 13:09:01 4.5 C 5.06 g/m*3 4.5 C 0 km/h
3185 18-01-2010 13:21:02 4.6 C 5.1 g/m*3 4.6 C 0 km/h
3186 18-01-2010 13:33:01 4.6 C 4.96 g/m*3 4.6 C 0 km/h
3187 18-01-2010 13:45:02 4.9 C 5 g/m*3 4.9 C 0 km/h
3188 18-01-2010 13:57:02 5.2 C 4.96 g/m*3 5.2 C 0 km/h
3189 18-01-2010 14:09:02 5 C 4.82 g/m*3 5 C 0 km/h
3190 18-01-2010 14:21:02 5 C 4.82 g/m*3 5 C 0 km/h
3191 18-01-2010 14:33:02 5 C 4.76 g/m*3 5 C 0 km/h
3192 18-01-2010 14:45:02 4.7 C 4.8 g/m*3 4.7 C 0 km/h
3193 18-01-2010 14:57:02 4.6 C 4.76 g/m*3 4.6 C 0 km/h
3194 18-01-2010 15:09:01 4.5 C 4.8 g/m*3 4.5 C 0 km/h
3195 18-01-2010 15:21:02 4.6 C 4.83 g/m*3 4.6 C 0 km/h
3196 18-01-2010 15:33:02 4.8 C 4.83 g/m*3 4.8 C 0 km/h
3197 18-01-2010 15:45:02 4.7 C 4.8 g/m*3 4.7 C 0 km/h
3198 18-01-2010 15:57:03 4.6 C 4.83 g/m*3 4.6 C 0 km/h
3199 18-01-2010 16:09:01 4.3 C 4.8 g/m*3 4.3 C 0 km/h
3200 18-01-2010 16:21:01 4.2 C 4.77 g/m*3 4.2 C 0 km/h
Sensor: Nr:Datum:Temp:Abs-Feuchte:Windchill:Wind:
Aussen-T/F 3201 18-01-2010 16:33:02 4.1 C 4.8 g/m*3 4.1 C 0 km/h
3202 18-01-2010 16:45:02 4 C 4.77 g/m*3 4 C 0 km/h
3203 18-01-2010 16:57:02 3.7 C 4.74 g/m*3 3.7 C 0 km/h
3204 18-01-2010 17:09:02 3.5 C 4.73 g/m*3 3.5 C 0 km/h
3205 18-01-2010 17:21:02 3.5 C 4.8 g/m*3 3.5 C 0 km/h
3206 18-01-2010 17:33:02 3.4 C 4.76 g/m*3 3.4 C 0 km/h
3207 18-01-2010 17:45:02 3.4 C 4.76 g/m*3 3.4 C 0 km/h
3208 18-01-2010 17:57:02 3.4 C 4.83 g/m*3 3.4 C 0 km/h
3209 18-01-2010 18:09:03 3.3 C 4.79 g/m*3 3.3 C 0 km/h
3210 18-01-2010 18:21:02 3.3 C 4.85 g/m*3 3.3 C 0 km/h
3211 18-01-2010 18:33:02 3.3 C 4.85 g/m*3 3.3 C 0 km/h
3212 18-01-2010 18:45:01 3.1 C 4.79 g/m*3 3.1 C 0 km/h
3213 18-01-2010 18:57:01 3.1 C 4.85 g/m*3 3.1 C 0 km/h
3214 18-01-2010 19:09:02 3 C 4.82 g/m*3 3 C 0 km/h
3215 18-01-2010 19:21:01 3.1 C 4.85 g/m*3 3.1 C 0 km/h
3216 18-01-2010 19:33:02 3 C 4.82 g/m*3 3 C 0 km/h
3217 18-01-2010 19:45:01 3 C 4.82 g/m*3 3 C 0 km/h
3218 18-01-2010 19:57:01 3 C 4.82 g/m*3 3 C 0 km/h
3219 18-01-2010 20:09:02 2.9 C 4.84 g/m*3 2.9 C 0 km/h
3220 18-01-2010 20:21:01 2.8 C 4.87 g/m*3 2.8 C 0 km/h
3221 18-01-2010 20:33:02 2.9 C 4.9 g/m*3 2.9 C 0 km/h
3222 18-01-2010 20:45:01 3 C 4.88 g/m*3 3 C 0 km/h
3223 18-01-2010 20:57:01 3 C 4.82 g/m*3 3 C 0 km/h
3224 18-01-2010 21:09:02 3 C 4.82 g/m*3 3 C 0 km/h
3225 18-01-2010 21:21:01 2.9 C 4.84 g/m*3 2.9 C 0 km/h
Sensor: Nr:Datum:Temp:Abs-Feuchte:Windchill:Wind:
Aussen-T/F 3226 18-01-2010 21:33:02 2.9 C 4.84 g/m*3 2.9 C 0 km/h
3227 18-01-2010 21:46:02 2.9 C 4.84 g/m*3 2.9 C 0 km/h
3228 18-01-2010 21:58:02 2.8 C 4.81 g/m*3 2.8 C 0 km/h
3229 18-01-2010 22:10:02 2.7 C 4.84 g/m*3 2.7 C 0 km/h
3230 18-01-2010 22:22:02 2.7 C 4.84 g/m*3 2.7 C 0 km/h
3231 18-01-2010 22:34:02 2.6 C 4.8 g/m*3 2.6 C 0 km/h
3232 18-01-2010 22:46:02 2.7 C 4.84 g/m*3 2.7 C 0 km/h
3233 18-01-2010 22:58:02 2.7 C 4.84 g/m*3 2.7 C 0 km/h
3234 18-01-2010 23:10:02 2.8 C 4.81 g/m*3 2.8 C 0 km/h
3235 18-01-